[[{"header":{"parameterUnit":"m.s-1","parameterCategory":1,"la1":30.6,"la2":28.766,"lo1":-90.7593,"lo2":-88.6598,"dy":0.0162,"dx":0.0183,"nx":116,"ny":114,"refTime":"2023-09-10T18:00:00:Z","depth":0,"parameterNumber":2,"parameterNumberName":"U-component_of_WINDS"},"data":[0.0,0.0,0.0,0.0,0.0,0.0,0.0,0.0,0.0,0.0,0.0,0.0,0.0,0.0,0.0,0.0,0.0,0.0,0.0,0.0,0.0,0.0,0.0,0.0,0.0,0.0,0.0,0.0,0.0,0.0,0.0,0.0,0.0,0.0,0.0,0.0,0.0,0.0,0.0,0.0,0.0,0.0,0.0,0.0,0.0,0.0,0.0,0.0,0.0,0.0,0.0,0.0,0.0,0.0,0.0,0.0,0.0,0.0,0.0,0.0,0.0,0.0,0.0,0.0,0.0,0.0,0.0,0.0,0.0,0.0,0.0,0.0,0.0,0.0,0.0,0.0,0.0,0.0,0.0,0.0,0.0,0.0,0.0,0.0,0.0,0.0,0.0,0.0,0.0,0.0,0.0,0.0,0.0,0.0,0.0,0.0,0.0,0.0,0.0,0.0,0.0,0.0,0.0,0.0,0.0,0.0,0.0,0.0,0.0,0.0,0.0,0.0,0.0,0.0,0.0,0.0,0.0,0.0,0.0,0.0,0.0,0.0,0.0,0.0,0.0,0.0,0.0,0.0,0.0,0.0,0.0,0.0,0.0,0.0,0.0,0.0,0.0,0.0,0.0,0.0,0.0,0.0,0.0,0.0,0.0,0.0,0.0,0.0,0.0,0.0,0.0,0.0,0.0,0.0,0.0,0.0,0.0,0.0,0.0,0.0,0.0,0.0,0.0,0.0,0.0,0.0,0.0,0.0,0.0,0.0,0.0,0.0,0.0,0.0,0.0,0.0,0.0,0.0,0.0,0.0,0.0,0.0,0.0,0.0,0.0,0.0,0.0,0.0,0.0,0.0,0.0,0.0,0.0,0.0,0.0,0.0,0.0,0.0,0.0,0.0,0.0,0.0,0.0,0.0,0.0,0.0,0.0,0.0,0.0,0.0,0.0,0.0,0.0,0.0,0.0,0.0,0.0,0.0,0.0,0.0,0.0,0.0,0.0,0.0,0.0,0.0,0.0,0.0,0.0,0.0,0.0,0.0,0.0,0.0,0.0,0.0,0.0,0.0,0.0,0.0,0.0,0.0,0.0,0.0,0.0,0.0,0.0,0.0,0.0,0.0,0.0,0.0,0.0,0.0,0.0,0.0,0.0,0.0,0.0,0.0,0.0,0.0,0.0,0.0,0.0,0.0,0.0,0.0,0.0,0.0,0.0,0.0,0.0,0.0,0.0,0.0,0.0,0.0,0.0,0.0,0.0,0.0,0.0,0.0,0.0,0.0,0.0,0.0,0.0,0.0,0.0,0.0,0.0,0.0,0.0,0.0,0.0,0.0,0.0,0.0,0.0,0.0,0.0,0.0,0.0,0.0,0.0,0.0,0.0,0.0,0.0,0.0,0.0,0.0,0.0,0.0,0.0,0.0,0.0,0.0,0.0,0.0,0.0,0.0,0.0,0.0,0.0,0.0,0.0,0.0,0.0,0.0,0.0,0.0,0.0,0.0,0.0,0.0,0.0,0.0,0.0,0.0,0.0,0.0,0.0,0.0,0.0,0.0,0.0,0.0,0.0,0.0,0.0,0.0,0.0,0.0,0.0,0.0,0.0,0.0,0.0,0.0,0.0,0.0,0.0,0.0,0.0,0.0,0.0,0.0,0.0,0.0,0.0,0.0,0.0,0.0,0.0,0.0,0.0,0.0,0.0,0.0,0.0,0.0,0.0,0.0,0.0,0.0,0.0,0.0,0.0,0.0,0.0,0.0,0.0,0.0,0.0,0.0,0.0,0.0,0.0,0.0,0.0,0.0,0.0,0.0,0.0,0.0,0.0,0.0,0.0,0.0,0.0,0.0,0.0,0.0,0.0,0.0,0.0,0.0,0.0,0.0,0.0,0.0,0.0,0.0,0.0,0.0,0.0,0.0,0.0,0.0,0.0,0.0,0.0,0.0,0.0,0.0,0.0,0.0,0.0,0.0,0.0,0.0,0.0,0.0,0.0,0.0,0.0,0.0,0.0,0.0,0.0,0.0,0.0,0.0,0.0,0.0,0.0,0.0,0.0,0.0,0.0,0.0,0.0,0.0,0.0,0.0,0.0,0.0,0.0,0.0,0.0,0.0,0.0,0.0,0.0,0.0,0.0,0.0,0.0,0.0,0.0,0.0,0.0,0.0,0.0,0.0,0.0,0.0,0.0,0.0,0.0,0.0,0.0,0.0,0.0,0.0,0.0,0.0,0.0,0.0,0.0,0.0,0.0,0.0,0.0,0.0,0.0,0.0,0.0,0.0,0.0,0.0,0.0,0.0,0.0,0.0,0.0,0.0,0.0,0.0,0.0,0.0,0.0,0.0,0.0,0.0,0.0,0.0,0.0,0.0,0.0,0.0,0.0,0.0,0.0,0.0,0.0,0.0,0.0,0.0,0.0,0.0,0.0,0.0,0.0,0.0,0.0,0.0,0.0,0.0,0.0,0.0,0.0,0.0,0.0,0.0,0.0,0.0,0.0,0.0,0.0,0.0,0.0,0.0,0.0,0.0,0.0,0.0,0.0,0.0,0.0,0.0,0.0,0.0,0.0,0.0,0.0,0.0,0.0,0.0,0.0,0.0,0.0,0.0,0.0,0.0,0.0,0.0,0.0,0.0,0.0,0.0,0.0,0.0,0.0,0.0,0.0,0.0,0.0,0.0,0.0,0.0,0.0,0.0,0.0,0.0,0.0,0.0,0.0,0.0,0.0,0.0,0.0,0.0,0.0,0.0,0.0,0.0,0.0,0.0,0.0,0.0,0.0,0.0,0.0,0.0,0.0,0.0,0.0,0.0,0.0,0.0,0.0,0.0,0.0,0.0,0.0,0.0,0.0,0.0,0.0,0.0,0.0,0.0,0.0,0.0,0.0,0.0,0.0,0.0,0.0,0.0,0.0,0.0,0.0,0.0,0.0,0.0,0.0,0.0,0.0,0.0,0.0,0.0,0.0,0.0,0.0,0.0,0.0,0.0,0.0,0.0,0.0,0.0,0.0,0.0,0.0,0.0,0.0,0.0,0.0,0.0,0.0,0.0,0.0,0.0,0.0,0.0,0.0,0.0,0.0,0.0,0.0,0.0,0.0,0.0,0.0,0.0,0.0,0.0,0.0,0.0,0.0,0.0,0.0,0.0,0.0,0.0,0.0,0.0,0.0,0.0,0.0,0.0,0.0,0.0,0.0,0.0,0.0,0.0,0.0,0.0,0.0,0.0,0.0,0.0,0.0,0.0,0.0,0.0,0.0,0.0,0.0,0.0,0.0,0.0,0.0,0.0,0.0,0.0,0.0,0.0,0.0,0.0,0.0,0.0,0.0,0.0,0.0,0.0,0.0,0.0,0.0,0.0,0.0,0.0,0.0,0.0,0.0,0.0,0.0,0.0,0.0,0.0,0.0,0.0,0.0,0.0,0.0,0.0,0.0,0.0,0.0,0.0,0.0,0.0,0.0,0.0,0.0,0.0,0.0,0.0,0.0,0.0,0.0,0.0,0.0,0.0,0.0,0.0,0.0,0.0,0.0,0.0,0.0,0.0,0.0,0.0,0.0,0.0,0.0,0.0,0.0,0.0,0.0,0.0,0.0,0.0,0.0,0.0,0.0,0.0,0.0,0.0,0.0,0.0,0.0,0.0,0.0,0.0,0.0,0.0,0.0,0.0,0.0,0.0,0.0,0.0,0.0,0.0,0.0,0.0,0.0,0.0,0.0,0.0,0.0,0.0,0.0,0.0,0.0,0.0,0.0,0.0,0.0,0.0,0.0,0.0,0.0,0.0,0.0,0.0,0.0,0.0,0.0,0.0,0.0,0.0,0.0,0.0,0.0,0.0,0.0,0.0,0.0,0.0,0.0,0.0,0.0,0.0,0.0,0.0,0.0,0.0,0.0,0.0,0.0,0.0,0.0,0.0,0.0,0.0,0.0,0.0,0.0,0.0,0.0,0.0,0.0,0.0,0.0,0.0,0.0,0.0,0.0,0.0,0.0,0.0,0.0,0.0,0.0,0.0,0.0,0.0,0.0,0.0,0.0,0.0,0.0,0.0,0.0,0.0,0.0,0.0,0.0,0.0,0.0,0.0,0.0,0.0,0.0,0.0,0.0,0.0,0.0,0.0,0.0,0.0,0.0,0.0,0.0,0.0,0.0,0.0,0.0,0.0,0.0,0.0,0.0,0.0,0.0,0.0,0.0,0.0,0.0,0.0,0.0,0.0,0.0,0.0,0.0,0.0,0.0,0.0,0.0,0.0,0.0,0.0,0.0,0.0,0.0,0.0,0.0,0.0,0.0,0.0,0.0,0.0,0.0,0.0,0.0,0.0,0.0,0.0,0.0,0.0,0.0,0.0,0.0,0.0,0.0,0.0,0.0,0.0,0.0,0.0,0.0,0.0,0.0,0.0,0.0,0.0,0.0,0.0,0.0,0.0,0.0,0.0,0.0,0.0,0.0,0.0,0.0,0.0,0.0,0.0,0.0,0.0,0.0,0.0,0.0,0.0,0.0,0.0,0.0,0.0,0.0,0.0,0.0,0.0,0.0,0.0,0.0,0.0,0.0,0.0,0.0,0.0,0.0,0.0,0.0,0.0,0.0,0.0,0.0,0.0,0.0,0.0,0.0,0.0,0.0,0.0,0.0,0.0,0.0,0.0,0.0,0.0,0.0,0.0,0.0,0.0,0.0,0.0,0.0,0.0,0.0,0.0,0.0,0.0,0.0,0.0,0.0,0.0,0.0,0.0,0.0,0.0,0.0,0.0,0.0,0.0,0.0,0.0,0.0,0.0,0.0,0.0,0.0,0.0,0.0,0.0,0.0,0.0,0.0,0.0,0.0,0.0,0.0,0.0,0.0,0.0,0.0,0.0,0.0,0.0,0.0,0.0,0.0,0.0,0.0,0.0,0.0,0.0,0.0,0.0,0.0,0.0,0.0,0.0,0.0,0.0,0.0,0.0,0.0,0.0,0.0,0.0,0.0,0.0,0.0,0.0,0.0,0.0,0.0,0.0,0.0,0.0,0.0,0.0,0.0,0.0,0.0,0.0,0.0,0.0,0.0,0.0,0.0,0.0,0.0,0.0,0.0,0.0,0.0,0.0,0.0,0.0,0.0,0.0,0.0,0.0,0.0,0.0,0.0,0.0,0.0,0.0,0.0,0.0,0.0,0.0,0.0,0.0,0.0,0.0,0.0,0.0,0.0,0.0,0.0,0.0,0.0,0.0,0.0,0.0,0.0,0.0,0.0,0.0,0.0,0.0,0.0,0.0,0.0,0.0,0.0,0.0,0.0,0.0,0.0,0.0,0.0,0.0,0.0,0.0,0.0,0.0,0.0,0.0,0.0,0.0,0.0,0.0,0.0,0.0,0.0,0.0,0.0,0.0,0.0,0.0,0.0,0.0,0.0,0.0,0.0,0.0,0.0,0.0,0.0,0.0,0.0,0.0,0.0,0.0,0.0,0.0,0.0,0.0,0.0,0.0,0.0,0.0,0.0,0.0,0.0,0.0,0.0,0.0,0.0,0.0,0.0,0.0,0.0,0.0,0.0,0.0,0.0,0.0,0.0,0.0,0.0,0.0,0.0,0.0,0.0,0.0,0.0,0.0,0.0,0.0,0.0,0.0,0.0,0.0,0.0,0.0,0.0,0.0,0.0,0.0,0.0,0.0,0.0,0.0,0.0,0.0,0.0,0.0,0.0,0.0,0.0,0.0,0.0,0.0,0.0,0.0,0.0,0.0,0.0,0.0,0.0,0.0,0.0,0.0,0.0,0.0,0.0,0.0,0.0,0.0,0.0,0.0,0.0,0.0,0.0,0.0,0.0,0.0,0.0,0.0,0.0,0.0,0.0,0.0,0.0,0.0,0.0,0.0,0.0,0.0,0.0,0.0,0.0,0.0,0.0,0.0,0.0,0.0,0.0,0.0,0.0,0.0,0.0,0.0,0.0,0.0,0.0,0.0,0.0,0.0,0.0,0.0,0.0,0.0,0.0,0.0,0.0,0.0,0.0,0.0,0.0,0.0,0.0,0.0,0.0,0.0,0.0,0.0,0.0,0.0,0.0,0.0,0.0,0.0,0.0,0.0,0.0,0.0,0.0,0.0,0.0,0.0,0.0,0.0,0.0,0.0,1.485,1.4612,0.0,0.0,0.0,0.0,0.0,0.0,0.0,0.0,0.0,0.0,0.0,0.0,0.0,0.0,0.0,0.0,0.0,0.0,0.0,0.0,0.0,0.0,0.0,0.0,0.0,0.0,0.0,0.0,0.0,0.0,0.0,0.0,0.0,0.0,0.0,0.0,0.0,0.0,0.0,0.0,0.0,0.0,0.0,0.0,0.0,0.0,0.0,0.0,0.0,0.0,0.0,0.0,0.0,0.0,0.0,0.0,0.0,0.0,0.0,0.0,0.0,0.0,0.0,0.0,0.0,0.0,0.0,0.0,0.0,0.0,0.0,0.0,0.0,0.0,0.0,0.0,0.0,0.0,0.0,0.0,0.0,0.0,0.0,0.0,0.0,0.0,0.0,0.0,0.0,0.0,0.0,0.0,0.0,0.0,0.0,0.0,0.0,0.0,0.0,0.0,0.0,0.0,0.0,0.0,0.0,0.0,0.0,0.0,0.0,0.0,0.0,0.0,0.0,0.0,1.7653,1.7463,0.0,0.0,0.0,0.0,0.0,0.0,0.0,0.0,0.0,0.0,0.0,0.0,0.0,0.0,0.0,0.0,0.0,0.0,0.0,0.0,0.0,0.0,0.0,0.0,0.0,0.0,0.0,0.0,0.0,0.0,0.0,0.0,0.0,0.0,0.0,0.0,0.0,0.0,0.0,0.0,0.0,0.0,0.0,0.0,0.0,0.0,0.0,0.0,0.0,0.0,0.0,0.0,0.0,0.0,0.0,0.0,0.0,0.0,0.0,0.0,0.0,0.0,0.0,0.0,0.0,0.0,0.0,0.0,0.0,0.0,0.0,0.0,0.0,0.0,0.0,0.0,0.0,0.0,0.0,0.0,0.0,0.0,0.0,0.0,0.0,0.0,0.0,0.0,0.0,0.0,0.0,0.0,0.0,0.0,0.0,0.0,0.0,0.0,0.0,0.0,0.0,0.0,0.0,0.0,0.0,0.0,0.0,0.0,1.9469,1.9964,2.0678,2.0907,2.1377,2.1976,2.0701,2.0519,2.0913,1.8202,0.0,0.0,0.0,0.0,0.0,0.0,0.0,0.0,0.0,0.0,0.0,0.0,0.0,0.0,0.0,0.0,0.0,0.0,0.0,0.0,0.0,0.0,0.481,0.3934,0.4061,0.4467,0.0,0.0,0.0,0.0,0.0,0.0,0.0,0.0,0.0,0.0,0.0,0.0,1.1798,1.2777,1.4112,1.5631,1.3775,0.0,0.0,0.0,0.0,0.0,0.0,0.0,0.0,0.0,0.0,0.0,0.0,0.0,0.0,0.0,0.0,0.0,0.0,0.0,0.0,0.0,0.0,0.0,0.0,0.0,0.0,0.0,0.0,0.0,0.0,0.0,0.0,0.0,0.0,0.0,0.0,0.0,0.0,0.0,0.0,0.0,0.0,0.0,1.7558,1.7793,0.0,0.0,0.0,0.0,0.0,0.0,0.0,0.0,0.0,0.0,0.0,0.0,0.0,1.8648,1.9449,2.0441,2.1009,2.1158,2.272,2.3437,2.3437,2.4752,2.5375,2.5393,2.5747,0.0,2.1238,2.0733,0.0,0.0,0.0,0.0,0.0,0.0,0.0,0.0,0.0,0.0,0.0,0.0,0.0,0.0,0.0,0.0,0.0,0.0,0.0,0.0,0.0,0.6697,0.6792,0.6795,0.7817,0.8005,0.6929,0.0,0.0,0.0,0.0,0.0,0.0,0.0,0.0,0.0,1.0346,1.1437,1.299,1.406,1.524,1.6415,1.5966,1.5444,1.4926,1.5326,0.0,0.0,0.0,0.0,0.0,0.0,0.0,0.0,0.0,0.0,0.0,0.0,0.0,0.0,0.0,0.0,0.0,0.0,0.0,0.0,0.0,0.0,0.0,0.0,0.0,0.0,0.0,0.0,0.0,0.0,0.0,0.0,0.0,0.0,0.0,0.0,0.0,0.0,0.0,1.6933,1.7206,1.7266,1.6932,1.6503,0.0,0.0,0.0,0.0,0.0,0.0,0.0,0.0,0.0,2.0239,2.0293,2.0746,2.1675,2.2122,2.2547,2.2975,2.381,2.4403,2.4784,2.5822,2.6262,2.6219,2.6876,2.6169,2.4454,2.3021,2.199,2.1142,0.0,0.0,0.0,0.0,1.9669,1.9613,0.0,0.0,0.0,0.0,0.0,0.0,0.0,0.0,0.0,0.0,0.0,0.0,0.7634,0.8062,0.8559,0.9254,1.0366,1.0324,0.8575,0.7359,0.0,0.0,0.0,0.0,0.0,0.0,0.0,1.0454,1.1443,1.2565,1.3798,1.5311,1.6357,1.7015,1.815,1.7816,1.6386,1.6331,1.5922,0.0,0.0,0.0,0.0,0.0,0.0,0.0,0.0,0.0,0.0,0.0,0.0,0.0,0.0,0.0,0.0,0.0,0.0,0.0,0.0,0.0,0.0,0.0,0.0,0.0,0.0,0.0,0.0,0.0,0.0,0.0,0.0,0.0,0.0,0.0,0.0,0.0,0.0,1.7246,1.7498,1.7089,1.762,1.7585,0.0,0.0,0.0,0.0,0.0,0.0,2.0877,2.1059,2.1583,2.2535,2.2803,2.3256,2.3941,2.4174,2.4587,2.5112,2.5155,2.547,2.6063,2.6723,2.6982,2.6939,2.7827,2.7864,2.7195,2.519,2.4036,2.3393,2.1529,2.0908,2.112,2.1313,2.133,2.1461,0.0,0.0,0.0,0.0,0.0,0.0,0.0,0.0,0.0,0.0,0.0,0.6888,0.77,0.8373,0.8988,0.9534,0.9248,0.8994,0.8875,0.8673,0.8742,0.0,0.0,0.0,0.0,0.0,0.0,1.1157,1.2083,1.3059,1.4046,1.6526,1.7761,1.7991,1.971,1.943,1.7655,1.6895,1.6522,1.6322,0.0,0.0,0.0,0.0,0.0,0.0,0.0,0.0,0.0,0.0,0.0,0.0,0.0,0.0,0.0,0.0,0.0,0.0,0.0,0.0,0.0,0.0,0.0,0.0,0.0,0.0,0.0,0.0,0.0,0.0,0.0,0.0,0.0,0.0,0.0,0.0,0.0,0.0,0.0,1.8122,2.0074,0.0,0.0,0.0,0.0,2.0356,2.1028,2.1817,2.2721,2.3377,2.4174,2.5189,2.6064,2.6524,2.6505,2.7408,2.7854,2.7893,2.7846,2.7804,2.7778,2.8402,2.8616,2.8574,3.0002,2.9642,2.7976,2.7232,2.601,2.4595,2.4414,2.342,2.2182,2.2787,2.252,2.208,0.0,0.0,0.0,0.0,0.0,0.0,0.0,0.0,0.0,0.6953,0.7278,0.8133,0.9988,1.0666,1.1485,1.2703,1.2697,1.199,1.0475,1.0934,1.0323,0.0,0.0,0.0,0.0,0.0,1.1534,1.1967,1.2991,1.3937,1.4816,1.6894,1.789,1.8003,1.9751,2.016,1.9472,1.8629,1.7891,1.7171,1.6171,1.5813,0.0,0.0,0.0,0.0,0.0,0.0,0.0,0.0,0.0,0.0,0.0,0.0,0.0,0.0,0.0,0.0,0.0,0.0,0.0,0.0,0.0,0.0,0.0,0.0,0.0,0.0,0.0,0.0,0.0,0.0,0.0,0.0,0.0,0.0,0.0,0.0,0.0,2.0588,2.2244,0.0,2.1869,2.2987,2.3777,2.3785,2.5001,2.5892,2.623,2.5931,2.5943,2.6352,2.6696,2.685,2.6825,2.7154,2.7531,2.7965,2.7409,2.7412,2.786,2.8587,2.8883,2.8855,2.9801,2.983,2.912,2.8147,2.7047,2.5931,2.5301,2.4691,2.4192,2.4237,2.4452,2.4823,0.0,0.0,0.0,0.0,0.0,0.0,0.0,0.0,0.0,0.6898,0.7629,0.8865,1.1063,1.201,1.2968,1.4109,1.3726,1.29,1.1688,1.119,1.0365,0.0,0.0,0.0,0.0,1.1571,1.211,1.2934,1.3623,1.4555,1.5704,1.7186,1.8037,1.8399,1.9851,2.0664,2.0907,2.0266,1.9264,1.8026,1.705,1.7053,1.7457,0.0,0.0,0.0,0.0,0.0,0.0,0.0,0.0,0.0,0.0,0.0,0.0,0.0,0.0,0.0,0.0,0.0,0.0,0.0,0.0,0.0,0.0,0.0,0.0,0.0,0.0,0.0,0.0,0.0,0.0,0.0,0.0,0.0,0.0,2.1522,2.3218,2.235,2.4275,2.5238,2.4098,2.5488,2.649,2.6481,2.7782,2.8437,2.8146,2.7848,2.7557,2.7304,2.7581,2.7754,2.777,2.8067,2.8449,2.888,2.8302,2.8261,2.8739,2.9212,2.939,2.9294,2.9741,2.9687,2.923,2.8408,2.7651,2.6914,2.5935,2.5436,2.5236,2.518,2.5607,2.6181,0.0,0.0,0.0,0.0,0.0,0.0,0.0,0.0,0.5473,0.631,0.7541,0.9,1.0758,1.2252,1.3209,1.3389,1.1874,1.1318,1.2241,0.9318,0.8912,0.0,0.0,0.0,1.1484,1.2315,1.3144,1.3992,1.3966,1.484,1.6576,1.7403,1.83,1.9234,2.013,2.1049,2.1876,2.1714,2.0666,1.9016,1.795,1.8576,1.9848,0.0,0.0,0.0,0.0,0.0,0.0,0.0,0.0,0.0,0.0,0.0,0.0,0.0,0.0,0.0,0.0,0.0,0.0,0.0,0.0,0.0,0.0,0.0,0.0,0.0,0.0,0.0,0.0,0.0,0.0,0.0,0.0,0.0,2.0857,2.2885,2.4255,2.3402,2.6248,2.7639,2.6012,2.7329,2.829,2.8286,2.9056,2.9177,2.8318,2.8961,2.8981,2.8171,2.8936,2.9407,2.9502,3.0336,3.0763,3.0759,3.0613,3.0516,3.0412,3.0344,3.018,2.9965,2.9984,2.9347,2.8296,2.805,2.7806,2.747,2.6512,2.5742,2.5244,2.5622,2.5857,2.605,0.0,0.0,0.0,0.0,0.0,0.0,0.0,0.4676,0.5147,0.682,0.8377,0.9955,1.1652,1.3158,1.3915,1.3578,1.1961,1.0809,1.0467,0.9143,0.9627,0.0,0.0,0.0,1.3258,1.3517,1.3767,1.4003,1.4601,1.5171,1.5694,1.7137,1.8294,1.9259,2.0721,2.2202,2.356,2.2799,2.2883,2.336,2.1116,2.0526,2.0815,0.0,0.0,0.0,0.0,0.0,0.0,0.0,0.0,0.0,0.0,0.0,0.0,0.0,0.0,0.0,0.0,0.0,0.0,0.0,0.0,0.0,0.0,0.0,0.0,0.0,0.0,0.0,0.0,0.0,0.0,0.0,2.2142,2.3851,2.3329,2.6041,2.7987,2.7692,2.9099,2.9901,2.9432,2.9806,3.0088,3.0093,3.0253,3.0281,3.0036,2.9026,2.867,2.911,2.8732,2.8846,2.9494,2.9745,2.9805,2.97,2.9679,2.9298,2.8656,2.988,3.0048,2.9346,2.9232,2.9008,2.8578,2.7605,2.7038,2.6808,2.6934,2.7119,2.7351,2.7252,2.7396,2.7779,0.0,0.0,0.0,0.0,0.0,0.0,0.0,0.4596,0.5157,0.6575,0.8272,0.9815,1.0986,1.2206,1.2677,1.2018,1.0513,0.9468,0.9216,0.9093,0.0,0.0,0.0,1.1642,1.3982,1.4043,1.4202,1.4535,1.5082,1.5707,1.6413,1.7379,1.8692,2.0283,2.1293,2.2906,2.4824,2.3819,2.4585,2.6304,2.4322,2.3696,2.3755,2.2167,2.15,2.134,2.0663,1.9689,1.8754,1.9212,0.0,0.0,0.0,0.0,0.0,0.0,0.0,0.0,0.0,0.0,0.0,0.0,0.0,0.0,0.0,0.0,0.0,0.0,0.0,0.0,0.0,0.0,0.0,0.0,2.4498,2.6057,2.6389,2.8194,2.962,2.9951,3.0434,3.0772,3.0799,3.0801,3.0808,3.0803,3.0748,3.0541,3.0166,2.9188,2.9052,2.9971,2.916,2.9124,3.0033,3.0041,2.9635,2.8843,2.9188,2.8861,2.8038,2.938,2.967,2.9124,2.9398,2.9238,2.8688,2.777,2.721,2.6903,0.0,0.0,0.0,0.0,2.811,2.8495,0.0,0.0,0.0,0.0,0.0,0.0,0.0,0.4584,0.5174,0.5848,0.7527,0.8873,0.9419,1.0239,1.0423,0.957,0.8332,0.7748,0.8105,0.0,0.0,0.9146,1.0476,1.2141,1.4199,1.4238,1.4584,1.5303,1.5375,1.6168,1.7614,1.7804,1.9212,2.1578,2.1818,2.3374,2.5761,2.4858,2.5879,2.8009,2.7113,2.7097,2.7357,2.5022,2.4731,2.5367,2.3702,2.2255,2.1247,2.1995,0.0,0.0,0.0,0.0,0.0,0.0,0.0,0.0,0.0,0.0,0.0,0.0,0.0,0.0,0.0,0.0,0.0,0.0,0.0,0.0,0.0,0.0,0.0,0.0,2.7191,2.8546,2.944,2.9605,2.9917,3.0691,3.0749,3.0687,3.0667,3.074,3.0759,3.0661,3.0689,3.0366,2.9602,2.946,0.0,0.0,0.0,2.9955,3.0782,3.0899,3.0061,2.8365,2.927,2.9149,2.8119,2.9137,2.9437,2.9175,2.9843,2.9548,2.857,2.8192,2.7828,2.7504,2.7151,2.6978,2.702,2.7788,2.8201,2.8474,0.0,0.0,0.0,0.0,0.0,0.0,0.0,0.3731,0.4236,0.5449,0.6538,0.7596,0.8606,0.9437,0.9478,0.8348,0.7805,0.7043,0.0,0.0,0.8475,0.9982,1.159,1.3272,1.5028,1.5066,1.5136,1.5298,1.5375,1.5534,1.5834,1.7244,1.8901,2.0784,2.2158,2.4189,2.6571,2.6327,2.69,2.7994,2.7756,2.7661,2.7605,2.7001,2.6505,2.6084,2.5666,2.5039,2.4524,2.5364,2.471,2.3478,2.3162,0.0,0.0,0.0,0.0,0.0,0.0,0.0,0.0,0.0,0.0,0.0,0.0,0.0,0.0,0.0,0.0,0.0,0.0,0.0,0.0,2.6459,2.8067,2.9463,3.0394,3.0444,3.0464,3.0698,3.071,3.0457,2.9801,3.0391,3.0518,2.9801,3.0389,3.0714,3.0545,2.9866,2.9872,3.075,3.0628,3.0619,3.0802,3.1492,3.0977,2.926,3.0837,0.0,2.8185,3.0458,3.0697,2.9317,2.8728,2.827,2.7953,2.7655,2.7902,2.8346,2.7494,2.7373,2.7706,2.7805,2.779,2.7843,0.0,0.0,0.0,0.0,0.0,0.0,0.0,0.3762,0.4064,0.4541,0.5389,0.6119,0.6541,0.6995,0.7047,0.6543,0.6201,0.0,0.0,0.674,0.8442,1.0751,1.1689,1.3112,1.5197,1.4869,1.4849,1.5251,1.5345,1.5802,1.6618,1.7527,1.9305,2.1789,2.2621,2.4436,2.6846,2.6773,2.7512,2.8747,2.8639,2.8824,2.9031,2.8027,2.7879,2.8155,2.7784,2.7151,2.6589,2.7166,2.6268,2.4754,2.3917,2.2503,2.0716,0.0,0.0,0.0,0.0,0.0,0.0,0.0,0.0,0.0,0.0,0.0,0.0,0.0,0.0,2.3359,2.4199,0.0,2.6863,2.8564,2.9528,3.0205,3.0681,3.0637,3.0599,3.0697,3.0697,3.0386,2.9583,2.9882,2.9786,2.8909,2.9669,3.015,3.0161,3.0125,3.0495,3.1368,3.0973,3.0764,3.0789,3.1226,3.0798,2.9507,3.0384,3.0098,2.8835,3.0144,3.0276,2.9446,2.9389,2.8773,2.7892,2.8422,2.8369,2.7887,2.7368,2.7192,2.7278,2.7449,2.7547,2.7658,0.0,0.0,0.0,0.0,0.0,0.0,0.0,0.0,0.3838,0.3594,0.431,0.4735,0.4517,0.4648,0.4814,0.495,0.4614,0.0,0.0,0.6846,0.8479,1.0814,1.1294,1.259,1.4926,1.4321,1.4388,1.5192,1.5327,1.6161,1.7655,1.8049,1.9838,2.276,2.309,2.4494,2.6637,2.6922,2.7775,2.8954,2.9197,2.9736,3.0165,2.8311,2.8673,3.0054,2.9154,2.8272,2.7543,2.7765,2.6701,2.5059,2.3874,2.2684,2.126,1.8769,1.7844,0.0,0.0,0.0,0.0,0.0,0.0,0.0,0.0,2.2656,2.2909,2.3233,2.3999,2.5193,2.7122,2.7576,2.834,3.046,3.073,3.0704,3.0691,3.0447,3.0303,3.0414,3.0451,3.0055,2.9081,2.9156,2.8906,2.8037,2.8762,2.9338,2.9498,3.0116,3.0878,3.174,3.1254,3.092,3.0804,3.0955,3.0594,2.9753,2.9903,2.9907,2.9732,2.9911,2.9796,2.9492,2.9805,2.9078,2.777,2.8875,2.8406,2.6981,2.7057,2.6742,2.6338,2.7173,2.7538,2.7677,0.0,0.0,0.0,0.0,0.0,0.0,0.0,0.0,0.0,0.3041,0.3536,0.3825,0.3732,0.4257,0.4582,0.4491,0.0,0.0,0.4899,0.6603,0.8066,0.9133,1.0676,1.2328,1.4097,1.4058,1.4398,1.521,1.5276,1.5792,1.6788,1.8276,1.9993,2.1906,2.3392,2.4631,2.5658,2.7288,2.7554,2.705,2.8656,2.9396,2.9335,2.7571,2.8384,3.0239,2.8471,2.7396,2.6833,2.6915,2.5822,2.4535,2.5114,2.3562,2.119,1.9397,0.0,1.6547,1.7163,1.8805,2.0905,2.3323,2.2926,2.3291,0.0,2.7975,2.6845,2.8325,2.9326,2.9783,2.9315,2.9843,3.046,3.0752,3.074,3.0691,3.0698,2.9962,2.9443,2.946,2.9513,2.8922,2.7335,2.7947,2.8065,2.7203,2.7945,2.8743,2.9457,2.9585,3.0033,3.0915,3.1593,3.1588,3.0817,3.152,3.1461,3.0665,3.1373,3.1306,3.0587,3.1364,3.089,2.9323,2.7863,2.7128,2.6945,2.7218,2.6889,2.6281,2.6798,2.6183,2.5285,2.7577,2.8022,2.7727,0.0,0.0,0.0,0.0,0.0,0.0,0.0,0.0,0.0,0.0,0.2794,0.2939,0.3061,0.3677,0.3977,0.0,0.0,0.0,0.5881,0.7035,0.8473,1.0276,1.1049,1.2213,1.386,1.3927,1.4332,1.5146,1.5241,1.5993,1.7301,1.8053,1.9842,2.2501,2.3153,2.4169,2.5479,2.6669,2.6966,2.6776,2.7985,2.8557,2.8452,2.6718,2.6281,2.6476,2.5576,2.4764,0.0,0.0,2.2651,2.1678,2.1695,2.0917,1.9614,1.7704,1.7358,1.7926,1.9455,2.0791,2.2268,2.437,2.557,2.6737,2.8664,2.8766,2.8641,2.9365,3.0195,3.0682,3.0311,3.0523,3.0735,3.0749,3.0258,2.9894,2.9892,2.9109,2.8175,2.7198,2.7103,2.7069,2.691,2.7281,2.7167,2.6248,2.7461,2.8394,2.8738,2.9718,3.0389,3.0665,3.1572,3.1598,3.0691,3.156,3.1596,3.079,3.109,3.1059,3.076,3.1134,3.0633,2.9327,2.7116,2.6029,2.5728,2.469,2.4182,2.4196,2.5452,2.5627,2.5354,2.7146,2.7743,2.7871,0.0,0.0,0.0,0.0,0.0,0.0,0.0,0.0,0.0,0.0,0.0,0.2563,0.2815,0.317,0.3334,0.0,0.0,0.0,0.0,0.7117,0.8516,1.0289,1.0818,1.1825,1.3436,1.3539,1.4052,1.5061,1.522,1.6,1.7426,1.7738,1.9453,2.2288,2.2441,2.3427,2.5032,2.5822,2.6207,2.636,2.7207,2.7346,2.684,2.5013,2.3611,2.2581,2.2416,2.1667,0.0,0.0,1.9179,1.8561,1.841,1.8146,1.7638,1.6413,1.6996,1.848,2.0467,2.1852,2.3306,2.5812,2.8086,2.9602,2.9133,2.963,3.0111,2.9884,3.0308,3.0664,3.0486,3.0345,3.0272,3.0361,2.9569,2.902,2.9237,2.8315,2.7159,2.5916,2.5403,2.5498,2.6408,2.6339,2.6078,2.5625,2.6774,2.7695,2.8179,2.9406,3.036,3.0967,3.163,3.1739,3.1293,3.1945,3.1992,3.1437,3.1138,3.1151,3.1376,3.0672,2.9978,2.9197,2.6736,2.5446,2.4953,2.3141,2.2469,2.2709,2.3694,2.438,2.4991,2.6516,2.7543,2.827,0.0,0.0,0.0,0.0,0.0,0.0,0.0,0.0,0.0,0.0,0.0,0.0,0.0,0.0,0.2785,0.0,0.0,0.0,0.0,0.6526,0.7809,0.7808,0.9375,1.0982,1.2598,1.2695,1.3481,1.4995,1.5145,1.5623,1.6471,1.7381,1.8763,2.0515,2.1224,2.2439,2.4011,2.4936,2.5301,2.5327,2.6254,2.5745,2.42,2.2118,2.0622,1.9605,1.9477,0.0,0.0,1.6454,1.5971,1.5711,1.6744,1.624,0.0,1.6399,1.6683,1.7109,1.9195,2.1107,2.3541,2.7901,2.9785,3.0785,3.1674,3.1897,3.1679,3.0842,3.058,3.0303,2.9666,2.9337,2.9236,2.9497,2.8683,2.8321,2.908,2.773,2.6602,2.648,2.5161,2.4561,2.536,2.4807,2.472,2.5543,2.5655,2.642,2.8118,2.8252,2.9401,3.1877,3.1914,3.2268,3.3012,3.2987,3.2996,3.3024,3.2174,3.2182,3.2852,3.0386,2.9125,2.8788,2.6567,2.5409,2.4962,2.3271,2.259,2.2505,2.1584,2.205,2.3551,2.5933,2.7684,2.9043,0.0,0.0,0.0,0.0,0.0,0.0,0.0,0.0,0.0,0.0,0.0,0.0,0.0,0.0,0.0,0.0,0.0,0.0,0.0,0.6615,0.7787,0.8207,1.0012,1.1247,1.1782,1.2348,1.2881,1.3415,1.3542,1.4031,1.4899,1.5734,1.706,1.877,1.9561,2.0827,2.2395,2.2667,2.3092,2.3582,2.3323,2.2776,2.1828,1.9257,1.7318,1.5796,0.0,0.0,1.4864,1.4137,1.3835,1.3815,1.3926,1.4034,1.4399,1.5715,1.6835,1.8163,2.0474,2.3474,2.6592,2.9297,3.1158,3.2369,3.2609,3.2286,3.1518,3.0059,2.8713,2.7374,2.608,2.5736,2.5677,2.577,2.606,2.6541,2.7296,2.686,2.6049,2.4903,2.4752,2.4658,2.4484,2.3882,2.4073,2.5424,2.6158,2.7027,2.8145,2.9844,3.1113,3.1831,3.3002,3.344,3.3053,3.3021,3.2443,3.1368,3.0535,3.0626,3.1494,3.0017,2.8983,2.8309,2.722,2.6029,2.4704,2.2131,2.1555,2.2227,2.1178,2.1938,2.3875,2.6254,2.782,2.8891,0.0,0.0,0.0,0.0,0.0,0.0,0.0,0.0,0.0,0.0,0.0,0.0,0.0,0.0,0.0,0.0,0.0,0.4631,0.0,0.0,0.7192,0.7619,0.8953,0.9805,1.0047,1.0521,1.0846,1.0967,1.1631,1.2258,1.2809,1.3874,1.5115,1.649,1.7019,1.8178,1.9748,1.9673,1.9811,2.0077,1.9922,1.9186,1.7994,1.6251,1.4756,0.0,0.0,0.0,1.3236,1.2385,1.2436,1.2857,1.2702,1.3424,1.4634,1.6028,1.78,1.9966,2.2951,2.588,2.8689,3.1145,3.2474,3.3147,3.3112,3.2255,3.0979,2.9222,2.7287,2.539,2.3736,2.3129,2.2821,2.2668,2.2764,2.3567,2.5539,2.5222,2.4858,2.5156,2.5317,2.5348,2.5288,2.4443,2.4313,2.5388,2.6903,2.8033,2.859,3.0781,3.2221,3.2645,3.3683,3.4051,3.3709,3.369,3.2916,3.139,3.111,3.0903,3.0739,3.0061,2.9269,2.8348,2.7493,2.652,2.5288,2.2341,2.1779,2.2657,2.1405,2.2044,2.3896,2.6089,2.7572,2.8578,0.0,0.0,0.0,0.0,0.0,0.0,0.0,0.0,0.0,0.0,0.0,0.0,0.0,0.0,0.0,0.0,0.0,0.0,0.0,0.0,0.0,0.6055,0.6434,0.6927,0.7462,0.7409,0.7524,0.7829,0.9459,1.021,1.0171,1.1653,1.2754,1.3501,1.354,1.4479,1.5994,1.5942,1.5588,1.516,1.6232,1.5246,1.3134,1.3327,0.0,0.0,0.0,0.0,1.2005,1.125,1.1838,1.291,1.322,1.4531,1.6176,1.7434,1.9613,2.2446,2.6298,2.8202,2.9888,3.3288,3.3611,3.3112,3.314,3.1813,3.005,2.8249,2.6187,2.4159,2.238,2.1358,2.0665,2.0343,1.9332,2.001,2.4111,2.3217,2.3488,2.7082,2.6764,2.6579,2.7496,2.6311,2.5509,2.5564,2.7823,2.9285,2.9459,3.1089,3.2672,3.4129,3.3891,3.4103,3.4886,3.4755,3.4066,3.2855,3.3494,3.2711,3.0691,3.0494,2.984,2.8787,2.7488,2.69,2.662,2.3743,2.3133,2.3846,2.2247,2.2354,2.3712,2.562,2.7091,2.8236,0.0,0.0,0.0,0.0,0.0,0.0,0.0,0.0,0.0,0.0,0.0,0.0,0.0,0.0,0.0,0.0,0.0,0.0,0.0,0.0,0.0,0.0,0.0,0.0,0.0,0.0,0.0,0.5541,0.6414,0.6738,0.6546,0.7127,0.762,0.8033,0.8635,0.9532,1.0594,1.067,1.1675,1.3214,0.0,1.3345,1.3211,0.0,0.0,0.0,0.0,0.0,1.2326,1.1446,1.2764,1.4984,1.6157,1.7756,1.9356,2.0248,2.3042,2.617,2.7645,3.0319,3.2771,3.3198,3.3164,3.2725,3.1557,2.9947,2.7989,2.5481,2.2721,2.002,1.764,1.7516,1.7994,1.8594,2.0828,2.3277,2.5558,2.6393,2.6992,2.7523,2.7748,2.7781,2.7479,2.7717,2.7942,2.8005,2.8836,2.9628,3.0261,3.2255,3.3548,3.3877,3.4173,3.4016,3.3438,3.2334,3.1457,3.0835,3.0973,3.088,3.0618,3.0463,2.963,2.8327,2.8602,2.8259,2.7176,2.3462,2.385,2.6454,2.3169,2.3522,2.6012,2.762,2.8293,2.8476,0.0,0.0,0.0,0.0,0.0,0.0,0.0,0.0,0.0,0.0,0.0,0.0,0.0,0.0,0.0,0.0,0.0,0.0,0.0,0.0,0.0,0.0,0.0,0.0,0.0,0.0,0.0,0.0,0.0,0.0,0.4516,0.5406,0.5932,0.6178,0.7098,0.7834,0.8429,0.9344,0.0,0.0,0.0,0.0,0.0,0.0,0.0,0.0,0.0,0.0,0.0,0.0,1.5292,1.6781,1.8356,1.9996,2.1695,2.3409,2.6268,2.912,3.0402,3.2591,3.4343,3.3718,3.3222,3.2239,2.991,2.8073,2.606,2.3247,2.0342,1.7782,1.6128,1.5751,1.5876,1.6465,1.866,2.1387,2.4531,2.5656,2.6791,2.8531,2.8969,2.8969,2.8613,2.9112,2.9635,3.0095,3.0629,3.1074,3.1429,3.3207,3.42,3.4194,3.4022,3.3566,3.2767,3.1877,3.1111,3.0542,3.0492,3.0467,3.0412,3.0321,2.964,2.8609,2.9018,2.8803,2.7954,2.5069,2.5447,2.7551,2.5045,2.5212,2.7038,2.8294,2.8787,2.885,0.0,0.0,0.0,0.0,0.0,0.0,0.0,0.0,0.0,0.0,0.0,0.0,0.0,0.0,0.0,0.0,0.0,0.0,0.0,0.0,0.0,0.0,0.0,0.0,0.0,0.0,0.0,0.0,0.0,0.0,0.0,0.0,0.0,0.0,0.0,0.0,0.0,0.0,0.0,0.0,0.0,0.0,0.0,0.0,0.0,0.0,0.0,0.0,0.0,0.0,1.8326,1.8474,2.0349,2.1986,2.375,2.6577,2.9081,3.1355,3.3334,3.4394,3.4789,3.4244,3.3237,3.1533,2.8222,2.6215,2.4244,2.1318,1.8704,1.6824,1.6465,1.5433,1.479,1.5151,1.5887,1.8093,2.2893,2.363,2.5273,2.9543,2.9988,2.9975,3.0098,3.0323,3.0856,3.1772,3.2137,3.2332,3.2439,3.3468,3.4069,3.417,3.3364,3.2739,3.2336,3.2112,3.1532,3.06,3.0828,3.0544,2.9889,3.0034,2.9751,2.9142,2.8761,2.8567,2.838,2.69,2.6875,2.7734,2.6986,2.6989,2.7456,2.8429,2.8929,2.9153,0.0,0.0,0.0,0.0,0.0,0.0,0.0,0.0,0.0,0.0,0.0652,0.0499,0.0,0.0,0.0,0.0,0.0,0.0,0.0,0.0,0.0,0.0,0.0,0.0,0.0,0.2778,0.3051,0.295,0.3437,0.0,0.0,0.0,0.0,0.0,0.0,0.0,0.0,0.0,0.0,0.0,0.0,0.0,0.0,0.0,0.0,0.0,0.0,0.0,0.0,0.0,1.9629,2.0449,2.3281,2.5213,2.6806,2.8932,3.0823,3.2422,3.3527,3.3958,3.3929,3.3173,3.1872,2.9913,2.6506,2.4491,2.2474,1.9397,1.7659,1.6597,1.6358,1.6123,1.6526,1.8213,1.9425,2.128,2.4509,2.5977,2.7371,2.9087,2.98,3.0161,3.0174,3.0907,3.1718,3.2557,3.0481,3.0057,3.2058,3.1498,3.1231,3.1398,3.1428,3.1304,3.0946,3.0646,2.9643,2.8062,2.9332,2.9324,2.8267,2.9476,2.9669,2.8969,2.7599,2.6962,2.6748,2.485,2.55,2.7658,2.7088,2.7578,2.8681,2.9472,2.9304,2.8777,0.0,0.0,0.0,0.0,0.0,0.0,0.0,0.0757,0.0719,0.0512,0.0411,0.0376,0.0435,0.0411,0.0479,0.0,0.0,0.0,0.0,0.0,0.0,0.0,0.0,0.0,0.0,0.2617,0.3167,0.3869,0.0,0.455,0.5574,0.4603,0.4551,0.5255,0.5367,0.5858,0.0,0.0,0.0,0.0,1.112,0.0,0.0,0.0,0.0,0.0,0.0,0.0,0.0,0.0,1.9139,2.0746,2.4439,2.6355,2.7727,3.0079,3.1295,3.2305,3.4208,3.4045,3.3267,3.2991,3.1626,2.9214,2.4937,2.3347,2.1826,1.8376,1.7207,1.6896,1.7131,1.6845,1.702,1.8456,1.9343,2.0944,2.4077,2.5512,2.6956,2.8837,2.9698,3.0152,3.0194,3.1088,3.1999,3.2793,3.0852,2.9917,3.0575,2.9333,2.7753,2.5863,2.476,2.4523,2.524,2.4729,2.4088,2.3328,2.7108,2.7939,2.6214,2.873,2.9316,2.8265,2.7207,2.6749,2.6597,2.5195,2.6104,2.837,2.7643,2.7996,2.8989,2.9727,2.9436,2.8755,0.0,0.0,0.0,0.0,0.0,0.0,0.0,0.0914,0.074,0.0525,0.0581,0.0617,0.057,0.0316,0.0167,0.0,0.0,0.0,0.0,0.0,0.0,0.0,0.0,0.0,0.0,0.0,0.0,0.499,0.5082,0.0,0.0,0.0,0.0,0.0,0.7294,0.7922,0.8828,1.0266,0.0,0.0,0.0,1.3094,0.0,0.0,0.0,0.0,0.0,0.0,0.0,0.0,1.8176,1.991,2.3644,2.5588,2.6997,2.9711,3.0579,3.1295,3.4159,3.375,3.2586,3.2745,3.1159,2.8347,2.3766,2.2304,2.1009,1.7787,1.7086,1.7299,1.8143,1.7638,1.7371,1.8287,1.8578,1.9836,2.3121,2.4479,2.5953,2.8115,2.8897,2.9156,2.8962,3.021,3.0989,3.0829,2.9179,2.8119,2.7958,2.6396,2.406,2.097,2.0017,1.9766,2.0209,2.1224,2.0828,1.9125,2.4717,2.6061,2.3749,2.7139,2.8298,2.7634,2.709,2.6863,2.6887,2.6045,2.6869,2.8621,2.8255,2.8427,2.8964,2.9746,2.933,2.8335,0.0,0.0,0.0,0.0,0.0,0.0,0.0,0.1524,0.1501,0.1475,0.1228,0.1218,0.1691,0.0869,0.0401,0.0,0.0,0.0,0.0,0.0,0.0,0.0,0.0,0.0,0.0,0.0,0.0,0.7199,0.7404,0.0,0.0,0.0,0.0,0.0,0.0,0.8851,0.9576,1.0626,0.0,0.0,0.0,0.0,0.0,0.0,0.0,0.0,0.0,0.0,0.0,0.0,0.0,1.7783,1.9755,2.1932,2.4257,2.6836,2.8112,2.9276,3.2039,3.2264,3.1707,3.173,2.9418,2.6366,2.3458,2.1056,1.9006,1.75,1.7192,1.7618,1.9013,1.8564,1.8337,1.9382,1.9019,1.9602,2.2481,2.4268,2.5552,2.6275,2.6436,2.6037,2.4948,2.7294,2.7552,2.4321,2.1311,2.0873,2.3792,2.1834,2.0268,1.9393,2.3189,2.3532,1.997,2.6346,2.5533,1.7641,2.2442,2.3253,2.0601,2.3636,2.5948,2.7579,2.6919,2.6823,2.712,2.6296,2.6502,2.7406,2.8596,2.8962,2.8905,2.978,2.8772,2.6788,0.0,0.0,0.0,0.0,0.0,0.0,0.3019,0.2958,0.281,0.2328,0.2319,0.231,0.216,0.172,0.1454,0.1464,0.0,0.0,0.0,0.0,0.0,0.0,0.0,0.0,0.0,0.0,0.5993,0.7313,0.733,0.0,0.0,0.0,0.0,0.0,0.0,0.9011,0.9733,0.9934,0.0,0.0,0.0,0.0,0.0,0.0,0.0,0.0,0.0,0.0,1.3972,1.5372,0.0,0.0,1.6548,1.7957,0.0,0.0,2.6231,2.7294,3.1013,3.1551,3.1165,3.1673,2.8942,2.5578,2.3458,2.0968,1.8786,1.7661,1.734,1.7748,1.9395,1.8822,1.8458,1.9576,1.911,1.9357,2.1529,2.2937,2.3716,2.3709,2.2666,2.1311,1.9649,2.3043,2.6067,2.7774,2.4941,2.231,2.0433,1.6655,1.4846,1.5573,1.521,1.6103,1.8491,2.1601,2.1215,1.7465,2.2798,2.3519,2.0211,2.3322,2.5266,2.6323,2.8031,2.8146,2.7094,2.703,2.7433,2.8154,2.9109,2.8876,2.8033,2.8137,2.5882,2.2737,0.0,0.0,0.0,0.0,0.0,0.4149,0.3927,0.3845,0.362,0.3085,0.318,0.3147,0.279,0.2645,0.2525,0.2385,0.2119,0.0,0.0,0.0,0.0,0.0,0.0,0.0,0.0,0.0,0.6599,0.7371,0.7436,0.7957,0.0,0.0,0.8545,0.8926,0.0,0.0,0.0,0.0,0.0,0.0,0.0,0.0,0.0,0.0,0.0,0.0,0.0,0.0,0.0,0.0,0.0,0.0,0.0,0.0,0.0,0.0,2.3596,2.4858,2.8733,2.9677,2.9702,3.0268,2.7647,2.4473,2.2725,2.0464,1.8523,1.7787,1.7693,1.8192,1.9632,1.9156,1.8818,1.9657,1.9312,1.9481,2.1072,2.2095,2.2574,2.2198,2.0716,1.9252,1.802,2.0371,2.4322,2.9968,2.6298,2.2137,1.83,1.4383,1.2541,1.314,1.2191,1.3456,1.723,1.9641,1.9546,1.7089,2.2045,2.274,1.9664,2.2755,2.461,2.5639,2.8626,2.9122,2.784,2.7876,2.819,2.8705,2.9241,2.8577,2.7276,2.6895,2.3978,2.0269,0.0,0.0,0.0,0.0,0.0,0.0,0.4115,0.3817,0.3649,0.3767,0.3618,0.3571,0.3759,0.3599,0.349,0.3484,0.263,0.0,0.0,0.0,0.0,0.0,0.0,0.0,0.0,0.0,0.8044,0.7782,0.8311,0.8358,0.7914,0.7898,0.8037,0.8322,0.0,0.0,0.0,0.0,0.0,0.0,0.0,0.0,0.0,0.0,0.0,0.0,0.0,0.0,0.0,0.0,0.0,0.0,0.0,0.0,0.0,0.0,1.9836,2.1831,2.4517,2.6092,2.692,2.6874,2.497,2.2675,2.0917,1.9174,1.7872,1.7732,1.8278,1.9011,1.976,1.9732,1.9623,1.9782,1.9738,2.0112,2.1338,2.2191,2.2596,2.2327,2.1527,2.1154,2.1593,2.0135,2.1857,2.8435,2.2299,1.8105,1.7599,1.6297,1.4759,1.3075,1.8199,1.9541,1.6531,2.348,2.3358,1.6149,1.9252,1.9909,1.8405,2.1102,2.3632,2.6006,2.8237,2.9419,2.9704,2.8759,2.8438,2.8518,2.8795,2.8098,2.6864,2.6527,2.3886,2.0583,0.0,0.0,0.0,0.0,0.0,0.0,0.0,0.4104,0.3989,0.3948,0.3884,0.3795,0.3682,0.3689,0.3798,0.403,0.331,0.0,0.0,0.0,0.0,0.0,0.0,0.0,0.0,0.0,0.7884,0.779,0.8105,0.8121,0.7839,0.8108,0.8218,0.8176,0.8563,0.8778,0.0,0.0,0.0,0.0,0.0,0.0,0.0,0.0,0.0,0.0,0.0,0.0,0.0,0.0,0.0,0.0,0.0,0.0,0.0,0.0,0.0,2.0003,2.2046,2.3396,2.4234,2.4211,2.2305,2.0455,2.0488,1.8695,1.7319,1.8426,1.8216,1.8298,1.9782,1.9305,1.9008,1.9852,1.995,2.005,2.0474,2.1346,2.0315,1.5912,1.2733,1.2303,1.5952,1.8217,2.1787,2.7467,2.3967,2.0426,1.7829,1.7302,1.6931,1.6608,1.9218,2.1014,2.1833,2.4476,2.4223,2.1096,2.2012,2.2011,2.1287,2.2964,2.4794,2.676,2.9045,2.955,2.8743,2.8396,2.7832,2.7186,2.6935,2.6128,2.496,2.3553,1.9635,1.5421,0.0,0.0,0.0,0.0,0.0,0.0,0.0,0.435,0.4096,0.4005,0.3979,0.3884,0.3689,0.3664,0.3867,0.4398,0.4009,0.0,0.0,0.0,0.0,0.0,0.0,0.0,0.0,0.8445,0.8179,0.8026,0.8073,0.8061,0.7994,0.8162,0.8245,0.8269,0.853,0.8712,0.0,0.0,0.0,0.0,0.0,0.0,1.3686,0.0,0.0,0.0,0.0,0.0,0.0,0.0,0.0,0.0,0.0,0.0,0.0,0.0,1.745,1.8335,0.0,2.1487,2.2045,2.2023,2.0618,1.929,1.9485,1.8512,1.7861,1.8893,1.8764,1.8784,1.9901,1.9425,1.9129,1.9974,2.0022,2.0079,2.0422,2.084,1.9883,1.6592,1.3015,1.2675,1.7415,2.1186,2.4264,2.6515,2.4218,2.1455,1.8541,1.8383,1.8294,1.8202,1.9878,2.1531,2.3189,2.4194,2.4077,2.2846,2.2686,2.249,2.2366,2.4055,2.5432,2.6685,2.9008,2.9446,0.0,2.8364,2.7609,2.6419,2.5443,2.4076,2.2441,2.1002,1.7567,1.4144,0.0,0.0,0.0,0.0,0.0,0.0,0.0,0.4556,0.4067,0.4067,0.4047,0.4016,0.3961,0.3732,0.3925,0.479,0.0,0.0,0.0,0.0,0.0,0.0,0.0,0.0,0.0,0.8968,0.8807,0.8454,0.8238,0.8214,0.8327,0.8135,0.8214,0.851,0.8583,0.8693,0.0,0.0,0.0,0.0,0.0,0.0,0.0,0.0,0.0,0.0,0.0,0.0,0.0,0.0,0.0,0.0,0.0,0.0,0.0,0.0,0.0,0.0,0.0,2.025,2.0294,2.0243,1.9706,1.8982,1.8172,1.8606,0.0,1.9198,1.9724,2.0185,2.0128,1.9943,1.9884,2.0087,2.0012,2.0222,2.1073,2.0405,2.0403,2.1915,1.9599,1.9516,2.372,2.7161,2.8134,2.5781,2.3565,2.1475,1.957,1.9385,1.8872,1.8016,1.9915,2.112,2.1331,2.2866,2.307,2.1944,2.1754,2.1773,2.2104,2.4502,2.5751,2.6124,2.8408,2.9138,2.8706,2.8401,2.7262,2.5544,2.3786,2.1371,1.8832,1.83,1.6767,1.533,0.0,0.0,0.0,0.0,0.0,0.0,0.0,0.0,0.0,0.0,0.5122,0.5421,0.5411,0.5345,0.5605,0.0,0.0,0.0,0.0,0.0,0.0,0.0,0.0,0.0,0.0,0.897,0.8903,0.8852,0.8708,0.8636,0.8612,0.8559,0.8547,0.8575,0.8693,0.888,0.0,0.0,0.0,0.0,0.0,0.0,0.0,0.0,0.0,0.0,1.2502,1.2809,0.0,0.0,0.0,0.0,0.0,0.0,0.0,0.0,1.8461,1.8725,1.9946,0.0,1.8445,1.847,1.8366,1.8359,0.0,0.0,0.0,0.0,0.0,0.0,0.0,2.0095,2.0071,2.0234,2.0222,2.0631,2.1854,1.8163,1.5318,1.5312,1.3796,1.4558,1.9177,2.3112,2.5707,2.6519,2.5219,2.2676,1.8744,1.8915,1.8475,1.7044,1.746,1.876,2.09,2.1499,2.1648,2.1417,2.2003,2.2916,2.4069,2.5959,2.7184,2.7926,2.9004,2.854,2.6941,2.6382,2.3398,1.9075,1.7689,1.4277,1.0417,1.17,1.0764,0.9548,0.0,0.0,0.0,0.0,0.0,0.0,0.0,0.0,0.0,0.0,0.0,0.0,0.0,0.0,0.0,0.0,0.0,0.0,0.0,0.0,0.0,0.0,0.0,0.0,0.906,0.8953,0.8891,0.8869,0.8719,0.8672,0.8696,0.8672,0.8684,0.8736,0.8947,0.9133,0.9312,0.0,0.0,0.0,1.0332,0.0,0.0,0.0,0.0,0.0,1.2906,1.2992,0.0,1.2457,1.3629,1.5309,0.0,0.0,0.0,0.0,1.8556,1.8813,2.0064,1.9148,1.7854,1.7898,1.7894,1.8024,1.8509,0.0,0.0,0.0,0.0,0.0,0.0,2.0237,2.0225,2.0336,2.0572,2.1007,2.1741,1.8145,1.5692,1.6373,1.4802,1.5727,2.0994,2.3103,2.5223,2.7859,2.6259,2.373,2.0526,1.9396,1.7968,1.595,1.5042,1.5941,1.8733,1.9529,2.0005,2.0118,2.0444,2.1988,2.45,2.5956,2.7139,2.816,2.8802,2.8136,2.6413,2.367,2.0165,1.6176,1.2541,0.8986,0.6061,0.6935,0.7393,0.8071,0.0,0.0,0.0,0.0,0.0,0.0,0.0,0.0,0.0,0.0,0.0,0.0,0.0,0.0,0.0,0.0,0.0,0.0,0.0,0.0,0.0,0.0,0.0,0.9001,0.9001,0.8936,0.8852,0.8741,0.8624,0.8624,0.8717,0.8689,0.8771,0.8936,0.9184,0.942,0.9609,0.9745,0.9969,1.0212,1.0395,0.0,0.0,0.0,0.0,0.0,0.0,0.0,0.0,1.1995,1.2851,1.4155,1.3276,0.0,0.0,0.0,0.0,0.0,1.987,1.9214,1.8123,1.8254,1.8191,1.8113,1.8247,0.0,0.0,0.0,0.0,0.0,0.0,2.0351,2.0343,2.0383,2.1163,2.171,2.1578,1.937,1.831,1.9756,1.7168,1.7411,2.2852,2.3068,2.4672,2.9016,2.6786,2.4476,2.277,1.9932,1.7223,1.4688,1.2714,1.2589,1.4488,1.6056,1.7137,1.7639,1.8031,1.9887,2.3104,2.5249,2.6555,2.7167,2.8104,2.7513,2.5548,2.0939,1.7028,1.3415,0.7701,0.4295,0.2622,0.2772,0.4709,0.7585,0.0,0.0,0.0,0.0,0.0,0.0,0.0,0.0,0.0,0.0,0.0,0.0,0.0,0.0,0.0,0.0,0.0,0.0,0.0,0.0,0.0,0.0,0.8981,0.8996,0.9001,0.8936,0.888,0.8858,0.8908,0.8875,0.8783,0.8942,0.9039,0.9085,0.922,0.9753,1.0504,1.0703,1.1255,1.2061,1.2756,0.0,0.0,0.0,0.0,0.0,0.0,0.0,0.0,1.2895,1.3769,1.5056,1.4181,0.0,0.0,0.0,0.0,0.0,1.914,1.9199,1.9179,1.9921,1.9506,1.9116,1.9853,0.0,0.0,0.0,0.0,0.0,0.0,2.0409,2.0445,2.0339,2.2343,2.3651,2.2857,2.0815,1.8909,1.7464,1.1943,0.9692,1.3378,1.5612,2.0266,2.853,2.6784,2.4261,2.1676,1.8897,1.6124,1.3293,1.0756,0.8463,0.6499,0.8397,1.0332,1.2317,1.5624,1.739,1.7988,2.4647,2.6473,2.4541,2.7086,2.5601,2.1254,1.9119,1.2991,0.467,0.2247,-0.1489,-0.5201,-0.2588,-0.025,0.2644,0.0,0.0,0.0,0.0,0.0,0.0,0.0,0.0,0.0,0.0,0.0,0.0,0.0,0.0,0.0,0.0,0.0,0.0,0.0,0.0,0.0,0.8897,0.9046,0.9092,0.9064,0.9095,0.9075,0.9011,0.9039,0.9013,0.8897,0.905,0.9143,0.9224,0.935,0.9662,1.0117,1.0312,1.0934,1.1791,0.0,0.0,0.0,0.0,0.0,0.0,0.0,0.0,0.0,0.0,1.4353,1.5253,1.4371,0.0,0.0,0.0,0.0,0.0,1.8974,1.9192,1.9347,1.9964,1.9583,1.9087,1.9284,1.9649,0.0,0.0,0.0,0.0,0.0,2.1044,2.2088,2.3138,2.3591,2.3501,2.2632,2.0261,1.7783,1.5529,1.2058,1.1612,1.6033,1.7584,2.1522,2.926,2.7947,2.5709,2.32,1.9738,1.6052,1.219,0.8586,0.5346,0.2475,0.1129,0.2678,0.7083,1.0387,1.29,1.4765,1.9854,2.1831,2.1229,2.0718,1.8838,1.5726,1.0704,0.5615,0.066,-0.254,-0.4986,-0.6351,-0.3003,-0.0344,0.2703,0.0,0.0,0.0,0.0,0.0,0.0,0.0,0.0,0.0,0.0,0.0,0.0,0.0,0.0,0.0,0.0,0.0,0.0,0.0,0.0,0.8902,0.8925,0.9092,0.9174,0.9119,0.9243,0.9243,0.9088,0.9113,0.9099,0.9035,0.9275,0.9351,0.9319,0.9627,0.9938,1.0192,1.0174,1.0923,1.2084,0.0,0.0,0.0,0.0,0.0,0.0,0.0,0.0,0.0,0.0,0.0,0.0,0.0,0.0,0.0,1.6208,1.7103,1.8059,1.8707,1.9161,1.9527,1.9754,0.0,1.9008,1.8912,1.9481,2.0104,0.0,0.0,0.0,0.0,2.1455,2.2978,2.4821,2.4059,2.2905,2.1905,1.9353,1.6701,1.4223,1.226,1.2436,1.5664,1.6834,1.9118,2.3308,2.3371,2.2614,2.1227,1.7428,1.3669,1.0115,0.6654,0.3511,0.0765,-0.2341,-0.1897,0.2123,0.5266,0.8544,1.1982,1.6556,1.9292,2.0253,1.6927,1.4379,1.2026,0.4421,0.0033,-0.2226,-0.5596,-0.6542,-0.564,-0.2541,0.0723,0.4451,0.0,0.0,0.0,0.0,0.0,0.0,0.0,0.0,0.0,0.0,0.0,0.0,0.0,0.0,0.0,0.0,0.0,0.0,0.0,0.0,0.8925,0.899,0.912,0.9191,0.9189,0.9274,0.9245,0.9088,0.9164,0.9164,0.9106,0.9867,0.989,0.933,1.0213,1.1095,1.1884,1.1266,1.2444,1.4661,1.3849,0.0,0.0,0.0,0.0,0.0,0.0,0.0,0.0,0.0,0.0,0.0,0.0,0.0,1.5402,1.5488,1.6636,1.7916,1.7983,1.9075,2.0159,1.9954,1.9485,1.9309,2.015,2.0549,0.0,2.163,0.0,0.0,0.0,2.1081,2.1479,2.2574,2.2937,2.2573,2.1011,1.8955,1.6601,1.3944,0.9624,0.5636,0.2611,0.5479,0.6336,0.3434,0.6847,0.9583,1.081,0.7997,0.6202,0.591,0.5093,0.3581,0.1464,0.1357,0.0088,-0.2369,0.1939,0.5628,0.8955,1.8574,2.3488,2.4217,2.1159,1.7222,1.246,0.5973,-0.0167,-0.5459,-0.5645,-0.5501,-0.4938,-0.2947,0.1176,0.6631,0.0,0.0,0.0,0.0,0.0,0.0,0.0,0.0,0.0,0.0,0.0,0.0,0.0,0.0,0.0,0.0,0.0,0.0,0.0,0.0,0.8908,0.8936,0.9099,0.9199,0.9204,0.9311,0.932,0.9224,0.9164,0.9123,0.9116,0.9963,1.0292,1.022,1.1112,1.148,1.1432,1.1772,1.2499,1.3472,1.371,1.4055,0.0,0.0,0.0,0.0,0.0,0.0,0.0,0.0,1.5391,1.5405,1.5407,1.5377,1.5343,1.5345,1.6491,1.7796,1.7888,1.9302,2.0575,1.9944,1.963,0.0,0.0,2.0812,2.1133,2.1198,2.1424,0.0,2.2533,2.1656,2.1423,2.3272,2.2401,2.0978,1.9552,1.684,1.4507,1.3125,0.8938,0.647,0.722,0.8844,1.0213,1.1055,1.2526,1.2637,1.0964,0.9331,0.7795,0.6435,0.614,0.5452,0.4224,0.2944,0.2462,0.2908,0.6222,0.7718,0.7727,1.2985,1.5457,1.5273,0.9313,0.5147,0.2311,-0.081,-0.3926,-0.6629,-0.5753,-0.553,-0.5146,-0.0425,0.3034,0.6432,0.0,0.0,0.0,0.0,0.0,0.0,0.0,0.0,0.0,0.0,0.0,0.0,0.0,0.0,0.0,0.0,0.0,0.0,0.8794,0.8875,0.893,0.8964,0.9078,0.9168,0.9191,0.9271,0.929,0.9234,0.9102,0.905,0.9102,1.0247,1.0731,1.0717,1.1595,1.1903,1.1738,1.1951,1.2508,1.3321,1.371,1.4224,0.0,0.0,0.0,0.0,0.0,0.0,0.0,0.0,1.5818,1.5808,1.5788,1.5579,1.5326,1.5315,1.644,1.7722,1.7788,1.923,2.0565,1.9909,0.0,0.0,2.0523,2.0662,2.0771,2.0934,2.1327,2.1873,2.2592,2.1514,2.0963,2.2347,2.1134,1.9358,1.7458,1.5211,1.3367,1.2341,0.9535,0.8601,1.0925,1.1511,1.1578,1.1152,1.0836,0.9712,0.7468,0.7078,0.6649,0.6145,0.6559,0.6956,0.7132,0.6044,0.6037,0.7089,0.981,0.9954,0.7829,0.8689,0.9701,1.0413,0.3673,0.0045,-0.1251,-0.3268,-0.4736,-0.5477,-0.3531,-0.2864,-0.2267,0.3567,0.713,0.9905,0.0,0.0,0.0,0.0,0.0,0.0,0.0,0.0,0.0,0.0,0.0,0.0,0.0,0.0,0.0,0.0,0.0,0.0,0.9001,0.9001,0.9022,0.9099,0.905,0.906,0.9196,0.913,0.9102,0.9088,0.8968,0.8936,0.9046,1.0785,1.1247,1.0673,1.161,1.2497,1.3214,1.1824,1.2685,1.4919,1.4137,1.4921,1.6588,0.0,0.0,0.0,0.0,0.0,0.0,0.0,1.6716,1.67,1.6615,1.6048,1.5403,1.5326,1.6445,1.769,1.7631,1.8846,2.0069,1.9866,0.0,0.0,2.0801,2.0127,1.9866,2.1051,2.0711,2.0306,2.0725,2.0403,1.983,1.9097,1.8963,1.788,1.4801,1.4371,1.3591,1.1569,1.1308,1.1208,1.1023,1.1308,0.7717,-0.1372,-0.2486,-0.2419,-0.164,-0.0876,0.1044,0.4328,0.5939,0.7715,0.9786,1.1319,1.0893,0.8601,1.1455,1.1573,0.92,0.6987,0.8321,1.2162,0.7565,0.5246,0.4424,0.0512,-0.1485,-0.1724,0.1465,0.3176,0.4408,0.8895,1.367,1.8018,0.0,0.0,0.0,0.0,0.0,0.0,0.0,0.0,0.0,0.0,0.0,0.0,0.0,0.0,0.0,0.0,0.0,0.0,0.8996,0.899,0.9011,0.9022,0.965,0.9724,0.9137,0.9109,0.9088,0.9028,0.9028,0.9347,0.9932,1.1124,1.1889,1.2327,1.327,1.3566,1.3393,1.3685,1.3978,1.4252,1.4634,1.5152,1.5681,0.0,0.0,0.0,0.0,0.0,0.0,0.0,0.0,0.0,1.6734,1.6406,1.6227,1.615,1.6879,1.7851,1.8487,1.9906,0.0,2.0865,0.0,0.0,0.0,2.0723,0.0,0.0,2.0721,2.0058,2.105,1.9454,1.7944,1.7773,1.6332,1.4877,1.3769,1.2292,1.1503,1.207,1.1073,1.0394,1.0609,1.0183,0.7642,0.2251,0.1562,0.0903,-0.0275,0.1763,0.3592,0.5048,0.7905,1.026,1.1899,1.1554,1.2232,1.3783,0.9532,0.7671,0.7941,0.5304,0.4824,0.5932,0.3065,0.0843,-0.0762,-0.1763,-0.0172,0.2843,0.3148,0.55,0.9209,1.3188,1.6033,1.8316,0.0,0.0,0.0,0.0,0.0,0.0,0.0,0.0,0.0,0.0,0.0,0.0,0.0,0.0,0.0,0.0,0.0,0.0,0.0,0.9102,0.9106,0.9075,0.9655,0.9841,0.958,0.9841,0.9962,0.9915,0.937,0.9682,1.0831,1.1423,1.2191,1.3099,1.3705,1.3948,1.3933,1.4283,1.4399,1.4418,1.4976,1.5448,1.5869,0.0,0.0,0.0,0.0,0.0,0.0,0.0,0.0,0.0,1.7471,1.7118,1.6893,1.725,1.7718,1.8383,1.9383,2.0465,0.0,2.0982,2.106,2.1013,2.0216,0.0,0.0,2.0747,2.0078,1.9701,2.0314,1.8664,1.712,1.6725,1.4852,1.3329,1.2968,1.1726,1.1165,1.1987,1.0909,1.0165,1.0416,0.9778,0.8273,0.5664,0.4057,0.273,0.1748,0.3172,0.4367,0.5081,0.7559,0.9779,1.1621,1.1451,1.228,1.4062,0.8693,0.6263,0.6329,0.3775,0.2767,0.3001,0.2045,0.1238,0.0618,0.0394,0.2722,0.6508,0.7497,1.0131,1.3923,1.8352,2.0156,2.0766,0.0,0.0,0.0,0.0,0.0,0.0,0.0,0.0,0.0,0.0,0.0,0.0,0.0,0.0,0.0,0.0,0.0,0.0,0.0,0.0,0.9281,0.9194,0.9331,0.968,1.0308,1.0981,1.1304,1.1334,0.9979,1.0144,1.173,1.1789,1.2351,1.3291,1.338,1.3877,1.4632,1.4052,1.4301,1.5101,1.5185,1.5719,1.6565,1.7297,0.0,0.0,0.0,0.0,0.0,0.0,0.0,0.0,1.8483,1.7985,1.7473,1.8336,1.8715,1.9096,2.0136,2.0519,2.0588,2.0513,2.1039,2.115,1.952,1.9375,1.942,1.8813,1.9014,1.9201,1.8879,1.8007,1.6949,1.5823,1.4159,1.2816,1.2267,1.2006,1.1788,1.1475,1.0717,1.0242,1.0365,0.9832,0.912,0.8312,0.5232,0.3584,0.3979,0.3771,0.4058,0.4893,0.5888,0.7553,1.0,1.1003,1.135,1.1023,0.8802,0.6895,0.5175,0.2895,0.2387,0.3354,0.4069,0.5272,0.6665,0.5425,0.6773,0.9898,1.3217,1.5929,1.8567,2.3455,2.4834,2.4309,0.0,0.0,0.0,0.0,0.0,0.0,0.0,0.0,0.0,0.0,0.0,0.0,0.0,0.0,0.0,0.0,0.0,0.0,0.0,0.0,0.9337,0.9206,0.9774,1.018,1.036,1.1043,1.1395,1.1459,1.114,1.1546,1.2624,1.2687,1.316,1.4003,1.4161,1.4349,1.454,1.4604,1.4854,1.517,1.5255,1.5394,1.559,1.5761,1.6236,0.0,0.0,0.0,0.0,0.0,0.0,0.0,1.8329,1.8132,1.8172,1.8383,1.8514,1.8764,1.9635,1.9885,0.0,2.0463,2.055,2.009,1.8435,1.8261,1.8362,1.8143,1.8381,1.8548,1.83,1.6986,1.5583,1.4495,1.3265,1.2196,1.1482,1.0343,0.9951,1.0934,1.0219,0.9799,1.0055,0.9139,0.8085,0.7153,0.569,0.4813,0.4679,0.5173,0.583,0.6717,0.7432,0.8769,1.0795,1.0259,1.0179,1.0631,0.96,0.892,0.8545,0.5267,0.5918,0.9528,0.8884,0.9712,1.1339,0.8031,1.0453,1.6114,1.5016,1.8103,2.3267,2.3921,2.4327,2.4534,0.0,0.0,0.0,0.0,0.0,0.0,0.0,0.0,0.0,0.0,0.0,0.0,0.0,0.0,0.0,0.0,0.0,0.0,0.0,0.0,0.9385,0.9348,0.9989,1.0376,1.0443,1.1105,1.1651,1.2069,1.2069,1.2552,1.3481,1.3549,1.3828,1.4317,1.4873,1.4951,1.4671,1.4865,1.5047,1.5212,1.5274,1.5516,1.5878,1.6339,1.6612,1.6895,1.7623,0.0,0.0,0.0,0.0,0.0,0.0,0.0,1.8573,1.9223,1.9176,1.9148,2.0107,2.0076,0.0,1.9853,0.0,1.8548,1.7751,1.7339,1.7057,1.7002,1.7574,1.779,1.6724,1.5712,1.4639,1.3346,1.2033,1.1129,1.1012,0.9194,0.8442,0.9897,0.9611,0.9533,1.0086,0.9798,0.9006,0.7581,0.709,0.6193,0.4647,0.5121,0.5317,0.5,0.6134,0.7437,0.8933,0.9615,1.028,1.1023,1.1348,1.2214,1.3388,0.9808,0.9913,1.2911,1.2301,1.272,1.3634,1.1632,1.4136,1.9081,1.7777,2.0242,2.4515,2.4562,2.4492,2.441,0.0,0.0,0.0,0.0,0.0,0.0,0.0,0.0,0.0,0.0,0.0,0.0,0.0,0.0,0.0,0.0,0.0,0.0,0.0,0.0,0.0,0.9501,1.0085,1.0398,1.0329,1.1194,1.1947,1.2538,1.2789,1.34,1.4333,1.4239,1.4322,1.4634,1.5454,1.5425,1.4785,1.5068,1.5207,1.5199,1.5413,1.5871,1.6528,1.7449,1.7512,1.7173,1.8046,1.7631,1.6735,1.7365,0.0,0.0,0.0,0.0,1.8699,1.976,1.9634,1.9343,2.0335,2.0071,1.9367,1.8805,1.7924,0.0,1.7169,1.655,1.5911,1.5826,1.6638,1.6855,1.5094,1.4544,1.3877,1.2425,1.1075,1.035,1.0791,0.892,0.7947,0.9082,0.9208,0.9523,1.0322,1.0724,1.0322,0.8772,0.8651,0.7577,0.5014,0.4868,0.4311,0.3124,0.4432,0.5722,0.695,0.9331,1.0931,1.1734,1.3094,1.5121,1.7629,1.4514,1.4023,1.5623,1.5428,1.5413,1.5487,1.5393,1.7423,2.0653,2.0411,2.1929,2.4302,2.5034,2.4797,2.4215,0.0,0.0,0.0,0.0,0.0,0.0,0.0,0.0,0.0,0.0,0.0,0.0,0.0,0.0,0.0,0.0,0.0,0.0,0.9241,0.0,0.0,0.9501,1.0125,1.0222,0.9646,1.1376,1.2161,1.1924,1.3187,1.4351,0.0,1.4491,1.4563,1.5356,1.5735,1.5425,1.4687,1.5639,1.5674,1.5184,1.5945,1.6391,1.6667,1.7484,1.7617,1.7425,1.8012,1.8005,1.7772,1.8215,1.8403,0.0,0.0,0.0,1.8483,1.8439,1.822,1.8111,1.8542,0.0,1.8093,0.0,1.6965,1.6907,1.6384,1.5958,1.5551,1.5133,1.5401,1.5506,1.4755,1.396,1.3032,1.1959,1.1505,1.1136,1.0691,1.0483,1.0112,0.9459,0.9466,0.986,1.0733,1.0574,1.0342,1.0137,0.9408,0.855,0.7617,0.5939,0.5137,0.5505,0.5301,0.624,0.8485,1.0174,1.1418,1.231,1.338,1.5272,1.7841,1.684,1.7748,2.01,1.9401,1.926,1.9426,1.8066,1.9482,2.2425,2.1268,2.2227,2.4326,2.4803,2.4605,2.4171,0.0,0.0,0.0,0.0,0.0,0.0,0.0,0.0,0.0,0.0,0.0,0.0,0.0,0.0,0.0,1.0218,1.0691,1.0947,1.0734,1.0767,1.0835,1.0903,1.1172,1.119,1.0903,1.1744,1.2257,1.2466,1.3116,0.0,0.0,1.5121,1.521,1.5709,1.6775,1.6578,1.5517,1.6507,1.6505,1.5868,1.6298,1.6777,1.7311,1.7664,1.7975,1.8255,1.8279,1.7864,1.7337,1.7702,1.7873,1.7925,1.7979,0.0,0.0,0.0,1.7453,1.6891,1.6375,1.6126,1.5911,0.0,1.5411,1.5496,1.5664,1.5433,1.5104,1.4735,1.455,1.4288,1.3802,1.3141,1.2318,1.1107,1.0797,1.0705,1.0617,0.9883,0.9761,1.0799,1.0166,1.0009,1.0853,1.0878,1.0572,0.9981,0.9776,0.8815,0.6847,0.5572,0.4602,0.4009,0.48,0.5829,0.7009,1.0416,1.3139,1.5198,1.6401,1.7762,1.9163,1.9066,1.952,2.0385,1.9758,1.9752,2.0227,1.976,2.0966,2.3089,2.2758,2.3459,2.4639,2.4709,2.4417,2.3989,0.0,0.0,0.0,0.0,0.0,0.0,0.0,0.0,0.0,0.0,0.0,0.0,0.0,0.0,0.0,0.0,1.1466,1.1884,1.1909,1.1902,1.1926,1.1998,1.2018,1.2036,1.2036,1.2172,1.2524,1.3093,0.0,0.0,1.526,1.5311,1.5496,0.0,1.7578,1.7613,1.6431,1.7378,1.7384,1.6732,1.7063,1.7589,1.8217,1.8469,1.9,1.9565,1.896,1.8342,1.7762,1.7558,1.757,1.7675,1.7821,1.7811,0.0,0.0,0.0,1.6127,0.0,0.0,1.4782,1.4352,1.4437,1.4653,1.4705,1.473,1.4645,1.4342,1.3921,1.3382,1.2606,1.2212,1.157,1.0288,0.989,0.9871,1.0293,0.9149,0.9154,1.1468,1.0526,1.0055,1.0891,1.1067,1.0753,0.9815,0.9923,0.8873,0.6176,0.5503,0.4523,0.3046,0.4728,0.5908,0.644,1.1025,1.4806,1.7773,1.8792,1.9743,2.0572,2.0552,2.0467,2.0369,1.9778,1.9969,2.0618,2.1105,2.2074,2.3347,2.4062,2.4472,2.4647,2.4669,2.4321,2.3819,0.0,0.0,0.0,0.0,0.0,0.0,0.0,0.0,0.0,0.0,0.0,0.0,1.2341,1.3022,1.3206,1.2522,1.2575,1.2436,1.1935,1.1905,1.1929,1.1998,1.2066,0.0,1.2095,1.2665,1.3062,1.3282,0.0,0.0,1.4652,1.4589,1.4998,1.5873,1.7676,1.7961,1.7123,1.8187,1.8213,1.7631,1.8653,1.9117,1.9332,2.0272,2.1071,2.1469,2.0132,1.9994,2.0267,1.8627,1.8197,1.8293,1.7927,1.7681,1.7462,0.0,0.0,0.0,0.0,1.5666,0.0,1.4234,1.4827,1.5288,1.3305,1.3599,1.4205,1.3735,1.3467,1.2849,1.1308,1.1079,1.0809,0.9713,0.9042,0.8941,0.9633,0.9013,0.9067,1.0605,1.0133,1.0031,1.0826,1.0916,1.0725,1.0215,0.9815,0.8853,0.7047,0.6488,0.576,0.4706,0.5941,0.7353,0.8807,1.2483,1.585,1.8823,1.889,1.9882,2.1579,2.0716,2.0765,2.1491,2.0812,2.0975,2.174,2.2211,2.273,2.335,2.476,2.4759,2.4035,2.4664,2.4382,2.3699,0.0,0.0,0.0,0.0,0.0,0.0,0.0,0.0,0.0,0.0,0.0,0.0,0.0,1.3435,1.3327,1.2661,1.2741,1.3007,1.3466,1.35,1.3534,1.3607,1.3671,1.3703,1.3703,1.3967,1.4116,0.0,0.0,1.5473,1.5459,1.5952,1.6063,1.5915,1.713,1.7781,1.8071,1.9098,1.9077,1.826,1.7047,1.7715,1.9335,1.831,1.9574,2.185,2.1274,2.1015,2.0722,1.9246,1.8558,1.8233,1.7614,1.7337,1.7003,1.5735,1.517,1.4671,0.0,0.0,0.0,1.3558,1.224,1.119,1.2352,1.2937,1.2856,1.162,1.1889,1.1778,0.9896,1.0365,1.0519,0.893,0.8622,0.8477,0.8098,0.8051,0.8366,0.9194,0.8903,0.905,1.0137,1.0524,1.0572,1.0225,1.0331,1.0078,0.9245,0.8485,0.761,0.6487,0.7518,0.9249,1.163,1.3592,1.5978,1.878,1.9775,2.0443,2.0879,2.0814,2.1023,2.1381,2.1118,2.1259,2.1715,2.2088,2.3049,2.4339,2.478,2.5283,2.5716,2.5355,2.5045,2.4761,0.0,0.0,0.0,0.0,0.0,0.0,0.0,0.0,0.0,0.0,0.0,0.0,0.0,0.0,1.3476,1.3106,1.3219,1.3615,1.4362,1.4404,1.4439,1.4497,1.4552,1.4603,1.4595,1.4678,1.4848,0.0,0.0,0.0,0.0,1.6432,1.6496,1.6245,1.6528,1.7027,1.7718,1.9058,1.9181,1.8302,1.6436,1.7245,1.9376,1.7839,1.9416,2.2337,2.1819,2.1666,2.1463,1.993,1.8522,1.7437,1.7625,1.7297,1.6536,1.4765,1.4266,0.0,1.3052,0.0,0.0,1.3102,1.1779,1.0534,1.1352,1.2156,1.2229,1.0289,1.0721,1.0872,0.9005,0.9509,0.9657,0.8064,0.7932,0.7825,0.7216,0.7252,0.7662,0.8505,0.8148,0.8432,0.9925,1.0318,1.0487,1.0466,1.0552,1.0407,0.9935,0.9358,0.8782,0.8104,0.9186,1.0868,1.3246,1.4339,1.6337,1.9097,2.0113,2.0703,2.0943,2.107,2.1274,2.1549,2.1366,2.1565,2.2022,2.2241,2.3185,2.4533,2.4795,2.5463,2.6165,2.5685,2.5481,2.5386,0.0,0.0,0.0,0.0,0.0,0.0,0.0,0.0,0.0,1.2993,0.0,0.0,0.0,0.0,0.0,1.4048,1.4131,1.4252,1.4411,1.4453,1.4469,1.4501,1.4571,1.4592,1.4614,1.4754,1.5225,1.6003,0.0,0.0,0.0,0.0,1.6238,1.6872,1.6031,1.5729,1.5979,1.799,1.8455,1.7727,1.7117,1.7958,1.9566,1.9247,2.0788,2.2965,2.1731,2.1961,2.253,2.0613,1.808,1.6015,1.7915,1.7534,1.6077,1.4364,0.0,0.0,0.0,0.0,0.0,1.2961,1.374,1.3688,1.0256,1.1308,1.2357,0.9994,1.0104,1.018,0.8664,0.8468,0.8216,0.7161,0.6936,0.6966,0.7166,0.6794,0.7078,0.8579,0.8012,0.8257,1.0127,1.0338,1.051,1.0983,1.056,0.9886,0.9072,0.8997,0.9162,0.9532,1.064,1.199,1.3579,1.471,1.6831,1.9852,1.9758,2.0489,2.1924,2.1428,2.1488,2.1953,2.1642,2.1994,2.2747,2.2781,2.3154,2.3829,2.4843,2.5193,2.5229,2.5524,2.5618,2.5399,0.0,0.0,0.0,0.0,0.0,0.0,1.2443,1.2565,1.2918,0.0,0.0,0.0,1.4195,1.4468,1.4891,1.5662,1.5791,1.5674,1.5298,1.5356,1.5152,1.4611,1.4632,1.4693,1.4744,1.5395,1.5828,1.6003,1.7339,1.7914,1.7821,1.7678,1.7416,0.0,1.6897,1.5918,1.4549,1.6989,1.7804,1.7351,1.6518,1.7394,1.9065,1.8007,1.9143,2.1296,2.1083,2.1164,2.1176,1.9813,1.8744,1.7819,1.6814,1.5561,1.4313,1.3598,1.3763,0.0,1.418,0.0,0.0,0.0,0.0,0.0,1.1172,1.1103,1.0889,0.973,0.9378,0.9029,0.824,0.7539,0.6972,0.6681,0.6665,0.6686,0.6747,0.7071,0.7319,0.743,0.7981,0.8353,0.8245,0.9772,1.1068,1.173,1.3293,1.3591,1.2164,0.9666,0.9097,1.0895,0.8665,0.9351,1.332,1.4037,1.5944,1.906,1.9775,2.0329,2.0718,2.1258,2.1475,2.1428,2.1672,2.1761,2.174,2.2091,2.3192,2.4557,2.3783,2.4842,2.6592,2.4769,2.5128,2.6335,0.0,0.0,0.0,0.0,0.0,1.2262,1.2459,1.282,1.3323,0.0,0.0,0.0,1.5068,1.5297,1.5643,1.6269,1.6403,1.633,1.6041,1.5791,1.5496,1.5072,1.4766,1.482,1.5237,1.5808,1.6411,1.7041,1.8161,1.8623,1.8502,1.836,1.795,0.0,0.0,0.0,1.4828,1.6081,1.6597,1.6466,1.5718,1.669,1.8509,1.7453,1.8318,2.0167,2.0313,2.02,1.9924,1.9426,1.8898,1.7845,1.4538,1.4004,1.4495,1.3861,1.4099,0.0,0.0,0.0,0.0,1.3809,0.0,0.0,1.05,1.0379,0.9966,0.8194,0.7861,0.7758,0.7251,0.6619,0.6193,0.631,0.6549,0.6708,0.6601,0.7127,0.7595,0.7826,0.8414,0.8931,0.9208,1.0271,1.1453,1.2758,1.4055,1.4679,1.4397,1.2811,1.2524,1.3882,1.022,1.0074,1.4038,1.3216,1.4476,1.7849,1.8921,1.9875,2.0686,2.081,2.1133,2.1592,2.1282,2.115,2.1117,2.0942,2.1762,2.3014,2.2373,2.2984,2.3911,2.1348,2.2356,2.4517,0.0,0.0,1.219,1.219,1.2272,1.2401,1.2585,1.3302,1.3953,0.0,1.5114,1.575,1.6018,1.6148,1.6308,1.6448,1.6602,1.6681,1.672,1.6125,1.5787,1.5806,1.5135,1.5113,1.5848,1.6186,1.7015,1.8328,1.8636,1.8682,1.846,1.8321,1.7998,1.7502,0.0,0.0,0.0,1.5364,1.5177,1.5362,1.5102,1.6102,1.7701,1.7258,1.795,1.9153,1.9251,1.9066,1.8833,1.9182,1.8389,1.6526,1.2227,1.2894,1.5114,1.4341,1.4567,0.0,0.0,0.0,0.0,1.3646,1.3025,0.0,0.9463,0.9777,0.9686,0.6795,0.6683,0.6971,0.6456,0.6128,0.6044,0.6337,0.6785,0.6971,0.6674,0.7259,0.8084,0.9151,0.9247,0.9883,1.1531,1.111,1.1583,1.3651,1.399,1.4768,1.6251,1.6605,1.6768,1.6809,1.2756,1.1765,1.4275,1.1847,1.2373,1.5966,1.7274,1.8986,2.098,2.0183,2.059,2.1849,2.0635,2.0283,2.0495,1.9521,1.9597,2.0355,2.0421,1.9921,1.8808,1.6239,1.7749,2.0258,0.0,0.0,1.2033,1.2033,1.2605,1.3128,1.3272,1.4036,1.4897,1.583,1.6353,1.6698,1.6851,1.6985,1.7342,1.8068,1.8234,1.8092,1.7514,1.7444,1.714,1.6533,1.6465,1.6219,1.5748,1.7182,1.7764,1.7367,1.8709,1.8968,1.8254,1.796,1.7621,0.0,0.0,0.0,0.0,1.5225,1.4758,1.4825,1.6244,1.6284,1.5635,1.6709,1.7076,1.7012,1.7083,1.7464,1.7959,1.81,1.6247,1.3839,1.3796,1.2594,1.147,1.2671,1.3079,1.3444,1.4713,1.4221,1.3433,1.392,1.2954,0.0,1.1813,1.1506,1.1085,1.0644,0.9773,0.9002,0.8766,0.8048,0.7624,0.8111,0.8187,0.7858,0.6954,0.8455,0.9701,0.9739,1.0231,1.0678,1.104,1.0538,1.1006,1.3115,1.6637,1.8822,1.9034,1.5077,1.3118,1.3842,0.8328,0.6471,0.8798,0.7755,0.8851,1.203,1.4629,1.682,1.8625,1.9446,1.994,2.016,2.0135,1.9478,1.8467,1.8069,1.87,1.9662,1.7006,1.6092,1.575,1.1777,1.1361,1.2481,0.0,1.2049,1.2119,1.2475,1.2988,1.3505,1.3939,1.4724,1.5508,1.6242,1.6951,1.7445,1.7542,1.7665,1.7922,1.8363,1.8485,1.8406,1.8073,1.7807,1.7465,1.7069,1.6784,1.6627,1.6595,1.7581,1.806,1.7957,1.8816,1.8566,1.7255,1.7375,1.6498,0.0,0.0,0.0,0.0,1.4394,1.4076,1.3728,1.4929,1.5552,1.5741,1.5789,1.6362,1.7132,1.6417,1.6583,1.685,1.5174,1.4676,1.4525,1.3216,1.2692,1.2654,1.2969,1.3238,1.3672,1.4645,1.4469,1.3982,1.3916,1.3026,0.0,0.0,1.1391,1.0754,1.0579,0.9704,0.8903,0.8737,0.8019,0.7643,0.8195,0.8039,0.7754,0.7528,0.9141,1.0414,1.0516,1.088,1.1147,1.1297,1.0795,1.1435,1.3817,1.7638,1.9976,2.0241,1.8984,1.714,1.4619,1.0565,0.8198,0.7712,0.7249,0.8379,1.1092,1.3796,1.5928,1.7505,1.8069,1.8683,1.9246,1.9123,1.8609,1.7855,1.713,1.6929,1.6779,1.451,1.2824,1.1216,0.7201,0.6819,0.7794,1.1915,0.0,1.2355,1.297,1.3458,1.3975,1.4554,1.5367,1.6023,1.642,1.7468,1.8193,1.821,1.8538,1.8822,1.8982,1.8429,1.8316,1.8869,1.7781,1.7116,1.7117,1.687,1.6798,1.6905,1.7536,1.8036,1.8395,1.8646,1.8038,1.6606,1.6921,1.5554,1.2941,0.0,0.0,0.0,1.3285,1.3045,1.2542,1.285,1.4092,1.5647,1.4513,1.5371,1.701,1.5948,1.5775,1.5573,1.3187,1.3987,1.5505,1.2763,1.3099,1.4379,1.3643,1.3557,1.3852,1.4497,1.4399,1.4029,1.3691,1.2965,1.2162,0.0,0.0,0.0,0.9862,0.9345,0.8914,0.8769,0.8177,0.7827,0.8251,0.7925,0.7802,0.833,0.9508,1.0374,1.0597,1.0976,1.1249,1.1266,1.075,1.164,1.4657,1.745,1.9289,1.9894,2.2514,2.1134,1.4848,1.3494,1.1089,0.7288,0.744,0.8693,1.1034,1.3185,1.5114,1.6779,1.667,1.7352,1.8521,1.8152,1.7908,1.7733,1.6691,1.5392,1.3967,1.2329,0.9911,0.697,0.3306,0.2927,0.3579,1.1807,1.2269,1.2757,1.2894,1.412,1.5102,1.5205,1.5987,1.6712,1.7052,1.833,1.9164,1.9001,2.0009,2.0997,2.1775,1.9072,1.8274,2.056,1.7741,1.6006,1.6079,1.7311,1.7013,1.4899,1.6964,1.7693,1.6935,1.7656,1.7921,1.7688,1.6889,1.5844,1.4636,1.3318,1.334,1.4239,1.2069,1.1441,1.1855,1.1268,1.1718,1.2762,1.2674,1.323,1.4158,1.4659,1.4471,1.4195,1.5465,1.4977,1.3925,1.4863,1.3905,1.2595,1.329,1.2561,1.1899,1.3494,1.3331,1.2799,1.3164,1.2523,1.1726,1.146,0.0,1.137,1.1429,0.0,1.1423,1.1436,0.0,0.0,0.9801,0.9418,0.9235,0.9485,0.9507,0.9274,0.8543,0.9919,1.0632,0.9828,0.9032,1.0288,1.4407,1.5831,1.6703,1.7132,1.9417,1.7268,0.9697,1.1417,0.9808,0.4245,0.6058,0.8123,1.031,1.1259,1.3078,1.5609,1.5698,1.6419,1.7569,1.7818,1.7749,1.7426,1.6981,1.5635,1.3494,1.0058,0.7277,0.4806,0.1244,-0.1015,-0.2537,1.2408,1.288,0.0,1.3986,1.4755,1.5418,1.5714,1.6196,1.6581,1.6773,1.7494,1.8126,1.8435,1.8935,1.9661,2.0704,1.941,1.8998,2.0052,1.8724,1.7745,1.742,1.7839,1.7531,1.631,1.7136,1.7321,1.6759,1.7129,1.7093,1.6619,1.6305,1.5006,1.2953,1.2622,1.2216,1.1804,1.1349,1.1201,1.1263,1.1242,1.1316,1.1433,1.1365,1.189,1.2536,1.1918,1.1894,1.2128,1.167,1.26,1.3672,1.2161,1.2795,1.39,1.2959,1.2848,1.3186,1.3854,1.3743,1.3444,1.3473,1.2482,1.1697,1.2541,1.2719,1.2635,1.2528,0.0,0.0,0.0,0.0,0.0,0.0,0.8794,0.8033,0.8126,0.7163,0.6909,0.8191,0.9413,0.9863,0.9236,0.9398,1.0058,1.1264,1.4833,1.6609,1.5764,1.8209,1.5928,0.7872,1.0268,0.8392,0.1458,0.5424,0.7894,0.8773,0.9903,1.1162,1.2508,1.3536,1.4396,1.5166,1.6663,1.7353,1.7353,1.6531,1.4828,1.235,0.9078,0.6434,0.4156,0.1351,-0.1205,-0.3397,1.3232,0.0,0.0,1.4815,1.5239,1.5637,1.5991,1.6163,1.6301,1.6313,1.7014,1.7641,1.8063,1.8792,1.9618,2.0649,1.9994,1.991,2.0728,1.9455,1.8719,1.8815,1.8279,1.7844,1.7531,1.7242,1.6855,1.6463,1.6596,1.6281,0.0,0.0,0.0,0.0,1.2078,1.136,1.0174,1.0536,1.0649,1.0677,1.1061,1.0863,1.0394,1.0567,1.0756,1.0808,0.991,0.9874,1.0085,0.9106,1.0822,1.298,1.0642,1.203,1.4227,1.2719,1.2799,1.3516,1.3888,1.3762,1.3589,1.3696,1.2741,1.2081,1.3243,1.3297,1.3165,1.3256,1.3556,0.0,0.0,0.0,1.0691,0.9734,0.0,0.6929,0.6476,0.5144,0.5054,0.7226,0.8022,0.8316,0.8058,0.9054,0.9356,0.8503,1.2765,1.4751,1.3218,1.5785,1.3896,0.6461,0.969,0.8648,0.2569,0.6273,0.8626,0.9535,0.8988,0.9223,1.0106,1.0802,1.1721,1.2904,1.4985,1.6275,1.6838,1.5924,1.3967,1.1274,0.8406,0.5662,0.305,0.1254,-0.0911,-0.3113,1.4262,1.4626,0.0,1.4913,1.554,1.6052,1.5913,1.5924,1.5909,1.5913,1.7569,1.8646,1.8418,2.0697,2.2551,2.3305,2.1133,2.0925,2.385,1.9486,1.7649,1.9598,1.8539,1.7731,1.7426,1.6953,1.6338,1.5637,1.5919,1.5811,0.0,0.0,0.0,0.0,1.1806,1.0992,1.0953,0.9491,0.9286,0.9954,1.0158,0.9849,0.9367,1.0343,0.9781,0.8628,0.9556,0.9061,0.8315,1.0319,1.1045,1.1303,1.2329,1.2404,1.2181,1.2552,1.1827,1.1281,1.2989,1.2814,1.2424,1.3509,1.3371,1.2947,1.3009,1.2566,1.2456,1.3558,1.3375,1.3151,1.3494,1.2815,1.1581,0.0,0.8197,0.0,0.0,0.4448,0.4291,0.4848,0.5225,0.5562,0.5857,0.6973,0.7562,0.7291,0.8878,0.9438,0.8464,1.1028,1.0052,0.4651,0.9666,1.1556,0.9694,0.9141,1.0651,1.4127,0.8709,0.7266,0.9294,0.7589,0.8454,1.1369,1.2709,1.4213,1.5636,1.5351,1.34,1.0392,0.7819,0.4388,0.0826,0.0248,-0.1017,-0.2619,0.0,0.0,0.0,1.5269,1.5634,1.5962,1.6157,1.5757,1.5816,1.6889,1.7334,1.7883,1.8761,1.9814,2.0878,2.1842,2.1163,2.1035,2.1826,1.983,1.9131,2.032,1.83,1.7496,1.8193,1.651,1.5485,1.519,1.5501,1.5621,0.0,0.0,0.0,0.0,1.2601,1.132,1.0418,0.894,0.8891,0.9766,0.9684,0.9295,0.8759,0.8826,0.8387,0.7758,0.7917,0.7185,0.6272,0.7409,0.8645,0.9636,0.9382,1.0788,1.2467,1.1777,1.1787,1.1999,1.2115,1.1346,1.0851,1.2261,1.1468,1.087,1.2815,1.2448,1.1914,1.26,1.2264,1.1591,1.0708,0.8965,0.0,0.0,0.0,0.2947,0.0,0.0839,0.0997,0.1393,0.2821,0.3699,0.344,0.5643,0.6528,0.523,0.8865,1.0503,0.9065,1.16,1.1543,0.8159,1.103,1.1034,0.7724,0.8534,0.9029,0.9141,0.6132,0.5252,0.6284,0.5231,0.5608,0.7248,0.977,1.2259,1.4356,1.2844,1.251,1.2337,0.6393,0.1964,-0.1032,-0.0271,-0.1213,-0.323,1.4642,1.4797,1.5008,1.5513,1.5664,1.5852,1.6217,1.5548,1.5552,1.7092,1.71,1.7504,1.8882,1.9885,2.0577,2.091,2.1422,2.1417,2.0571,1.9904,1.9899,2.0676,1.8433,1.7803,1.9125,1.6822,1.5667,1.5783,1.5634,1.56,0.0,0.0,0.0,0.0,0.0,1.0812,0.9782,0.8732,0.877,0.9525,0.9305,0.8988,0.8606,0.833,0.7636,0.6811,0.695,0.6252,0.5305,0.5586,0.6937,0.8325,0.7544,0.9093,1.106,1.0469,1.0656,1.103,1.0944,1.0194,0.9741,1.1189,1.0502,0.9662,1.0356,0.9867,0.9353,0.9647,0.8901,0.8457,0.931,0.6893,0.4437,0.0,0.0,0.0368,0.0,-0.0946,-0.0524,-0.0432,0.1096,0.211,0.2022,0.4309,0.5534,0.4918,0.8368,1.0366,1.0086,1.1732,1.2346,1.16,1.2469,1.1473,0.8333,0.9091,0.821,0.5612,0.3881,0.3164,0.339,0.2172,0.2428,0.3953,0.6349,0.8619,1.0533,0.9289,0.9251,0.941,0.4187,0.0335,-0.2137,-0.1238,-0.209,-0.4151,1.4235,1.4415,1.4694,1.5627,1.5683,1.5736,1.6107,1.5394,1.5281,1.662,1.7054,1.7703,1.8816,2.0843,2.1661,2.0626,2.1827,2.1926,2.021,1.9574,1.967,2.0567,1.8738,1.841,1.9875,1.7567,1.6545,1.6937,1.592,1.5557,0.0,0.0,0.0,0.0,1.0235,0.9318,0.9046,0.8696,0.882,0.9257,0.9009,0.8891,0.8863,0.8824,0.756,0.5902,0.678,0.6382,0.542,0.5136,0.6127,0.7385,0.7108,0.7472,0.8194,0.8763,0.8594,0.8368,0.9478,0.9307,0.9062,1.0297,1.042,0.9413,0.6269,0.5404,0.5306,0.5359,0.396,0.417,0.8973,0.6397,0.3566,0.0,0.0,0.0,-0.2134,-0.1196,-0.0472,-0.0746,0.0117,0.0992,0.1552,0.2985,0.4561,0.613,0.7203,0.8847,1.1196,1.1173,1.2143,1.445,1.3716,1.269,1.1417,1.0592,0.8083,0.3923,0.2093,0.1077,0.075,-0.135,-0.091,0.1546,0.2635,0.3682,0.4637,0.4959,0.4093,0.2447,0.1344,-0.0497,-0.2555,-0.2641,-0.359,-0.5294,1.35,1.4085,1.4727,1.5518,1.5599,1.5631,1.5668,1.6116,1.6811,1.769,1.859,1.934,1.9737,2.0419,2.0472,1.9585,1.9876,1.9768,1.8912,1.7958,1.8044,1.9468,1.666,1.5692,1.7014,1.4439,1.3095,1.3062,1.2973,1.3223,1.3762,0.0,0.0,0.0,0.0,0.6594,0.729,0.7491,0.8135,0.9081,0.9068,0.8807,0.8496,0.8824,0.8151,0.7161,0.8136,0.7513,0.6294,0.6878,0.6889,0.6744,0.7065,0.7271,0.755,0.8228,0.7922,0.7449,0.7842,0.7544,0.7429,0.8785,0.8705,0.8364,0.8793,0.7637,0.6705,0.7553,0.5894,0.4151,0.3612,0.1134,-0.1709,-0.4261,-0.5791,-0.6259,-0.5067,-0.4572,-0.3697,-0.1965,0.0998,0.2194,0.0332,0.2455,0.4385,0.5342,0.6074,0.8005,1.1499,1.0281,1.0716,1.3401,1.2513,1.0872,0.8581,0.7588,0.5353,0.1856,0.0675,-0.0074,-0.0425,-0.1902,-0.2178,-0.1315,0.0843,0.244,0.3456,0.2656,0.3233,0.4214,0.0048,-0.2235,-0.3219,-0.3632,-0.4311,-0.5451,1.3034,1.3481,1.4065,1.4726,1.5029,1.5473,1.6373,1.603,1.6243,1.7816,1.8317,1.8627,1.8964,1.9597,1.9568,1.8474,1.8104,1.7288,1.5892,1.5064,1.4814,1.5144,1.3299,1.2528,1.3126,1.1954,1.0986,1.0438,1.1176,1.1577,1.157,0.0,0.0,0.0,0.0,0.4655,0.5357,0.6471,0.735,0.8092,0.876,0.8853,0.0,0.8933,0.8708,0.8319,0.8874,0.8217,0.7096,0.7287,0.7308,0.7213,0.708,0.7058,0.7127,0.7464,0.7115,0.6664,0.6884,0.6702,0.6577,0.7268,0.7086,0.6577,0.5855,0.4923,0.4281,0.4547,0.3077,0.1982,0.2765,-0.0662,-0.4632,-0.7757,-0.8286,-0.7728,-0.622,-0.5277,-0.4078,-0.2317,0.0151,0.1093,-0.0508,0.3901,0.6372,0.5145,0.6311,0.7895,0.9739,0.9429,0.9978,1.1683,1.177,0.9993,0.6195,0.6338,0.3865,-0.1165,-0.0881,-0.1081,-0.172,-0.2663,-0.2808,-0.2203,-0.0782,0.0169,0.074,0.012,0.0749,0.1818,-0.1286,-0.272,-0.3116,-0.3648,-0.439,-0.5497,1.2764,1.2872,1.3122,1.364,1.4124,1.5148,1.7099,1.5724,1.5239,1.7424,1.7323,1.7118,1.7384,1.8244,1.8232,1.6847,1.5899,1.4395,1.2139,1.1662,1.0903,0.9809,0.9476,0.9179,0.8871,0.9599,0.9358,0.8162,0.9684,0.991,0.0,0.0,0.0,0.0,0.0,0.0,0.3882,0.5703,0.6722,0.7192,0.8417,0.8936,0.8994,0.9081,0.9154,0.9231,0.9193,0.8659,0.7893,0.73,0.7624,0.808,0.7133,0.6833,0.6753,0.6468,0.6126,0.5919,0.615,0.6214,0.6113,0.5935,0.5806,0.485,0.1409,0.0958,0.1071,0.0327,-0.0703,-0.0261,0.3692,-0.0697,-0.5785,-0.8231,-0.7668,-0.646,-0.5222,-0.3643,-0.2359,-0.1665,-0.0445,0.0,-0.0853,0.5279,0.7996,0.4821,0.6372,0.7471,0.7487,0.8067,0.8855,0.9723,1.0333,0.8509,0.398,0.5261,0.2606,-0.3965,-0.2218,-0.1915,-0.2933,-0.3335,-0.3039,-0.2134,-0.2118,-0.214,-0.2243,-0.2135,-0.2193,-0.2339,-0.2492,-0.2611,-0.2758,-0.3292,-0.4231,-0.5533,1.2425,1.2615,1.271,1.2675,1.3263,1.4104,1.5001,1.6735,1.7774,1.7259,1.8165,1.8213,1.6606,1.5554,1.4292,1.2707,1.1567,1.0496,0.9514,0.8769,0.8231,0.7888,0.6799,0.5981,0.5536,0.6562,0.6194,0.4277,0.6378,0.6291,0.0,0.0,0.0,0.0,0.0,0.0,0.4656,0.5505,0.6924,0.8624,0.8824,0.8936,0.8994,0.9081,0.924,0.9411,0.9193,0.9054,0.8937,0.8816,0.8463,0.7953,0.7312,0.6707,0.6028,0.4975,0.4895,0.5086,0.4685,0.5052,0.5583,0.5717,0.5549,0.5136,0.425,0.4128,0.4175,0.3917,0.3383,0.2555,0.1163,-0.2219,-0.5207,-0.6556,-0.4773,-0.2366,0.0127,0.104,0.1364,0.1138,0.4272,0.4616,-0.0147,0.1279,0.2501,0.2452,0.2121,0.3809,0.8231,0.4503,0.4138,0.8315,0.459,0.2221,0.1513,0.0717,-0.0933,-0.3349,-0.2291,-0.2374,-0.3467,-0.327,-0.3072,-0.2863,-0.2338,-0.2243,-0.2469,-0.2589,-0.2997,-0.3463,-0.3009,-0.2975,-0.3234,-0.3722,-0.4561,-0.5665,1.1525,1.1213,1.1118,1.2142,1.2286,1.2629,1.3684,1.4813,1.5568,1.56,1.574,1.5124,1.3365,1.2134,1.0842,0.9286,0.7757,0.6674,0.6082,0.5034,0.4376,0.426,0.3169,0.2299,0.1807,0.2576,0.2289,0.0931,0.2546,0.2674,0.1446,0.1035,0.0508,-0.0119,0.0,0.0713,0.0958,0.4808,0.6177,0.5993,0.8274,0.921,0.922,0.9359,0.9504,0.9628,0.9514,0.9454,0.9437,0.9332,0.901,0.8409,0.7203,0.6242,0.5212,0.3655,0.3377,0.3598,0.3648,0.4061,0.4458,0.4343,0.4488,0.4776,0.4897,0.5004,0.4976,0.4782,0.4801,0.3946,0.0815,-0.2022,-0.395,-0.4296,-0.4275,-0.2893,0.096,0.1895,0.234,0.2696,0.3663,0.3247,0.0484,-0.0789,-0.0513,0.1665,0.1526,0.2291,0.4494,0.1751,0.1301,0.3939,0.2347,0.1416,0.1416,0.008,-0.0905,-0.1592,-0.2129,-0.2591,-0.2984,-0.3141,-0.3035,-0.2768,-0.252,-0.2371,-0.2334,-0.2778,-0.317,-0.3488,-0.3551,-0.3693,-0.395,-0.452,-0.5415,-0.6419,1.0123,0.9359,0.9033,1.0496,1.0409,1.04,1.1267,1.1433,1.1902,1.3298,1.255,1.1332,0.976,0.8603,0.743,0.6027,0.4254,0.3039,0.2655,0.1479,0.0767,0.068,0.0039,-0.0609,-0.1282,0.0032,0.0194,-0.0902,0.0399,0.0739,0.0159,-0.0491,-0.1148,-0.1716,-0.0607,-0.1143,-0.2513,0.2972,0.4532,0.3627,0.7284,0.9015,0.9403,0.9555,0.9684,0.9758,0.9758,0.9721,0.9669,0.9506,0.9064,0.8326,0.6733,0.5295,0.3853,0.2146,0.1708,0.1874,0.2251,0.2687,0.3006,0.275,0.3514,0.4419,0.4615,0.4875,0.5031,0.4951,0.5284,0.4656,0.1414,-0.0484,-0.16,-0.1534,-0.2502,-0.1756,0.2395,0.3642,0.4284,0.4676,0.3421,0.2248,0.1674,-0.0673,-0.102,0.1693,0.1487,0.1004,0.0451,-0.044,-0.0609,0.0116,0.0836,0.1201,0.1248,0.0368,-0.0082,-0.0156,-0.1702,-0.2413,-0.2343,-0.2777,-0.2727,-0.2316,-0.2385,-0.2335,-0.2221,-0.2864,-0.3336,-0.3716,-0.441,-0.4841,-0.5204,-0.5963,-0.69,-0.7783,0.793,0.7429,0.6917,0.6253,0.6533,0.6655,0.6017,0.686,0.8382,1.0802,1.0301,0.9088,0.7376,0.5449,0.3788,0.249,0.0818,-0.0157,-0.0197,-0.0976,-0.1414,-0.1429,-0.1169,-0.1499,-0.2589,0.1577,0.2655,0.0343,0.2438,0.2522,0.0682,-0.0933,-0.2391,-0.3667,-0.4005,-0.3416,-0.2125,-0.0989,0.1617,0.5056,0.5966,0.752,0.9311,0.9331,0.9457,0.9611,0.9611,0.9657,0.9695,0.9607,0.8281,0.6503,0.5602,0.3597,0.1297,-0.0109,-0.0194,0.0077,-0.004,0.0634,0.1406,0.1611,0.3235,0.4676,0.4045,0.4405,0.4984,0.5488,0.5629,0.4904,0.2311,0.267,0.2963,0.1766,0.3971,0.6622,0.8875,1.0471,1.066,0.8643,0.7998,0.6702,0.4227,0.2923,0.2223,0.2258,-0.0108,-0.129,-0.0782,-0.2029,-0.1926,-0.0113,-0.1592,-0.1946,-0.0934,-0.0332,-0.0083,-0.0289,-0.0993,-0.1577,-0.2053,-0.1971,-0.1854,-0.1694,-0.1573,-0.1858,-0.2427,-0.3032,-0.3997,-0.5177,-0.5905,-0.6671,-0.753,-0.862,-0.944,-1.0061,0.5985,0.513,0.4554,0.4992,0.467,0.433,0.419,0.4225,0.4461,0.4967,0.5985,0.6019,0.4414,0.2643,0.1072,-0.0196,-0.1362,-0.2088,-0.2204,-0.2449,-0.2603,-0.2648,-0.2278,-0.2302,-0.2856,-0.1026,0.1047,0.3317,0.1861,0.0815,0.0103,-0.1969,-0.3456,-0.4337,-0.3544,-0.3733,-0.4296,0.0544,0.2615,0.2929,0.6628,0.8597,0.9365,0.9367,0.9429,0.9542,0.9491,0.9516,0.9563,0.9456,0.7871,0.569,0.4312,0.1849,-0.0804,-0.2157,-0.2195,-0.1811,-0.1757,-0.0735,0.039,0.104,0.2272,0.3514,0.4478,0.4513,0.4588,0.5561,0.6077,0.5973,0.4776,0.3953,0.3819,0.496,0.5096,0.6265,0.9552,1.0449,1.0524,0.9896,0.7819,0.6061,0.5154,0.2997,0.1549,0.1226,0.0679,-0.0146,-0.1244,-0.1539,-0.1347,-0.0596,-0.1319,-0.082,0.0986,0.0169,0.0127,0.0822,-0.0863,-0.1696,-0.171,-0.2179,-0.2309,-0.2144,-0.1895,-0.2191,-0.2793,-0.3246,-0.4296,-0.5761,-0.6704,-0.8053,-0.9548,-1.0497,-1.1547,-1.2577,0.3196,0.2366,0.1956,0.2767,0.2211,0.1697,0.1844,0.1554,0.1058,0.0446,0.1804,0.2567,0.1723,0.0458,-0.075,-0.1859,-0.2743,-0.3265,-0.3298,-0.3467,-0.3499,-0.3421,-0.2802,-0.2643,-0.3051,-0.2761,-0.0947,0.2456,0.0237,-0.0739,-0.0601,-0.3063,-0.4578,-0.5233,-0.4052,-0.4682,-0.6229,-0.0376,0.1695,0.1425,0.5803,0.827,0.9308,0.9312,0.9359,0.9412,0.935,0.9403,0.9341,0.8483,0.6489,0.4215,0.3132,0.0272,-0.2866,-0.3849,-0.3813,-0.3373,-0.2988,-0.1714,-0.0253,0.0608,0.1574,0.2736,0.4271,0.4297,0.4252,0.5332,0.6054,0.6624,0.7038,0.5378,0.473,0.7021,0.6045,0.6136,0.9273,0.9688,0.9504,0.9105,0.6523,0.4796,0.4767,0.2595,0.0992,0.0562,0.17,0.1274,-0.1223,-0.0919,-0.1014,-0.1849,-0.1692,-0.086,0.0689,-0.0169,-0.0126,0.0854,-0.1083,-0.1946,-0.1805,-0.2414,-0.2612,-0.2457,-0.2185,-0.2407,-0.3048,-0.3461,-0.4797,-0.6661,-0.7909,-0.966,-1.1597,-1.2566,-1.3601,-1.4582,-0.0888,-0.0986,-0.1009,-0.1429,-0.154,-0.1646,-0.1999,-0.1748,-0.1552,-0.1552,-0.1669,-0.1384,-0.0456,-0.0924,-0.1572,-0.2221,-0.3268,-0.3723,-0.3327,-0.3988,-0.4183,-0.3714,-0.255,-0.2389,-0.336,-0.2422,-0.2601,-0.3972,-0.2255,-0.1289,-0.1159,-0.4043,-0.5841,-0.6674,-0.665,-0.6926,-0.7302,-0.5785,-0.2645,0.1477,0.255,0.5438,0.9109,0.9109,0.9154,0.9199,0.9199,0.9284,0.9012,0.6422,0.376,0.1642,0.2142,-0.1029,-0.4982,-0.515,-0.4835,-0.4367,-0.3735,-0.2236,-0.0582,0.0209,0.1521,0.2649,0.2953,0.3479,0.4134,0.4856,0.5437,0.6454,0.8602,0.7456,0.6568,0.7723,0.7918,0.8184,0.8897,0.9363,0.868,0.6149,0.4816,0.3781,0.2902,0.2192,0.1458,0.0638,0.2566,0.2418,-0.0649,-0.0482,-0.1501,-0.4073,-0.35,-0.3281,-0.3541,-0.1976,-0.1056,-0.0779,-0.1676,-0.2183,-0.2376,-0.2407,-0.2397,-0.2376,-0.2052,-0.2339,-0.316,-0.3743,-0.5611,-0.8247,-0.9905,-1.1801,-1.372,-1.5139,-1.5664,-1.5854,-0.1082,-0.1853,-0.2235,-0.1967,-0.2276,-0.2575,-0.2692,-0.2567,-0.2523,-0.2674,-0.2603,-0.2474,-0.2314,-0.2318,-0.2468,-0.2894,-0.3629,-0.414,-0.4189,-0.4494,-0.4718,-0.4801,-0.3626,-0.2988,-0.3009,-0.3078,-0.1938,0.0531,-0.3014,-0.4675,-0.4515,-0.5694,-0.6335,-0.6578,-0.7023,-0.7284,-0.7202,-0.5012,-0.2968,-0.1012,0.1199,0.4901,0.8889,0.6916,0.5582,0.4888,0.5861,0.5488,0.4426,0.3483,0.1102,-0.1422,-0.1031,-0.3418,-0.6349,-0.6309,-0.5876,-0.5173,-0.4141,-0.2621,-0.1035,0.0282,0.092,0.1718,0.3582,0.3092,0.2287,0.2309,0.3375,0.4529,0.5502,0.6432,0.7178,0.7719,0.8556,0.924,0.9384,0.8949,0.8195,0.7006,0.5571,0.4524,0.4214,0.3224,0.215,0.1038,0.0971,-0.0431,-0.3711,-0.1664,-0.1628,-0.4392,-0.3639,-0.3114,-0.2979,-0.2574,-0.2322,-0.2235,-0.2857,-0.3438,-0.4056,-0.4233,-0.4214,-0.4029,-0.3923,-0.412,-0.4588,-0.5323,-0.719,-0.9653,-1.0985,-1.2987,-1.5253,-1.5844,-1.6427,-1.6975,-0.2687,-0.3417,-0.3704,-0.3259,-0.3406,-0.3536,-0.3407,-0.3512,-0.3602,-0.3537,-0.3545,-0.3525,-0.3395,-0.3228,-0.3155,-0.322,-0.3978,-0.4573,-0.4891,-0.5154,-0.5426,-0.571,-0.4765,-0.3965,-0.3388,-0.4139,-0.33,-0.0764,-0.4368,-0.6115,-0.6057,-0.6478,-0.6673,-0.6722,-0.7275,-0.7433,-0.7164,-0.5434,-0.3849,-0.2334,-0.0452,0.2699,0.6054,0.4314,0.316,0.263,0.3499,0.3208,0.2194,0.0975,-0.0949,-0.299,-0.3946,-0.5784,-0.7511,-0.7068,-0.6431,-0.5566,-0.4409,-0.304,-0.1519,0.0203,0.0614,0.0911,0.207,0.1621,0.0786,0.022,0.1351,0.2622,0.3303,0.4805,0.6181,0.7016,0.7773,0.8306,0.8549,0.7538,0.6311,0.5,0.3245,0.1953,0.1526,0.06,0.0,-0.0183,-0.0847,-0.224,-0.466,-0.2819,-0.2816,-0.5187,-0.4445,-0.3932,-0.3798,-0.3806,-0.3802,-0.3786,-0.4718,-0.5507,-0.6083,-0.6258,-0.6152,-0.5882,-0.5478,-0.5639,-0.6226,-0.6888,-0.8491,-1.0629,-1.2076,-1.4088,-1.6268,-1.6831,-1.7397,-1.797,-0.5326,-0.531,-0.5261,-0.5034,-0.4769,-0.4441,-0.4133,-0.4484,-0.4658,-0.4268,-0.4513,-0.4517,-0.3879,-0.3808,-0.37,-0.3442,-0.4296,-0.5029,-0.5394,-0.5834,-0.6185,-0.6394,-0.5894,-0.5229,-0.4435,-0.5524,-0.626,-0.6533,-0.6131,-0.5997,-0.6068,-0.6553,-0.6843,-0.6987,-0.7373,-0.7432,-0.7216,-0.6913,-0.5303,-0.2927,-0.2478,-0.0944,0.107,0.1192,0.1419,0.171,0.1698,0.1803,0.1505,-0.1327,-0.2597,-0.3511,-0.6395,-0.7917,-0.8424,-0.7522,-0.6677,-0.5782,-0.4631,-0.3416,-0.2,-0.0042,0.0491,0.0243,-0.0996,-0.0726,-0.0464,-0.1379,-0.0502,0.0777,0.1821,0.2741,0.3828,0.5541,0.5751,0.5911,0.6484,0.5245,0.3309,0.0774,-0.1128,-0.2743,-0.3912,-0.4447,-0.416,-0.276,-0.2906,-0.3382,-0.416,-0.426,-0.4913,-0.6289,-0.5702,-0.5482,-0.5694,-0.5486,-0.5398,-0.5397,-0.7033,-0.7985,-0.8285,-0.828,-0.8098,-0.7781,-0.6892,-0.7037,-0.7946,-0.8455,-0.9627,-1.1256,-1.312,-1.5067,-1.6908,-1.799,-1.8484,-1.8751,-0.58,-0.5647,-0.5303,-0.5116,-0.5022,-0.4947,-0.4833,-0.4939,-0.5066,-0.5239,-0.5245,-0.5136,-0.4877,-0.4784,-0.4686,-0.4462,-0.459,-0.4909,-0.5432,-0.5816,-0.6172,-0.6546,-0.6505,-0.623,-0.5691,-0.6748,-0.7224,-0.704,-0.6623,-0.6501,-0.661,-0.6491,-0.6504,-0.6717,-0.7017,-0.7344,-0.7647,-0.752,-0.676,-0.5647,-0.5326,-0.4511,-0.3467,-0.3475,-0.3406,-0.3309,-0.336,-0.3564,-0.3951,-0.4667,-0.5457,-0.629,-0.7187,-0.8023,-0.8547,-0.7986,-0.7573,-0.7008,-0.5831,-0.3755,-0.1663,-0.048,0.0,-0.0194,-0.1674,-0.2274,-0.2499,-0.2432,-0.2117,-0.1614,-0.0775,0.0858,0.2487,0.3621,0.4442,0.4595,0.3587,0.3187,0.2138,-0.027,-0.0794,-0.1544,-0.3032,-0.359,-0.4228,-0.5077,-0.587,-0.6582,-0.7224,-0.7665,-0.7432,-0.6471,-0.611,-0.6124,-0.6575,-0.6556,-0.6807,-0.7349,-0.7748,-0.8328,-0.9031,-0.9074,-0.9135,-0.9158,-0.9333,-0.9236,-0.9056,-1.0537,-1.1421,-1.2024,-1.3776,-1.5723,-1.7578,-1.8076,-1.8451,-1.8809,-0.6816,-0.6639,-0.6277,-0.5961,-0.589,-0.5757,-0.5468,-0.5645,-0.5789,-0.5618,-0.5636,-0.5594,-0.5378,-0.5181,-0.5112,-0.5295,-0.5219,-0.5345,-0.5798,-0.6182,-0.6521,-0.6765,-0.6891,-0.6791,-0.6513,-0.7384,-0.7804,-0.7714,-0.7176,-0.6934,-0.6983,-0.661,-0.6482,-0.6573,-0.6927,-0.7241,-0.7468,-0.7468,-0.7137,-0.662,-0.6416,-0.603,-0.5533,-0.5488,-0.5356,-0.5231,-0.5235,-0.5408,-0.5734,-0.619,-0.6902,-0.7685,-0.8172,-0.8808,-0.9276,-0.8679,-0.8278,-0.7819,-0.6694,-0.5089,-0.3458,-0.2332,-0.1766,-0.1691,-0.2446,-0.2902,-0.3222,-0.3379,-0.3178,-0.2775,-0.2017,-0.0958,0.0157,0.121,0.2328,0.2633,0.149,0.0752,-0.0108,-0.1236,-0.2015,-0.2829,-0.3746,-0.4395,-0.5204,-0.6156,-0.6947,-0.7504,-0.7784,-0.8309,-0.8036,-0.6827,-0.701,-0.7161,-0.7182,-0.7652,-0.822,-0.8832,-0.9403,-0.9849,-1.0233,-1.0854,-1.1027,-1.0896,-1.1329,-1.1305,-1.1137,-1.2392,-1.2871,-1.2926,-1.4472,-1.6314,-1.8158,-1.8559,-1.9293,-2.0084,-0.7878,-0.7743,-0.7455,-0.7183,-0.7069,-0.6821,-0.6215,-0.6522,-0.6546,-0.5893,-0.6032,-0.6039,-0.5718,-0.5458,-0.5538,-0.6074,-0.6106,-0.6129,-0.6212,-0.657,-0.6865,-0.7004,-0.7124,-0.7226,-0.7241,-0.7887,-0.8219,-0.8263,-0.7664,-0.7375,-0.7306,-0.685,-0.6665,-0.6673,-0.7017,-0.7177,-0.7175,-0.7187,-0.699,-0.6705,-0.6527,-0.633,-0.6103,-0.5952,-0.5763,-0.5567,-0.5505,-0.5526,-0.5712,-0.6698,-0.7676,-0.8536,-0.9013,-0.9686,-1.0157,-0.9303,-0.8949,-0.8578,-0.7741,-0.7126,-0.6403,-0.5045,-0.4306,-0.3739,-0.3258,-0.3217,-0.3455,-0.4226,-0.3852,-0.3317,-0.2902,-0.2706,-0.2403,-0.162,-0.0554,-0.0102,-0.0837,-0.1896,-0.2534,-0.2536,-0.3868,-0.4923,-0.525,-0.5885,-0.6428,-0.6677,-0.712,-0.7349,-0.7251,-0.7829,-0.7862,-0.711,-0.8071,-0.8372,-0.7997,-0.8811,-0.9479,-1.008,-1.0899,-1.1274,-1.1265,-1.2401,-1.2666,-1.2287,-1.2788,-1.2964,-1.3001,-1.3771,-1.3852,-1.3643,-1.4938,-1.6721,-1.8614,-1.9216,-2.0373,-2.1606,-0.8043,-0.7999,-0.7882,-0.8037,-0.8076,-0.7972,-0.7719,-0.7435,-0.7169,-0.674,-0.6824,-0.6811,-0.6535,-0.6706,-0.6935,-0.7145,-0.7379,-0.7135,-0.6345,-0.6293,-0.6527,-0.7053,-0.7472,-0.7887,-0.8335,-0.8899,-0.8814,-0.8051,-0.7881,-0.7801,-0.7772,-0.7216,-0.7086,-0.7333,-0.7187,-0.7288,-0.7597,-0.7189,-0.6925,-0.6761,-0.6384,-0.6065,-0.5779,-0.5881,-0.5887,-0.5855,-0.5873,-0.5835,-0.5916,-0.6901,-0.8506,-0.9862,-0.8804,-0.9589,-1.0614,-0.9252,-0.9432,-1.0049,-0.9916,-1.0012,-0.979,-0.8346,-0.6991,-0.5618,-0.4183,-0.3932,-0.4223,-0.4974,-0.4539,-0.42,-0.4736,-0.4227,-0.4148,-0.5479,-0.4512,-0.4017,-0.4998,-0.4105,-0.3844,-0.5197,-0.4973,-0.5301,-0.6866,-0.6899,-0.7032,-0.7565,-0.7765,-0.7762,-0.7476,-0.8462,-0.8409,-0.7149,-0.8553,-0.9647,-1.0277,-0.9831,-1.018,-1.1249,-1.0349,-1.0243,-1.0881,-1.1304,-1.1534,-1.1636,-1.3288,-1.3288,-1.2295,-1.3816,-1.3927,-1.3308,-1.4777,-1.6723,-1.8886,-1.9813,-2.0766,-2.1631,-0.8552,-0.8511,-0.8525,-0.8795,-0.8829,-0.8681,-0.8411,-0.8303,-0.8023,-0.7318,-0.7334,-0.7349,-0.7113,-0.7131,-0.7239,-0.7419,-0.7821,-0.7897,-0.7512,-0.7363,-0.7403,-0.7723,-0.8097,-0.8622,-0.9341,-1.0023,-1.003,-0.9343,-0.9185,-0.8855,-0.8378,-0.7501,-0.7254,-0.7534,-0.7046,-0.7059,-0.7434,-0.6708,-0.6562,-0.6751,-0.6164,-0.6197,-0.659,-0.6326,-0.6498,-0.6876,-0.6647,-0.6696,-0.698,-0.7543,-0.8558,-0.9596,-0.9661,-0.9996,-1.0226,-0.9545,-0.9535,-0.9827,-1.0048,-1.0469,-1.0551,-0.946,-0.8897,-0.7936,-0.5114,-0.5121,-0.5426,-0.4147,-0.4167,-0.4456,-0.4789,-0.508,-0.5598,-0.6602,-0.6901,-0.7008,-0.6856,-0.6299,-0.5954,-0.6139,-0.6032,-0.6144,-0.6655,-0.6931,-0.7238,-0.7704,-0.8062,-0.8203,-0.8109,-0.8604,-0.8673,-0.8185,-0.9449,-1.0484,-1.1158,-1.1149,-1.1221,-1.131,-1.0717,-1.0615,-1.0994,-1.1802,-1.2419,-1.296,-1.435,-1.4544,-1.3952,-1.4871,-1.4948,-1.4574,-1.5655,-1.7371,-1.9358,-2.0398,-2.1598,-2.2655,-0.8998,-0.9029,-0.9094,-0.9341,-0.9368,-0.9279,-0.8929,-0.9007,-0.8716,-0.7723,-0.7932,-0.8051,-0.7774,-0.7775,-0.7948,-0.8252,-0.8682,-0.8997,-0.9129,-0.892,-0.8704,-0.8507,-0.8771,-0.9334,-1.0165,-1.0713,-1.0774,-1.0311,-1.0059,-0.9517,-0.8728,-0.7878,-0.7451,-0.7471,-0.6937,-0.685,-0.7073,-0.6304,-0.6222,-0.6608,-0.6298,-0.6581,-0.716,-0.6708,-0.7132,-0.7883,-0.7585,-0.7593,-0.7823,-0.8181,-0.8638,-0.9174,-1.0046,-1.0003,-0.9583,-0.9181,-0.8695,-0.8536,-0.9481,-1.0161,-1.0416,-0.9787,-0.9917,-0.9581,-0.7104,-0.6911,-0.6505,-0.3827,-0.4105,-0.4914,-0.4983,-0.5759,-0.6737,-0.7793,-0.8837,-0.9305,-0.8595,-0.8254,-0.7745,-0.6866,-0.6907,-0.6889,-0.6544,-0.7037,-0.7553,-0.794,-0.8431,-0.8673,-0.8643,-0.8838,-0.9152,-0.9545,-1.0497,-1.1251,-1.1794,-1.2148,-1.2043,-1.1434,-1.1022,-1.1025,-1.1331,-1.2349,-1.3283,-1.4117,-1.5127,-1.5432,-1.5242,-1.5474,-1.5375,-1.5142,-1.6335,-1.7731,-1.9304,-2.0938,-2.2378,-2.3472,-0.9041,-0.9235,-0.9403,-0.9545,-0.9765,-0.9843,-0.9482,-0.9412,-0.9024,-0.8013,-0.8866,-0.9362,-0.8858,-0.948,-1.014,-1.0613,-1.0755,-1.0878,-1.0999,-1.0748,-1.0156,-0.9185,-0.945,-0.9982,-1.0733,-1.0496,-1.0173,-0.9762,-0.9538,-0.9162,-0.8617,-0.8336,-0.7821,-0.7125,-0.7098,-0.6871,-0.6545,-0.6284,-0.6171,-0.6227,-0.7162,-0.7198,-0.6647,-0.6682,-0.7381,-0.8404,-0.8744,-0.8365,-0.7834,-0.8665,-0.9124,-0.9253,-0.8657,-0.8874,-0.8989,-0.7334,-0.6303,-0.6211,-0.8598,-0.9716,-1.0141,-0.9783,-0.9605,-0.9813,-1.1095,-0.9549,-0.7327,-0.5394,-0.5531,-0.6081,-0.6386,-0.6573,-0.7694,-1.0755,-1.0846,-1.0702,-1.1303,-0.9771,-0.8425,-0.8114,-0.744,-0.718,-0.7654,-0.79,-0.8231,-0.879,-0.9154,-0.9165,-0.8797,-0.9603,-1.0339,-1.0943,-1.156,-1.2135,-1.2616,-1.2361,-1.2206,-1.2088,-1.0759,-1.0702,-1.1854,-1.2144,-1.2788,-1.3795,-1.4921,-1.5023,-1.4382,-1.4606,-1.4131,-1.3507,-1.5806,-1.706,-1.7961,-2.1345,-2.2817,-2.3237,-0.9788,-0.9822,-0.9989,-1.051,-1.0485,-1.038,-1.0254,-1.0293,-1.0021,-0.9189,-0.9713,-0.998,-0.9563,-1.0093,-1.0474,-1.0389,-1.1142,-1.1507,-1.1302,-1.1514,-1.1463,-1.0952,-1.1216,-1.1688,-1.2351,-1.2463,-1.1962,-1.0821,-1.0611,-1.001,-0.9015,-0.8544,-0.8034,-0.7601,-0.7469,-0.7115,-0.6626,-0.6729,-0.6785,-0.688,-0.7431,-0.8037,-0.8577,-0.7942,-0.8225,-0.8914,-0.856,-0.8132,-0.7757,-0.8102,-0.8803,-0.9465,-0.9095,-0.9278,-0.9301,-0.7754,-0.681,-0.6427,-0.7078,-0.7807,-0.8387,-0.8585,-0.9435,-1.0605,-1.2054,-1.0876,-0.902,-0.744,-0.7024,-0.6718,-0.6023,-0.6934,-0.826,-0.9734,-1.0376,-1.0916,-1.1638,-1.0882,-1.0106,-0.9891,-0.9368,-0.8805,-0.8231,-0.8225,-0.8288,-0.8438,-0.8788,-0.8936,-0.8935,-0.9908,-1.0908,-1.1922,-1.2593,-1.2825,-1.2593,-1.3173,-1.3181,-1.2636,-1.2011,-1.1957,-1.2411,-1.2913,-1.3716,-1.4728,-1.514,-1.5255,-1.5134,-1.4702,-1.4575,-1.4796,-1.6361,-1.7974,-1.9795,-2.2597,-2.3822,-2.4066,-1.0764,-1.0816,-1.0875,-1.11,-1.0933,-1.0805,-1.087,-1.0968,-1.0853,-1.0254,-1.0919,-1.1326,-1.0899,-1.1516,-1.1806,-1.1321,-1.205,-1.2317,-1.1803,-1.2152,-1.2183,-1.1808,-1.2099,-1.2552,-1.3113,-1.3391,-1.2999,-1.1908,-1.132,-1.0498,-0.9394,-0.8698,-0.8114,-0.7656,-0.7501,-0.7152,-0.6702,-0.7012,-0.728,-0.7474,-0.8019,-0.8752,-0.942,-0.8815,-0.8757,-0.885,-0.758,-0.7412,-0.775,-0.765,-0.8246,-0.902,-0.9156,-0.9435,-0.9477,-0.823,-0.716,-0.6361,-0.6252,-0.6596,-0.7093,-0.7607,-0.9132,-1.0753,-1.1689,-1.1528,-1.073,-0.9273,-0.8622,-0.7948,-0.6791,-0.7737,-0.8833,-0.9353,-1.0482,-1.1513,-1.2202,-1.1854,-1.1542,-1.1631,-1.1252,-1.052,-0.9323,-0.9267,-0.9316,-0.9399,-0.971,-1.0019,-1.0274,-1.0822,-1.153,-1.2463,-1.3161,-1.3408,-1.3094,-1.3667,-1.3655,-1.3054,-1.2986,-1.3083,-1.3368,-1.39,-1.4715,-1.5682,-1.5379,-1.5299,-1.5368,-1.478,-1.4687,-1.5137,-1.7084,-1.8784,-2.0474,-2.3366,-2.4424,-2.4354,-1.1842,-1.2172,-1.2111,-1.1172,-1.0966,-1.0995,-1.1267,-1.1348,-1.1316,-1.1044,-1.2648,-1.3558,-1.2962,-1.4017,-1.4541,-1.395,-1.377,-1.3435,-1.2839,-1.2738,-1.2286,-1.1362,-1.177,-1.226,-1.2788,-1.2733,-1.2726,-1.2781,-1.1382,-1.0326,-0.9578,-0.884,-0.8033,-0.7214,-0.7149,-0.6917,-0.6643,-0.7123,-0.7475,-0.7826,-0.91,-0.9217,-0.8661,-0.9055,-0.8873,-0.8109,-0.5838,-0.624,-0.7821,-0.7529,-0.7556,-0.7865,-0.8608,-0.9135,-0.9387,-0.8545,-0.695,-0.5602,-0.631,-0.6526,-0.6622,-0.6997,-0.8613,-1.0108,-1.0186,-1.157,-1.2352,-1.0832,-1.0423,-1.0058,-0.9169,-0.911,-0.9438,-1.0261,-1.1548,-1.2686,-1.3212,-1.2725,-1.2539,-1.3152,-1.2816,-1.2113,-1.1126,-1.1327,-1.1652,-1.1994,-1.2341,-1.2665,-1.3096,-1.262,-1.2346,-1.2396,-1.3198,-1.3863,-1.4388,-1.3766,-1.3434,-1.3435,-1.3338,-1.3828,-1.4814,-1.5032,-1.5609,-1.6458,-1.5506,-1.4999,-1.4802,-1.4667,-1.4187,-1.393,-1.7931,-1.927,-1.9413,-2.3416,-2.4486,-2.3903,-1.2241,-1.2242,-1.2128,-1.1892,-1.1594,-1.1519,-1.1887,-1.1922,-1.2117,-1.2811,-1.285,-1.2986,-1.3397,-1.3404,-1.3287,-1.294,-1.3428,-1.3569,-1.3094,-1.2852,-1.2423,-1.1821,-1.2348,-1.2787,-1.3124,-1.2767,-1.2138,-1.1257,-1.1112,-1.0168,-0.8479,-0.8715,-0.8211,-0.7074,-0.7223,-0.734,-0.7472,-0.8097,-0.8563,-0.8963,-0.9758,-1.012,-1.0135,-1.0026,-0.9782,-0.9317,-0.7614,-0.6918,-0.6895,-0.7509,-0.8561,-0.9684,-1.0481,-1.132,-1.1676,-1.0278,-0.8928,-0.796,-0.8195,-0.8569,-0.864,-0.7588,-0.8859,-1.0414,-1.0566,-1.1751,-1.2356,-1.0695,-1.063,-1.0401,-0.8985,-0.8974,-0.9422,-1.0128,-1.0594,-1.144,-1.3004,-1.3356,-1.3748,-1.4629,-1.4531,-1.41,-1.3298,-1.2793,-1.2449,-1.2371,-1.2745,-1.3344,-1.4123,-1.3951,-1.3951,-1.4149,-1.441,-1.4538,-1.4612,-1.497,-1.5263,-1.5426,-1.5233,-1.5368,-1.5801,-1.5992,-1.6425,-1.6937,-1.6136,-1.5836,-1.5829,-1.5665,-1.5733,-1.62,-1.8577,-2.0318,-2.1783,-2.4111,-2.4746,-2.4387,-1.3087,-1.2756,-1.2403,-1.2684,-1.2161,-1.1685,-1.1712,-1.1839,-1.2294,-1.3215,-1.3286,-1.3345,-1.3691,-1.3811,-1.3592,-1.2915,-1.3252,-1.339,-1.3213,-1.301,-1.2771,-1.2502,-1.2655,-1.2775,-1.288,-1.2706,-1.2143,-1.115,-1.0881,-1.0008,-0.863,-0.8767,-0.8365,-0.7645,-0.7925,-0.8183,-0.8348,-0.8822,-0.9298,-0.9732,-1.0056,-1.0396,-1.0724,-1.0513,-1.0168,-0.9716,-0.8712,-0.7764,-0.7038,-0.7668,-0.8884,-1.0406,-1.1675,-1.2179,-1.2165,-1.1483,-1.0582,-0.9807,-0.9777,-1.0438,-1.0843,-0.9792,-1.0449,-1.1502,-1.213,-1.3225,-1.3729,-1.215,-1.2023,-1.1553,-0.971,-0.9357,-0.9399,-0.9762,-1.0005,-1.0738,-1.2473,-1.3398,-1.4362,-1.5676,-1.5925,-1.5905,-1.5719,-1.5197,-1.468,-1.4345,-1.4615,-1.4935,-1.5182,-1.5095,-1.4994,-1.49,-1.5253,-1.5459,-1.5451,-1.6354,-1.657,-1.6039,-1.6228,-1.6239,-1.6178,-1.6483,-1.6748,-1.6953,-1.6193,-1.5973,-1.6174,-1.6265,-1.6564,-1.719,-1.9246,-2.1115,-2.2728,-2.3901,-2.4291,-2.4149,-1.4115,-1.3483,-1.2897,-1.3339,-1.252,-1.1597,-1.1064,-1.1417,-1.2022,-1.2815,-1.3707,-1.4124,-1.3807,-1.4631,-1.47,-1.3495,-1.3173,-1.3069,-1.3213,-1.3213,-1.3179,-1.3146,-1.2721,-1.236,-1.2084,-1.2446,-1.2342,-1.1719,-1.059,-0.9799,-0.9332,-0.8789,-0.8537,-0.8517,-0.8914,-0.9162,-0.9262,-0.9351,-0.9752,-1.0273,-1.008,-1.0274,-1.0684,-1.064,-1.028,-0.9702,-0.9336,-0.8782,-0.8149,-0.809,-0.8933,-1.0344,-1.2161,-1.2065,-1.1439,-1.2235,-1.1827,-1.1088,-1.1116,-1.2001,-1.2983,-1.3027,-1.3038,-1.3312,-1.4412,-1.5542,-1.5996,-1.4712,-1.4213,-1.3328,-1.1199,-1.0119,-0.9496,-0.9309,-0.9614,-1.0356,-1.1729,-1.305,-1.4534,-1.6284,-1.6964,-1.7529,-1.8099,-1.8037,-1.7788,-1.7341,-1.7436,-1.7181,-1.6444,-1.6271,-1.5872,-1.5176,-1.5956,-1.6452,-1.6562,-1.7578,-1.7347,-1.5926,-1.6733,-1.6841,-1.6357,-1.6792,-1.6976,-1.6901,-1.6101,-1.5959,-1.631,-1.6772,-1.711,-1.7564,-2.0016,-2.1684,-2.2696,-2.2937,-2.3235,-2.3323,-1.4278,-1.361,-1.2929,-1.2889,-1.2093,-1.152,-1.1583,-1.1711,-1.2272,-1.3701,-1.2909,-1.2655,-1.3697,-1.3066,-1.2787,-1.3228,-1.3208,-1.3276,-1.3504,-1.3263,-1.3022,-1.281,-1.2575,-1.2025,-1.1198,-1.1228,-1.0718,-0.9649,-1.0032,-0.9303,-0.7493,-0.8383,-0.8467,-0.7863,-0.867,-0.9502,-1.0326,-0.9609,-0.9986,-1.1001,-1.0353,-1.0289,-1.0591,-1.0867,-1.0941,-1.081,-1.035,-1.022,-1.0215,-1.004,-1.0079,-1.045,-1.1681,-1.2083,-1.2082,-1.22,-1.2117,-1.1952,-1.2079,-1.2718,-1.3642,-1.4775,-1.5689,-1.6238,-1.6027,-1.6798,-1.7311,-1.6542,-1.6286,-1.5454,-1.2935,-1.1652,-1.0681,-0.9791,-0.9249,-0.954,-1.1299,-1.2857,-1.4508,-1.63,-1.7418,-1.8365,-1.9186,-1.9183,-1.9126,-1.9126,-1.9104,-1.9037,-1.893,-1.8537,-1.7932,-1.7114,-1.7084,-1.6843,-1.6379,-1.6878,-1.7257,-1.7582,-1.841,-1.8614,-1.8293,-1.8432,-1.863,-1.8784,-1.7952,-1.7928,-1.8447,-1.8825,-1.9301,-1.9869,-2.1233,-2.2349,-2.3035,-2.1515,-2.1742,-2.2508,-1.4501,-1.3722,-1.2877,-1.243,-1.1943,-1.1575,-1.1383,-1.1542,-1.204,-1.3059,-1.2494,-1.2196,-1.2736,-1.2418,-1.2407,-1.3022,-1.29,-1.3386,-1.4711,-1.3747,-1.3018,-1.2709,-1.2456,-1.1973,-1.1284,-1.0953,-1.0103,-0.8715,-0.9025,-0.8683,-0.7783,-0.8503,-0.8819,-0.8785,-0.9626,-1.0301,-1.0746,-1.0149,-1.025,-1.0797,-1.0012,-0.9924,-1.0343,-1.062,-1.0911,-1.1091,-1.0738,-1.0895,-1.1248,-1.0871,-1.074,-1.0935,-1.1735,-1.2152,-1.2335,-1.2252,-1.2152,-1.2106,-1.2179,-1.3039,-1.4209,-1.5453,-1.7002,-1.8215,-1.8188,-1.8751,-1.9155,-1.8621,-1.8323,-1.7398,-1.5079,-1.3554,-1.2287,-1.1152,-1.0428,-1.0367,-1.1507,-1.3152,-1.4844,-1.6464,-1.7831,-1.9209,-2.0613,-2.0665,-2.0645,-2.0649,-2.022,-1.9892,-1.9747,-1.9421,-1.881,-1.7839,-1.7729,-1.7377,-1.6697,-1.7167,-1.7572,-1.7925,-1.871,-1.8868,-1.8427,-1.8689,-1.8793,-1.8741,-1.8101,-1.7983,-1.8296,-1.9019,-1.9547,-2.0009,-2.1176,-2.2089,-2.2609,-2.1309,-2.0905,-2.0675,-1.4679,-1.3847,-1.2922,-1.2511,-1.2188,-1.1796,-1.1242,-1.1438,-1.1735,-1.1973,-1.2162,-1.2073,-1.1678,-1.2077,-1.246,-1.2734,-1.2746,-1.3541,-1.5474,-1.4239,-1.3287,-1.295,-1.254,-1.2155,-1.1859,-1.13,-1.0244,-0.8685,-0.8395,-0.838,-0.8636,-0.8918,-0.9345,-0.9902,-1.0794,-1.103,-1.0812,-1.0535,-1.0332,-1.0137,-0.9487,-0.9503,-0.9953,-1.0246,-1.065,-1.1031,-1.0798,-1.1226,-1.1746,-1.1142,-1.1063,-1.1244,-1.1556,-1.1833,-1.1975,-1.186,-1.1795,-1.1818,-1.1954,-1.3096,-1.4511,-1.5659,-1.755,-1.9383,-2.0206,-2.0751,-2.1013,-2.0732,-2.0388,-1.9524,-1.7453,-1.5898,-1.4498,-1.3299,-1.2537,-1.2272,-1.2714,-1.41,-1.5567,-1.6881,-1.8456,-2.0107,-2.1881,-2.2082,-2.2078,-2.2019,-2.1278,-2.0694,-2.0407,-2.0133,-1.9497,-1.8443,-1.8351,-1.8042,-1.7463,-1.7841,-1.8006,-1.7944,-1.8821,-1.8863,-1.8129,-1.8641,-1.8682,-1.8326,-1.7901,-1.769,-1.7697,-1.887,-1.9398,-1.9593,-2.0888,-2.1707,-2.2013,-2.1254,-1.9829,-1.8003,-1.4825,-1.397,-1.3377,-1.4068,-1.3153,-1.23,-1.2113,-1.2149,-1.2074,-1.1722,-1.1641,-1.1549,-1.1379,-1.1425,-1.1652,-1.2077,-1.3362,-1.3975,-1.3631,-1.3998,-1.4141,-1.3909,-1.3196,-1.2691,-1.2486,-1.211,-1.1234,-0.9766,-0.9742,-0.9213,-0.8294,-0.9591,-0.9869,-0.9383,-1.0798,-1.1084,-1.0457,-1.0235,-0.9864,-0.9439,-0.94,-0.9297,-0.9318,-1.029,-1.075,-1.0935,-1.0905,-1.1527,-1.2291,-1.1489,-1.0981,-1.0594,-1.0101,-1.0116,-1.0339,-1.0443,-1.0627,-1.0981,-1.1841,-1.2842,-1.4074,-1.5955,-1.7703,-1.9409,-2.1173,-2.1888,-2.2254,-2.2489,-2.2693,-2.223,-2.0176,-1.9139,-1.8085,-1.6539,-1.5294,-1.4881,-1.5849,-1.6265,-1.69,-1.7889,-1.9693,-2.1194,-2.2079,-2.2643,-2.3047,-2.332,-2.3127,-2.2906,-2.2744,-2.2263,-2.1549,-2.0533,-1.9597,-1.9037,-1.8824,-1.8179,-1.8179,-1.8844,-2.0122,-2.0106,-1.8961,-1.9641,-1.9746,-1.9295,-1.9065,-1.8955,-1.9047,-2.0237,-2.0644,-2.0605,-2.1783,-2.2187,-2.1882,-2.0019,-1.7077,-1.4184,-1.5672,-1.478,-1.4046,-1.448,-1.3628,-1.2637,-1.194,-1.1646,-1.1437,-1.1255,-1.0989,-1.0807,-1.0753,-1.0728,-1.0768,-1.0876,-1.1923,-1.2796,-1.3212,-1.3125,-1.3448,-1.4325,-1.338,-1.2986,-1.3323,-1.2571,-1.2128,-1.1964,-1.0653,-0.9534,-0.8618,-0.9672,-1.0049,-0.9915,-1.0881,-1.0964,-1.0361,-0.9848,-0.9357,-0.8846,-0.8643,-0.8658,-0.8804,-0.9251,-0.983,-1.0447,-1.0698,-1.1395,-1.2072,-1.137,-1.1034,-1.0816,-1.0159,-1.0066,-1.024,-1.0236,-1.051,-1.0977,-1.178,-1.2775,-1.4025,-1.585,-1.7616,-1.9456,-2.1365,-2.2439,-2.3124,-2.359,-2.3952,-2.3803,-2.2532,-2.1562,-2.0569,-1.9341,-1.835,-1.7727,-1.7738,-1.828,-1.8885,-1.9432,-2.0385,-2.1274,-2.2006,-2.2415,-2.2898,-2.3671,-2.3445,-2.3301,-2.3376,-2.3025,-2.2375,-2.1362,-2.0735,-2.0185,-1.9715,-1.9373,-1.9097,-1.8967,-2.0542,-2.0874,-2.0137,-2.074,-2.0822,-2.0411,-1.9762,-1.9217,-1.8915,-2.015,-2.0472,-2.0307,-2.1327,-2.1586,-2.1071,-1.8547,-1.71,-1.6373]},{"header":{"parameterUnit":"m.s-1","parameterCategory":1,"la1":30.6,"la2":28.766,"lo1":-90.7593,"lo2":-88.6598,"dy":0.0162,"dx":0.0183,"nx":116,"ny":114,"refTime":"2023-09-10T18:00:00:Z","depth":0,"parameterNumber":3,"parameterNumberName":"V-component_of_WINDS"},"data":[0.0,0.0,0.0,0.0,0.0,0.0,0.0,0.0,0.0,0.0,0.0,0.0,0.0,0.0,0.0,0.0,0.0,0.0,0.0,0.0,0.0,0.0,0.0,0.0,0.0,0.0,0.0,0.0,0.0,0.0,0.0,0.0,0.0,0.0,0.0,0.0,0.0,0.0,0.0,0.0,0.0,0.0,0.0,0.0,0.0,0.0,0.0,0.0,0.0,0.0,0.0,0.0,0.0,0.0,0.0,0.0,0.0,0.0,0.0,0.0,0.0,0.0,0.0,0.0,0.0,0.0,0.0,0.0,0.0,0.0,0.0,0.0,0.0,0.0,0.0,0.0,0.0,0.0,0.0,0.0,0.0,0.0,0.0,0.0,0.0,0.0,0.0,0.0,0.0,0.0,0.0,0.0,0.0,0.0,0.0,0.0,0.0,0.0,0.0,0.0,0.0,0.0,0.0,0.0,0.0,0.0,0.0,0.0,0.0,0.0,0.0,0.0,0.0,0.0,0.0,0.0,0.0,0.0,0.0,0.0,0.0,0.0,0.0,0.0,0.0,0.0,0.0,0.0,0.0,0.0,0.0,0.0,0.0,0.0,0.0,0.0,0.0,0.0,0.0,0.0,0.0,0.0,0.0,0.0,0.0,0.0,0.0,0.0,0.0,0.0,0.0,0.0,0.0,0.0,0.0,0.0,0.0,0.0,0.0,0.0,0.0,0.0,0.0,0.0,0.0,0.0,0.0,0.0,0.0,0.0,0.0,0.0,0.0,0.0,0.0,0.0,0.0,0.0,0.0,0.0,0.0,0.0,0.0,0.0,0.0,0.0,0.0,0.0,0.0,0.0,0.0,0.0,0.0,0.0,0.0,0.0,0.0,0.0,0.0,0.0,0.0,0.0,0.0,0.0,0.0,0.0,0.0,0.0,0.0,0.0,0.0,0.0,0.0,0.0,0.0,0.0,0.0,0.0,0.0,0.0,0.0,0.0,0.0,0.0,0.0,0.0,0.0,0.0,0.0,0.0,0.0,0.0,0.0,0.0,0.0,0.0,0.0,0.0,0.0,0.0,0.0,0.0,0.0,0.0,0.0,0.0,0.0,0.0,0.0,0.0,0.0,0.0,0.0,0.0,0.0,0.0,0.0,0.0,0.0,0.0,0.0,0.0,0.0,0.0,0.0,0.0,0.0,0.0,0.0,0.0,0.0,0.0,0.0,0.0,0.0,0.0,0.0,0.0,0.0,0.0,0.0,0.0,0.0,0.0,0.0,0.0,0.0,0.0,0.0,0.0,0.0,0.0,0.0,0.0,0.0,0.0,0.0,0.0,0.0,0.0,0.0,0.0,0.0,0.0,0.0,0.0,0.0,0.0,0.0,0.0,0.0,0.0,0.0,0.0,0.0,0.0,0.0,0.0,0.0,0.0,0.0,0.0,0.0,0.0,0.0,0.0,0.0,0.0,0.0,0.0,0.0,0.0,0.0,0.0,0.0,0.0,0.0,0.0,0.0,0.0,0.0,0.0,0.0,0.0,0.0,0.0,0.0,0.0,0.0,0.0,0.0,0.0,0.0,0.0,0.0,0.0,0.0,0.0,0.0,0.0,0.0,0.0,0.0,0.0,0.0,0.0,0.0,0.0,0.0,0.0,0.0,0.0,0.0,0.0,0.0,0.0,0.0,0.0,0.0,0.0,0.0,0.0,0.0,0.0,0.0,0.0,0.0,0.0,0.0,0.0,0.0,0.0,0.0,0.0,0.0,0.0,0.0,0.0,0.0,0.0,0.0,0.0,0.0,0.0,0.0,0.0,0.0,0.0,0.0,0.0,0.0,0.0,0.0,0.0,0.0,0.0,0.0,0.0,0.0,0.0,0.0,0.0,0.0,0.0,0.0,0.0,0.0,0.0,0.0,0.0,0.0,0.0,0.0,0.0,0.0,0.0,0.0,0.0,0.0,0.0,0.0,0.0,0.0,0.0,0.0,0.0,0.0,0.0,0.0,0.0,0.0,0.0,0.0,0.0,0.0,0.0,0.0,0.0,0.0,0.0,0.0,0.0,0.0,0.0,0.0,0.0,0.0,0.0,0.0,0.0,0.0,0.0,0.0,0.0,0.0,0.0,0.0,0.0,0.0,0.0,0.0,0.0,0.0,0.0,0.0,0.0,0.0,0.0,0.0,0.0,0.0,0.0,0.0,0.0,0.0,0.0,0.0,0.0,0.0,0.0,0.0,0.0,0.0,0.0,0.0,0.0,0.0,0.0,0.0,0.0,0.0,0.0,0.0,0.0,0.0,0.0,0.0,0.0,0.0,0.0,0.0,0.0,0.0,0.0,0.0,0.0,0.0,0.0,0.0,0.0,0.0,0.0,0.0,0.0,0.0,0.0,0.0,0.0,0.0,0.0,0.0,0.0,0.0,0.0,0.0,0.0,0.0,0.0,0.0,0.0,0.0,0.0,0.0,0.0,0.0,0.0,0.0,0.0,0.0,0.0,0.0,0.0,0.0,0.0,0.0,0.0,0.0,0.0,0.0,0.0,0.0,0.0,0.0,0.0,0.0,0.0,0.0,0.0,0.0,0.0,0.0,0.0,0.0,0.0,0.0,0.0,0.0,0.0,0.0,0.0,0.0,0.0,0.0,0.0,0.0,0.0,0.0,0.0,0.0,0.0,0.0,0.0,0.0,0.0,0.0,0.0,0.0,0.0,0.0,0.0,0.0,0.0,0.0,0.0,0.0,0.0,0.0,0.0,0.0,0.0,0.0,0.0,0.0,0.0,0.0,0.0,0.0,0.0,0.0,0.0,0.0,0.0,0.0,0.0,0.0,0.0,0.0,0.0,0.0,0.0,0.0,0.0,0.0,0.0,0.0,0.0,0.0,0.0,0.0,0.0,0.0,0.0,0.0,0.0,0.0,0.0,0.0,0.0,0.0,0.0,0.0,0.0,0.0,0.0,0.0,0.0,0.0,0.0,0.0,0.0,0.0,0.0,0.0,0.0,0.0,0.0,0.0,0.0,0.0,0.0,0.0,0.0,0.0,0.0,0.0,0.0,0.0,0.0,0.0,0.0,0.0,0.0,0.0,0.0,0.0,0.0,0.0,0.0,0.0,0.0,0.0,0.0,0.0,0.0,0.0,0.0,0.0,0.0,0.0,0.0,0.0,0.0,0.0,0.0,0.0,0.0,0.0,0.0,0.0,0.0,0.0,0.0,0.0,0.0,0.0,0.0,0.0,0.0,0.0,0.0,0.0,0.0,0.0,0.0,0.0,0.0,0.0,0.0,0.0,0.0,0.0,0.0,0.0,0.0,0.0,0.0,0.0,0.0,0.0,0.0,0.0,0.0,0.0,0.0,0.0,0.0,0.0,0.0,0.0,0.0,0.0,0.0,0.0,0.0,0.0,0.0,0.0,0.0,0.0,0.0,0.0,0.0,0.0,0.0,0.0,0.0,0.0,0.0,0.0,0.0,0.0,0.0,0.0,0.0,0.0,0.0,0.0,0.0,0.0,0.0,0.0,0.0,0.0,0.0,0.0,0.0,0.0,0.0,0.0,0.0,0.0,0.0,0.0,0.0,0.0,0.0,0.0,0.0,0.0,0.0,0.0,0.0,0.0,0.0,0.0,0.0,0.0,0.0,0.0,0.0,0.0,0.0,0.0,0.0,0.0,0.0,0.0,0.0,0.0,0.0,0.0,0.0,0.0,0.0,0.0,0.0,0.0,0.0,0.0,0.0,0.0,0.0,0.0,0.0,0.0,0.0,0.0,0.0,0.0,0.0,0.0,0.0,0.0,0.0,0.0,0.0,0.0,0.0,0.0,0.0,0.0,0.0,0.0,0.0,0.0,0.0,0.0,0.0,0.0,0.0,0.0,0.0,0.0,0.0,0.0,0.0,0.0,0.0,0.0,0.0,0.0,0.0,0.0,0.0,0.0,0.0,0.0,0.0,0.0,0.0,0.0,0.0,0.0,0.0,0.0,0.0,0.0,0.0,0.0,0.0,0.0,0.0,0.0,0.0,0.0,0.0,0.0,0.0,0.0,0.0,0.0,0.0,0.0,0.0,0.0,0.0,0.0,0.0,0.0,0.0,0.0,0.0,0.0,0.0,0.0,0.0,0.0,0.0,0.0,0.0,0.0,0.0,0.0,0.0,0.0,0.0,0.0,0.0,0.0,0.0,0.0,0.0,0.0,0.0,0.0,0.0,0.0,0.0,0.0,0.0,0.0,0.0,0.0,0.0,0.0,0.0,0.0,0.0,0.0,0.0,0.0,0.0,0.0,0.0,0.0,0.0,0.0,0.0,0.0,0.0,0.0,0.0,0.0,0.0,0.0,0.0,0.0,0.0,0.0,0.0,0.0,0.0,0.0,0.0,0.0,0.0,0.0,0.0,0.0,0.0,0.0,0.0,0.0,0.0,0.0,0.0,0.0,0.0,0.0,0.0,0.0,0.0,0.0,0.0,0.0,0.0,0.0,0.0,0.0,0.0,0.0,0.0,0.0,0.0,0.0,0.0,0.0,0.0,0.0,0.0,0.0,0.0,0.0,0.0,0.0,0.0,0.0,0.0,0.0,0.0,0.0,0.0,0.0,0.0,0.0,0.0,0.0,0.0,0.0,0.0,0.0,0.0,0.0,0.0,0.0,0.0,0.0,0.0,0.0,0.0,0.0,0.0,0.0,0.0,0.0,0.0,0.0,0.0,0.0,0.0,0.0,0.0,0.0,0.0,0.0,0.0,0.0,0.0,0.0,0.0,0.0,0.0,0.0,0.0,0.0,0.0,0.0,0.0,0.0,0.0,0.0,0.0,0.0,0.0,0.0,0.0,0.0,0.0,0.0,0.0,0.0,0.0,0.0,0.0,0.0,0.0,0.0,0.0,0.0,0.0,0.0,0.0,0.0,0.0,0.0,0.0,0.0,0.0,0.0,0.0,0.0,0.0,0.0,0.0,0.0,0.0,0.0,0.0,0.0,0.0,0.0,0.0,0.0,0.0,0.0,0.0,0.0,0.0,0.0,0.0,0.0,0.0,0.0,0.0,0.0,0.0,0.0,0.0,0.0,0.0,0.0,0.0,0.0,0.0,0.0,0.0,0.0,0.0,0.0,0.0,0.0,0.0,0.0,0.0,0.0,0.0,0.0,0.0,0.0,0.0,0.0,0.0,0.0,0.0,0.0,0.0,0.0,0.0,0.0,0.0,0.0,0.0,0.0,0.0,0.0,0.0,0.0,0.0,0.0,0.0,0.0,0.0,0.0,0.0,0.0,0.0,0.0,0.0,0.0,0.0,0.0,0.0,0.0,0.0,0.0,0.0,0.0,0.0,0.0,0.0,0.0,0.0,0.0,0.0,0.0,0.0,0.0,0.0,0.0,0.0,0.0,0.0,0.0,0.0,0.0,0.0,0.0,0.0,0.0,0.0,0.0,0.0,0.0,0.0,0.0,0.0,0.0,0.0,0.0,0.0,0.0,0.0,0.0,0.0,0.0,0.0,0.0,0.0,0.0,0.0,0.0,0.0,0.0,0.0,0.0,0.0,0.0,0.0,0.0,0.0,0.0,0.0,0.0,0.0,0.0,0.0,0.0,0.0,0.0,0.0,0.0,0.0,0.0,0.0,0.0,0.0,0.0,0.0,0.0,0.0,0.0,0.0,0.0,0.0,0.0,0.0,0.0,0.0,0.0,0.0,0.0,0.0,0.0,0.0,0.0,0.0,0.0,0.0,0.0,0.0,0.0,0.0,0.0,0.0,0.0,0.0,0.0,0.0,0.0,0.0,0.0,0.0,0.0,0.0,0.0,0.0,0.0,0.0,0.0,0.0,0.0,0.0,0.0,0.0,0.0,0.0,0.0,0.0,0.0,0.0,0.0,0.0,0.0,0.0,0.0,0.0,0.0,0.0,0.0,0.0,0.0,0.0,0.0,0.0,0.0,0.0,0.0,0.0,0.0,0.0,0.0,0.0,0.0,0.0,0.0,0.0,0.0,0.0,0.0,0.0,0.0,0.0,0.0,0.0,0.0,0.0,0.0,0.0,0.0,0.0,0.0,0.0,0.0,0.0,0.0,0.0,0.0,0.0,0.0,0.0,0.0,0.0,0.0,0.0,0.0,0.0,0.0,0.0,0.0,0.0,0.3737,0.3474,0.0,0.0,0.0,0.0,0.0,0.0,0.0,0.0,0.0,0.0,0.0,0.0,0.0,0.0,0.0,0.0,0.0,0.0,0.0,0.0,0.0,0.0,0.0,0.0,0.0,0.0,0.0,0.0,0.0,0.0,0.0,0.0,0.0,0.0,0.0,0.0,0.0,0.0,0.0,0.0,0.0,0.0,0.0,0.0,0.0,0.0,0.0,0.0,0.0,0.0,0.0,0.0,0.0,0.0,0.0,0.0,0.0,0.0,0.0,0.0,0.0,0.0,0.0,0.0,0.0,0.0,0.0,0.0,0.0,0.0,0.0,0.0,0.0,0.0,0.0,0.0,0.0,0.0,0.0,0.0,0.0,0.0,0.0,0.0,0.0,0.0,0.0,0.0,0.0,0.0,0.0,0.0,0.0,0.0,0.0,0.0,0.0,0.0,0.0,0.0,0.0,0.0,0.0,0.0,0.0,0.0,0.0,0.0,0.0,0.0,0.0,0.0,0.0,0.0,0.436,0.4233,0.0,0.0,0.0,0.0,0.0,0.0,0.0,0.0,0.0,0.0,0.0,0.0,0.0,0.0,0.0,0.0,0.0,0.0,0.0,0.0,0.0,0.0,0.0,0.0,0.0,0.0,0.0,0.0,0.0,0.0,0.0,0.0,0.0,0.0,0.0,0.0,0.0,0.0,0.0,0.0,0.0,0.0,0.0,0.0,0.0,0.0,0.0,0.0,0.0,0.0,0.0,0.0,0.0,0.0,0.0,0.0,0.0,0.0,0.0,0.0,0.0,0.0,0.0,0.0,0.0,0.0,0.0,0.0,0.0,0.0,0.0,0.0,0.0,0.0,0.0,0.0,0.0,0.0,0.0,0.0,0.0,0.0,0.0,0.0,0.0,0.0,0.0,0.0,0.0,0.0,0.0,0.0,0.0,0.0,0.0,0.0,0.0,0.0,0.0,0.0,0.0,0.0,0.0,0.0,0.0,0.0,0.0,0.0,0.4316,0.4517,0.4726,0.5116,0.533,0.5428,0.545,0.545,0.5409,0.458,0.0,0.0,0.0,0.0,0.0,0.0,0.0,0.0,0.0,0.0,0.0,0.0,0.0,0.0,0.0,0.0,0.0,0.0,0.0,0.0,0.0,0.0,-0.6837,-0.5567,-0.6049,-0.6717,0.0,0.0,0.0,0.0,0.0,0.0,0.0,0.0,0.0,0.0,0.0,0.0,-0.3495,-0.3967,-0.3781,-0.3109,-0.4244,0.0,0.0,0.0,0.0,0.0,0.0,0.0,0.0,0.0,0.0,0.0,0.0,0.0,0.0,0.0,0.0,0.0,0.0,0.0,0.0,0.0,0.0,0.0,0.0,0.0,0.0,0.0,0.0,0.0,0.0,0.0,0.0,0.0,0.0,0.0,0.0,0.0,0.0,0.0,0.0,0.0,0.0,0.0,-0.0115,0.0078,0.0,0.0,0.0,0.0,0.0,0.0,0.0,0.0,0.0,0.0,0.0,0.0,0.0,0.4649,0.449,0.4159,0.3894,0.3731,0.3751,0.408,0.4715,0.5658,0.6327,0.6804,0.7566,0.0,0.4903,0.4834,0.0,0.0,0.0,0.0,0.0,0.0,0.0,0.0,0.0,0.0,0.0,0.0,0.0,0.0,0.0,0.0,0.0,0.0,0.0,0.0,0.0,-0.7027,-0.7126,-0.5907,-0.633,-0.6897,-0.7398,0.0,0.0,0.0,0.0,0.0,0.0,0.0,0.0,0.0,-0.4661,-0.3606,-0.3119,-0.2797,-0.2414,-0.2052,-0.2173,-0.2619,-0.3241,-0.3328,0.0,0.0,0.0,0.0,0.0,0.0,0.0,0.0,0.0,0.0,0.0,0.0,0.0,0.0,0.0,0.0,0.0,0.0,0.0,0.0,0.0,0.0,0.0,0.0,0.0,0.0,0.0,0.0,0.0,0.0,0.0,0.0,0.0,0.0,0.0,0.0,0.0,0.0,0.0,-0.0074,-0.0188,-0.0,0.085,0.1408,0.0,0.0,0.0,0.0,0.0,0.0,0.0,0.0,0.0,0.4072,0.3899,0.3705,0.3482,0.3405,0.347,0.3639,0.3611,0.3865,0.4426,0.543,0.6063,0.6416,0.7453,0.7442,0.661,0.6222,0.5995,0.5913,0.0,0.0,0.0,0.0,0.5594,0.5578,0.0,0.0,0.0,0.0,0.0,0.0,0.0,0.0,0.0,0.0,0.0,0.0,-0.652,-0.707,-0.7119,-0.6154,-0.6446,-0.6801,-0.71,-0.7169,0.0,0.0,0.0,0.0,0.0,0.0,0.0,-0.4847,-0.408,-0.3367,-0.2713,-0.1914,-0.1503,-0.1376,-0.111,-0.1637,-0.2669,-0.2514,-0.2061,0.0,0.0,0.0,0.0,0.0,0.0,0.0,0.0,0.0,0.0,0.0,0.0,0.0,0.0,0.0,0.0,0.0,0.0,0.0,0.0,0.0,0.0,0.0,0.0,0.0,0.0,0.0,0.0,0.0,0.0,0.0,0.0,0.0,0.0,0.0,0.0,0.0,0.0,-0.0038,-0.0267,-0.0186,0.0769,0.1345,0.0,0.0,0.0,0.0,0.0,0.0,0.3634,0.3619,0.3563,0.3418,0.3205,0.3062,0.294,0.2968,0.3128,0.3473,0.3591,0.3863,0.4245,0.5315,0.5982,0.6343,0.7456,0.8122,0.8314,0.7521,0.7291,0.732,0.6737,0.6693,0.6862,0.6771,0.6521,0.6357,0.0,0.0,0.0,0.0,0.0,0.0,0.0,0.0,0.0,0.0,0.0,-0.7195,-0.6319,-0.6541,-0.647,-0.5786,-0.6092,-0.6327,-0.6359,-0.6535,-0.641,0.0,0.0,0.0,0.0,0.0,0.0,-0.4707,-0.3351,-0.242,-0.1943,-0.1773,-0.1359,-0.0785,-0.1724,-0.1785,-0.1196,-0.0812,-0.018,0.0463,0.0,0.0,0.0,0.0,0.0,0.0,0.0,0.0,0.0,0.0,0.0,0.0,0.0,0.0,0.0,0.0,0.0,0.0,0.0,0.0,0.0,0.0,0.0,0.0,0.0,0.0,0.0,0.0,0.0,0.0,0.0,0.0,0.0,0.0,0.0,0.0,0.0,0.0,0.0,-0.091,0.0394,0.0,0.0,0.0,0.0,0.1736,0.2628,0.3066,0.2941,0.3598,0.3937,0.3765,0.3431,0.3374,0.3666,0.3062,0.2928,0.3116,0.3666,0.3969,0.4275,0.5779,0.6804,0.7456,0.8603,0.9062,0.9022,0.8326,0.7643,0.7052,0.7116,0.6826,0.6466,0.7294,0.7481,0.7442,0.0,0.0,0.0,0.0,0.0,0.0,0.0,0.0,0.0,-0.7106,-0.7471,-0.7196,-0.5708,-0.6096,-0.6107,-0.5262,-0.5227,-0.5338,-0.5511,-0.5601,-0.6141,0.0,0.0,0.0,0.0,0.0,-0.4341,-0.3744,-0.2761,-0.227,-0.2214,-0.2,-0.1683,-0.1259,-0.1165,-0.0792,-0.017,0.1262,0.1447,0.075,0.0812,0.0483,0.0,0.0,0.0,0.0,0.0,0.0,0.0,0.0,0.0,0.0,0.0,0.0,0.0,0.0,0.0,0.0,0.0,0.0,0.0,0.0,0.0,0.0,0.0,0.0,0.0,0.0,0.0,0.0,0.0,0.0,0.0,0.0,0.0,0.0,0.0,0.0,0.0,-0.0854,0.0291,0.0,0.0525,0.1658,0.2289,0.1976,0.2793,0.3237,0.3046,0.3241,0.33,0.3177,0.2924,0.2763,0.2819,0.2674,0.3015,0.3806,0.3974,0.4342,0.4975,0.5751,0.6337,0.6728,0.7707,0.8203,0.8419,0.8606,0.8593,0.8426,0.8588,0.8502,0.8389,0.9182,0.9386,0.9343,0.0,0.0,0.0,0.0,0.0,0.0,0.0,0.0,0.0,-0.705,-0.7367,-0.7083,-0.5606,-0.5761,-0.5639,-0.4858,-0.4526,-0.441,-0.4487,-0.4578,-0.5425,0.0,0.0,0.0,0.0,-0.4069,-0.3472,-0.2749,-0.2372,-0.224,-0.2347,-0.2186,-0.1975,-0.1691,-0.0693,0.0045,0.0684,0.2578,0.2707,0.1696,0.1642,0.1118,0.0381,0.0,0.0,0.0,0.0,0.0,0.0,0.0,0.0,0.0,0.0,0.0,0.0,0.0,0.0,0.0,0.0,0.0,0.0,0.0,0.0,0.0,0.0,0.0,0.0,0.0,0.0,0.0,0.0,0.0,0.0,0.0,0.0,0.0,0.0,-0.0282,-0.0456,-0.078,0.0318,0.0881,0.0421,0.1726,0.2434,0.2084,0.2675,0.2989,0.2958,0.2988,0.2957,0.293,0.2717,0.255,0.2369,0.2332,0.2677,0.3418,0.3789,0.435,0.4938,0.5612,0.6113,0.6561,0.714,0.7678,0.8175,0.8821,0.9319,0.9597,0.9826,0.9764,0.9687,1.0559,1.0804,1.0644,0.0,0.0,0.0,0.0,0.0,0.0,0.0,0.0,-0.8509,-0.7758,-0.7346,-0.6782,-0.5932,-0.5519,-0.5103,-0.461,-0.4031,-0.3596,-0.3366,-0.3577,-0.4227,0.0,0.0,0.0,-0.3842,-0.2561,-0.1906,-0.1904,-0.2212,-0.2317,-0.2182,-0.233,-0.2247,-0.1979,-0.0527,0.0505,0.129,0.2955,0.3597,0.3396,0.2045,0.2075,0.2613,0.0,0.0,0.0,0.0,0.0,0.0,0.0,0.0,0.0,0.0,0.0,0.0,0.0,0.0,0.0,0.0,0.0,0.0,0.0,0.0,0.0,0.0,0.0,0.0,0.0,0.0,0.0,0.0,0.0,0.0,0.0,0.0,0.0,-0.0956,-0.0499,-0.037,-0.0868,0.0286,0.0965,0.0454,0.1372,0.1978,0.204,0.2223,0.2424,0.2602,0.2852,0.3046,0.3085,0.2914,0.2702,0.2516,0.2121,0.1882,0.1949,0.3218,0.3882,0.4071,0.5282,0.6346,0.7125,0.7129,0.759,0.8382,0.9046,0.971,1.0407,1.0711,1.0531,1.0199,1.1408,1.1648,1.1259,0.0,0.0,0.0,0.0,0.0,0.0,0.0,-0.7899,-0.7813,-0.688,-0.7123,-0.6652,-0.4737,-0.5018,-0.4996,-0.4087,-0.3829,-0.3881,-0.4282,-0.4239,-0.4211,0.0,0.0,0.0,-0.2189,-0.205,-0.1965,-0.1968,-0.1922,-0.193,-0.1997,-0.2256,-0.2449,-0.245,-0.1585,-0.0484,0.0823,0.2447,0.3471,0.4066,0.3961,0.3712,0.3297,0.0,0.0,0.0,0.0,0.0,0.0,0.0,0.0,0.0,0.0,0.0,0.0,0.0,0.0,0.0,0.0,0.0,0.0,0.0,0.0,0.0,0.0,0.0,0.0,0.0,0.0,0.0,0.0,0.0,0.0,0.0,-0.1064,-0.1302,-0.1529,-0.165,-0.1834,-0.2119,-0.1143,-0.0261,0.0257,0.1041,0.1709,0.2236,0.2447,0.2583,0.2694,0.2987,0.3013,0.2739,0.2577,0.2397,0.2127,0.1884,0.215,0.2925,0.3316,0.3857,0.4603,0.4866,0.5163,0.5638,0.6014,0.6497,0.7125,0.8374,0.9244,0.989,1.0814,1.1441,1.1892,1.2636,1.2557,1.1935,0.0,0.0,0.0,0.0,0.0,0.0,0.0,-0.8082,-0.7829,-0.6461,-0.6699,-0.6223,-0.4135,-0.4382,-0.4396,-0.3646,-0.4115,-0.4466,-0.4495,-0.4988,0.0,0.0,0.0,-0.2957,-0.15,-0.1662,-0.1807,-0.1817,-0.1685,-0.172,-0.1906,-0.2057,-0.2419,-0.2896,-0.2003,-0.105,-0.0,0.1509,0.2638,0.3405,0.4343,0.4713,0.4617,0.3859,0.2783,0.168,0.1808,0.1506,0.1147,0.1808,0.0,0.0,0.0,0.0,0.0,0.0,0.0,0.0,0.0,0.0,0.0,0.0,0.0,0.0,0.0,0.0,0.0,0.0,0.0,0.0,0.0,0.0,0.0,0.0,-0.1606,-0.1994,-0.2251,-0.2219,-0.2266,-0.2291,-0.1462,-0.0739,-0.0336,0.1076,0.2087,0.2424,0.2622,0.2739,0.2772,0.2939,0.2925,0.2754,0.2615,0.2356,0.1968,0.1837,0.2072,0.265,0.2939,0.3416,0.4128,0.426,0.4567,0.5004,0.525,0.5882,0.6755,0.8094,0.9038,0.9858,0.0,0.0,0.0,0.0,1.2589,1.1949,0.0,0.0,0.0,0.0,0.0,0.0,0.0,-0.8312,-0.8005,-0.619,-0.6068,-0.5518,-0.3902,-0.3676,-0.3564,-0.3342,-0.4547,-0.5032,-0.431,0.0,0.0,-0.2818,-0.3404,-0.3055,-0.1492,-0.1496,-0.1565,-0.1642,-0.1514,-0.1628,-0.189,-0.1754,-0.2189,-0.3081,-0.2053,-0.143,-0.1012,0.0488,0.1413,0.2081,0.369,0.5022,0.6002,0.4751,0.3917,0.334,0.2963,0.2388,0.1859,0.2603,0.0,0.0,0.0,0.0,0.0,0.0,0.0,0.0,0.0,0.0,0.0,0.0,0.0,0.0,0.0,0.0,0.0,0.0,0.0,0.0,0.0,0.0,0.0,0.0,-0.2021,-0.2686,-0.277,-0.246,-0.2223,-0.2079,-0.141,-0.1005,-0.1004,0.1141,0.2488,0.248,0.2618,0.2723,0.272,0.2772,0.0,0.0,0.0,0.2489,0.1883,0.189,0.1839,0.1735,0.2239,0.2743,0.3204,0.3578,0.4137,0.4817,0.4727,0.541,0.6661,0.7752,0.8908,1.0147,1.1665,1.2437,1.2671,1.2591,1.2189,1.1432,0.0,0.0,0.0,0.0,0.0,0.0,0.0,-0.713,-0.6681,-0.5239,-0.5177,-0.4724,-0.3304,-0.3249,-0.331,-0.3373,-0.3998,-0.4466,0.0,0.0,-0.3317,-0.2886,-0.22,-0.1836,-0.1812,-0.165,-0.1725,-0.2014,-0.1514,-0.1496,-0.1979,-0.166,-0.1778,-0.2184,-0.2721,-0.2489,-0.1625,-0.023,0.0881,0.1712,0.2734,0.4134,0.5679,0.5986,0.5876,0.5604,0.569,0.4867,0.372,0.3508,0.3089,0.2519,0.1925,0.0,0.0,0.0,0.0,0.0,0.0,0.0,0.0,0.0,0.0,0.0,0.0,0.0,0.0,0.0,0.0,0.0,0.0,0.0,0.0,-0.185,-0.2332,-0.2513,-0.2125,-0.273,-0.3135,-0.2956,-0.2822,-0.2063,-0.0455,-0.0,0.0733,0.2215,0.2458,0.2552,0.2471,0.2613,0.2548,0.2353,0.241,0.2275,0.1884,0.1788,0.1895,0.211,0.1954,0.0,0.2962,0.2799,0.3159,0.386,0.3846,0.4288,0.5118,0.6194,0.8199,1.0739,1.253,1.3203,1.3141,1.3114,1.2155,1.0688,0.0,0.0,0.0,0.0,0.0,0.0,0.0,-0.7113,-0.6764,-0.511,-0.496,-0.4569,-0.3423,-0.3206,-0.3418,-0.4088,-0.4423,0.0,0.0,-0.3794,-0.2581,-0.2212,-0.1591,-0.1552,-0.217,-0.1826,-0.1823,-0.2211,-0.1613,-0.1556,-0.2004,-0.1572,-0.1647,-0.2146,-0.2627,-0.2568,-0.2172,-0.152,-0.066,0.0376,0.1376,0.2649,0.408,0.5258,0.599,0.6371,0.5969,0.5462,0.4868,0.3878,0.3225,0.2711,0.204,0.2068,0.2086,0.0,0.0,0.0,0.0,0.0,0.0,0.0,0.0,0.0,0.0,0.0,0.0,0.0,0.0,0.0153,-0.0158,0.0,-0.129,-0.131,-0.2194,-0.2775,-0.2482,-0.3355,-0.3689,-0.2753,-0.3159,-0.2725,-0.0645,0.0196,0.104,0.2085,0.24,0.2505,0.2374,0.2569,0.2601,0.2469,0.2506,0.2421,0.2085,0.1978,0.1951,0.1934,0.1991,0.2171,0.2523,0.2571,0.2849,0.329,0.3089,0.3151,0.361,0.5782,0.8202,1.0845,1.2617,1.3262,1.3084,1.2582,1.1481,1.0067,0.0,0.0,0.0,0.0,0.0,0.0,0.0,0.0,-0.6647,-0.4969,-0.4871,-0.4572,-0.3577,-0.3471,-0.3986,-0.5239,-0.4991,0.0,0.0,-0.364,-0.1997,-0.1352,-0.1287,-0.163,-0.2397,-0.1949,-0.1894,-0.2338,-0.178,-0.1699,-0.2051,-0.1658,-0.1823,-0.2442,-0.2478,-0.2574,-0.2741,-0.283,-0.2308,-0.1327,-0.0319,0.0779,0.2043,0.3413,0.4862,0.6183,0.5601,0.5432,0.5292,0.3964,0.3219,0.28,0.2089,0.1785,0.144,-0.0123,-0.0506,0.0,0.0,0.0,0.0,0.0,0.0,0.0,0.0,-0.0049,0.025,0.0659,0.0471,0.033,0.0592,-0.0361,-0.1052,-0.0731,-0.2082,-0.3092,-0.3023,-0.3806,-0.3855,-0.2394,-0.2865,-0.2696,-0.1079,0.0509,0.1515,0.1653,0.1948,0.2116,0.2063,0.2436,0.2701,0.2707,0.2666,0.2433,0.2154,0.2232,0.2072,0.1755,0.2157,0.2354,0.234,0.2551,0.2738,0.284,0.215,0.1906,0.2125,0.5287,0.8145,1.0696,1.2545,1.3553,1.3784,1.2527,1.1196,0.9665,0.0,0.0,0.0,0.0,0.0,0.0,0.0,0.0,0.0,-0.3945,-0.4425,-0.4361,-0.3118,-0.4111,-0.5436,-0.6818,0.0,0.0,-0.4569,-0.2241,-0.0794,-0.0699,-0.1193,-0.1678,-0.2138,-0.1851,-0.196,-0.2477,-0.1876,-0.1834,-0.2359,-0.2123,-0.2234,-0.269,-0.2924,-0.3243,-0.3663,-0.3411,-0.3322,-0.3261,-0.2759,-0.1476,0.0192,0.0602,0.2296,0.4722,0.6117,0.5823,0.4611,0.3842,0.2999,0.2147,0.1756,0.0771,-0.0277,-0.0805,0.0,-0.2252,-0.2757,-0.2601,-0.2336,-0.2503,-0.2157,-0.1782,0.0,-0.1344,-0.0762,-0.0927,-0.0768,-0.039,0.0256,-0.013,-0.0731,-0.1343,-0.2217,-0.282,-0.2956,-0.3414,-0.3485,-0.2772,-0.2128,-0.1579,-0.1253,-0.0366,0.0306,0.0475,0.0488,0.0627,0.0964,0.1939,0.2496,0.2501,0.2348,0.214,0.1952,0.2273,0.2269,0.1876,0.24,0.2739,0.2878,0.2744,0.2567,0.2308,0.0669,0.0178,0.0647,0.3644,0.6954,1.0286,1.2639,1.5041,1.6895,1.474,1.2257,0.9819,0.0,0.0,0.0,0.0,0.0,0.0,0.0,0.0,0.0,0.0,-0.4472,-0.4658,-0.4602,-0.597,-0.7175,0.0,0.0,0.0,-0.5113,-0.2303,-0.0853,-0.1399,-0.1651,-0.2044,-0.26,-0.2331,-0.2398,-0.2841,-0.2142,-0.1964,-0.2355,-0.2177,-0.2348,-0.2813,-0.31,-0.3451,-0.3808,-0.4164,-0.403,-0.3704,-0.3498,-0.2561,-0.118,-0.0117,0.0631,0.1214,0.235,0.2221,0.0,0.0,0.0494,0.0236,0.0426,-0.0183,-0.1157,-0.2135,-0.2517,-0.2679,-0.2605,-0.2783,-0.308,-0.3425,-0.297,-0.2516,-0.2886,-0.1885,-0.0813,-0.0769,-0.0132,0.0335,0.0331,-0.0533,-0.1275,-0.141,-0.2381,-0.3142,-0.334,-0.3639,-0.3709,-0.3339,-0.2789,-0.2071,-0.1116,-0.0476,-0.0178,-0.0286,0.012,0.0496,0.0815,0.1687,0.2458,0.3088,0.2832,0.2764,0.282,0.2969,0.2556,0.1748,0.2515,0.2649,0.2218,0.245,0.2075,0.128,-0.0828,-0.1535,-0.0842,0.38,0.6934,0.9288,1.4547,1.7367,1.8168,1.5203,1.2643,1.0282,0.0,0.0,0.0,0.0,0.0,0.0,0.0,0.0,0.0,0.0,0.0,-0.5226,-0.6036,-0.7204,-0.8048,0.0,0.0,0.0,0.0,-0.2768,-0.1292,-0.1584,-0.1738,-0.2112,-0.2734,-0.2509,-0.2636,-0.3167,-0.2411,-0.2213,-0.2449,-0.2335,-0.2475,-0.2934,-0.3254,-0.3658,-0.4133,-0.4611,-0.4562,-0.4116,-0.4005,-0.3418,-0.2466,-0.1147,-0.1392,-0.2274,-0.1077,-0.1183,0.0,0.0,-0.261,-0.2361,-0.157,-0.1867,-0.2754,-0.3751,-0.4002,-0.3802,-0.3242,-0.3363,-0.3796,-0.4204,-0.3635,-0.3111,-0.3448,-0.2397,-0.1249,-0.1044,-0.0529,-0.0134,-0.0399,-0.1657,-0.2449,-0.1724,-0.2652,-0.3563,-0.3719,-0.3979,-0.4059,-0.4047,-0.3514,-0.2736,-0.1731,-0.1208,-0.0911,-0.1007,-0.0409,0.0121,0.0492,0.1284,0.2323,0.3391,0.3255,0.3336,0.3635,0.3781,0.3362,0.2336,0.3067,0.3137,0.2607,0.2347,0.1571,0.0319,-0.1811,-0.2674,-0.2073,0.4289,0.7573,0.9175,1.6284,1.9393,1.9437,1.609,1.3434,1.0993,0.0,0.0,0.0,0.0,0.0,0.0,0.0,0.0,0.0,0.0,0.0,0.0,0.0,0.0,-0.7549,0.0,0.0,0.0,0.0,-0.3452,-0.202,-0.0614,-0.1047,-0.1568,-0.2108,-0.2124,-0.2499,-0.329,-0.2739,-0.2614,-0.2867,-0.2753,-0.2762,-0.2929,-0.3457,-0.4108,-0.4831,-0.4678,-0.4746,-0.4923,-0.4747,-0.4251,-0.3509,-0.3305,-0.4149,-0.5162,-0.2737,0.0,0.0,-0.5786,-0.5971,-0.5602,-0.4213,-0.4657,0.0,-0.5647,-0.6072,-0.644,-0.5686,-0.5116,-0.4789,-0.4857,-0.4186,-0.3439,-0.3399,-0.2931,-0.2493,-0.2427,-0.2743,-0.2985,-0.2661,-0.3862,-0.4304,-0.2581,-0.3078,-0.3791,-0.4152,-0.433,-0.4571,-0.5027,-0.3817,-0.3179,-0.3677,-0.2936,-0.2271,-0.1786,-0.1569,-0.1154,-0.0614,0.074,0.2056,0.314,0.3354,0.3534,0.3907,0.4563,0.4637,0.4128,0.445,0.481,0.5203,0.2725,0.0953,-0.0251,-0.1974,-0.3007,-0.2954,0.484,0.8785,1.0614,1.7323,2.0743,2.1392,1.799,1.4953,1.2104,0.0,0.0,0.0,0.0,0.0,0.0,0.0,0.0,0.0,0.0,0.0,0.0,0.0,0.0,0.0,0.0,0.0,0.0,0.0,-0.4337,-0.27,-0.2122,-0.1924,-0.1781,-0.163,-0.2066,-0.2416,-0.2638,-0.2145,-0.191,-0.1895,-0.2141,-0.2246,-0.2263,-0.2836,-0.3345,-0.3798,-0.3946,-0.4124,-0.4264,-0.4481,-0.4531,-0.4491,-0.4623,-0.5544,-0.6624,0.0,0.0,-0.8071,-0.7359,-0.7049,-0.6738,-0.5521,-0.567,-0.6411,-0.7245,-0.6973,-0.6343,-0.6113,-0.5636,-0.5169,-0.5034,-0.424,-0.3688,-0.4293,-0.3893,-0.3382,-0.3425,-0.4099,-0.4458,-0.3607,-0.4307,-0.4643,-0.3564,-0.3605,-0.3967,-0.4568,-0.4797,-0.4887,-0.4953,-0.4811,-0.457,-0.4097,-0.2774,-0.2053,-0.2504,-0.1944,-0.1535,-0.1475,0.0065,0.1563,0.2785,0.3469,0.4106,0.4792,0.5009,0.4776,0.3991,0.3885,0.3625,0.3241,0.1573,0.0253,-0.0803,-0.2381,-0.2908,-0.1999,0.6503,1.0339,1.1571,1.9153,2.1842,2.103,1.7625,1.4948,1.2562,0.0,0.0,0.0,0.0,0.0,0.0,0.0,0.0,0.0,0.0,0.0,0.0,0.0,0.0,0.0,0.0,0.0,-0.7745,0.0,0.0,-0.43,-0.3716,-0.3437,-0.3257,-0.3144,-0.2356,-0.2035,-0.2231,-0.1069,-0.0428,-0.0307,-0.094,-0.1356,-0.1551,-0.1939,-0.2433,-0.3039,-0.3913,-0.4211,-0.4085,-0.5106,-0.5366,-0.5202,-0.5715,-0.657,0.0,0.0,0.0,-0.9528,-0.8393,-0.7961,-0.7726,-0.6896,-0.6951,-0.7416,-0.7991,-0.7602,-0.6924,-0.669,-0.6154,-0.5642,-0.5352,-0.4564,-0.3923,-0.4212,-0.3818,-0.3461,-0.3523,-0.4505,-0.5108,-0.4292,-0.4758,-0.5164,-0.4767,-0.4787,-0.4956,-0.5254,-0.5881,-0.614,-0.5462,-0.5729,-0.5678,-0.4916,-0.3326,-0.2609,-0.3174,-0.2828,-0.2268,-0.1561,-0.0,0.1689,0.3503,0.4659,0.5622,0.6324,0.632,0.5656,0.4272,0.458,0.3931,0.2487,0.1839,0.0703,-0.0804,-0.2164,-0.232,-0.1104,0.6618,1.0505,1.2302,1.9105,2.1287,2.0229,1.7024,1.4583,1.2352,0.0,0.0,0.0,0.0,0.0,0.0,0.0,0.0,0.0,0.0,0.0,0.0,0.0,0.0,0.0,0.0,0.0,0.0,0.0,0.0,0.0,-0.524,-0.5398,-0.566,-0.5962,-0.277,-0.131,-0.1772,0.0516,0.1708,0.1816,0.0789,-0.0,-0.0619,-0.0621,-0.1235,-0.239,-0.4346,-0.4728,-0.4169,-0.6435,-0.6669,-0.5745,-0.6536,0.0,0.0,0.0,0.0,-0.9379,-0.8949,-0.876,-0.8627,-0.8181,-0.8347,-0.8601,-0.7899,-0.7974,-0.817,-0.7417,-0.6771,-0.6217,-0.5795,-0.5023,-0.4212,-0.3264,-0.2993,-0.296,-0.2907,-0.4089,-0.508,-0.4808,-0.5325,-0.5877,-0.6074,-0.6422,-0.655,-0.6068,-0.7488,-0.7973,-0.6502,-0.6487,-0.6504,-0.6096,-0.4758,-0.3869,-0.3764,-0.3972,-0.3143,-0.09,0.0543,0.2571,0.5253,0.6818,0.7873,0.8214,0.8344,0.7319,0.5057,0.6511,0.5694,0.3023,0.3407,0.2217,-0.0314,-0.132,-0.1351,-0.0232,0.5427,0.9582,1.2813,1.7303,1.9177,1.8946,1.6165,1.3729,1.1552,0.0,0.0,0.0,0.0,0.0,0.0,0.0,0.0,0.0,0.0,0.0,0.0,0.0,0.0,0.0,0.0,0.0,0.0,0.0,0.0,0.0,0.0,0.0,0.0,0.0,0.0,0.0,0.2673,0.3286,0.3677,0.3856,0.3476,0.3293,0.3266,0.3058,0.2756,0.2203,-0.084,-0.1693,-0.1331,0.0,-0.6545,-0.6551,0.0,0.0,0.0,0.0,0.0,-0.8752,-0.8664,-0.8773,-0.8695,-0.7406,-0.7355,-0.7722,-0.747,-0.7265,-0.7074,-0.715,-0.707,-0.6742,-0.563,-0.5104,-0.4599,-0.3735,-0.3544,-0.3623,-0.3922,-0.4985,-0.5788,-0.5689,-0.5691,-0.5803,-0.6042,-0.5727,-0.5535,-0.5725,-0.7072,-0.7549,-0.6418,-0.6983,-0.7249,-0.6851,-0.6272,-0.5179,-0.3501,-0.2016,-0.1099,-0.0858,0.2397,0.464,0.5593,0.7654,0.9035,0.9588,0.8967,0.777,0.6064,0.6654,0.5723,0.3353,0.3673,0.2137,-0.0865,-0.2502,-0.1543,0.1662,0.768,1.0681,1.1986,1.6756,1.7168,1.4867,1.2442,1.1359,1.1002,0.0,0.0,0.0,0.0,0.0,0.0,0.0,0.0,0.0,0.0,0.0,0.0,0.0,0.0,0.0,0.0,0.0,0.0,0.0,0.0,0.0,0.0,0.0,0.0,0.0,0.0,0.0,0.0,0.0,0.0,0.6159,0.5477,0.4329,0.2881,0.3216,0.2433,0.0682,-0.188,0.0,0.0,0.0,0.0,0.0,0.0,0.0,0.0,0.0,0.0,0.0,0.0,-0.7541,-0.787,-0.7277,-0.7476,-0.795,-0.7719,-0.7594,-0.7531,-0.7229,-0.73,-0.7143,-0.5718,-0.5485,-0.5323,-0.4137,-0.3883,-0.4011,-0.4466,-0.5119,-0.5821,-0.6272,-0.5889,-0.5778,-0.6694,-0.6153,-0.5681,-0.5833,-0.7175,-0.7682,-0.6391,-0.7089,-0.7492,-0.7068,-0.6387,-0.5026,-0.2898,-0.1471,-0.0068,0.151,0.5334,0.7347,0.719,0.9675,1.0906,1.0647,0.9291,0.8482,0.8112,0.7603,0.6685,0.5568,0.5074,0.3312,0.0499,-0.057,0.0566,0.3432,0.7784,1.0217,1.1624,1.4974,1.5074,1.3042,1.1145,1.0335,1.0216,0.0,0.0,0.0,0.0,0.0,0.0,0.0,0.0,0.0,0.0,0.0,0.0,0.0,0.0,0.0,0.0,0.0,0.0,0.0,0.0,0.0,0.0,0.0,0.0,0.0,0.0,0.0,0.0,0.0,0.0,0.0,0.0,0.0,0.0,0.0,0.0,0.0,0.0,0.0,0.0,0.0,0.0,0.0,0.0,0.0,0.0,0.0,0.0,0.0,0.0,-0.6043,-0.6861,-0.7306,-0.7948,-0.8469,-0.8062,-0.827,-0.8475,-0.7466,-0.7468,-0.7395,-0.5884,-0.5861,-0.5844,-0.447,-0.4035,-0.4111,-0.4726,-0.5055,-0.5548,-0.6694,-0.6118,-0.5938,-0.7431,-0.6908,-0.6186,-0.5867,-0.7281,-0.7787,-0.6145,-0.6854,-0.7335,-0.6811,-0.562,-0.3994,-0.2013,-0.0842,0.1412,0.5065,0.8968,1.0742,0.9798,1.1979,1.2485,1.1134,0.9665,0.949,1.0536,0.8767,0.8184,0.8429,0.7003,0.5045,0.2806,0.3086,0.4015,0.5388,0.7587,0.9649,1.1488,1.3016,1.2873,1.1796,1.0629,0.975,0.9122,0.0,0.0,0.0,0.0,0.0,0.0,0.0,0.0,0.0,0.0,-0.0498,-0.0376,0.0,0.0,0.0,0.0,0.0,0.0,0.0,0.0,0.0,0.0,0.0,0.0,0.0,0.3654,0.4979,0.7255,0.8195,0.0,0.0,0.0,0.0,0.0,0.0,0.0,0.0,0.0,0.0,0.0,0.0,0.0,0.0,0.0,0.0,0.0,0.0,0.0,0.0,0.0,-0.6331,-0.7141,-0.6457,-0.6874,-0.756,-0.7079,-0.74,-0.7934,-0.7586,-0.7451,-0.7212,-0.6523,-0.5835,-0.514,-0.4555,-0.3934,-0.3912,-0.5334,-0.5695,-0.6082,-0.7198,-0.7052,-0.6803,-0.6946,-0.6265,-0.5553,-0.4931,-0.5997,-0.6382,-0.5325,-0.586,-0.6342,-0.6276,-0.4481,-0.2496,-0.0355,0.4148,0.7077,0.7696,1.2966,1.5317,1.3897,1.2777,1.1471,1.0055,1.0403,1.1009,1.1767,0.946,0.8965,0.9871,0.8452,0.6306,0.3814,0.6435,0.7795,0.8305,1.1456,1.2095,1.1315,1.2848,1.0724,0.6952,0.7416,0.7442,0.7375,0.0,0.0,0.0,0.0,0.0,0.0,0.0,0.1587,0.1475,0.2547,0.2525,0.2135,0.148,0.2188,0.2553,0.0,0.0,0.0,0.0,0.0,0.0,0.0,0.0,0.0,0.0,0.4578,0.5925,0.8539,0.0,0.8883,0.7465,0.8657,0.7882,0.5514,0.5731,0.4557,0.0,0.0,0.0,0.0,-0.2162,0.0,0.0,0.0,0.0,0.0,0.0,0.0,0.0,0.0,-0.5669,-0.6293,-0.6207,-0.6755,-0.73,-0.6806,-0.701,-0.7236,-0.6727,-0.6541,-0.6241,-0.5447,-0.508,-0.4823,-0.4229,-0.3907,-0.4095,-0.5356,-0.5632,-0.5942,-0.6921,-0.6848,-0.6619,-0.6626,-0.6006,-0.5368,-0.4899,-0.5481,-0.573,-0.528,-0.5975,-0.6478,-0.628,-0.4024,-0.1817,0.0072,0.544,0.9361,1.0902,1.5515,1.8369,1.8963,1.4804,1.1828,1.0262,1.0117,1.0724,1.2079,1.1367,1.1859,1.3429,1.1317,0.9384,0.7706,0.9169,1.0268,1.1221,1.3396,1.2732,1.0396,1.1805,0.964,0.5832,0.659,0.6728,0.6639,0.0,0.0,0.0,0.0,0.0,0.0,0.0,0.3998,0.4094,0.4796,0.473,0.4193,0.3112,0.4246,0.5095,0.0,0.0,0.0,0.0,0.0,0.0,0.0,0.0,0.0,0.0,0.0,0.0,0.8643,0.9508,0.0,0.0,0.0,0.0,0.0,0.4085,0.267,0.0039,-0.0381,0.0,0.0,0.0,-0.0543,0.0,0.0,0.0,0.0,0.0,0.0,0.0,0.0,-0.4913,-0.5382,-0.6005,-0.6677,-0.7234,-0.6928,-0.6989,-0.701,-0.6254,-0.5875,-0.538,-0.4602,-0.4379,-0.4173,-0.3764,-0.3632,-0.3894,-0.5142,-0.5305,-0.5538,-0.6514,-0.642,-0.6237,-0.6341,-0.5769,-0.513,-0.4599,-0.498,-0.528,-0.5211,-0.6274,-0.7067,-0.6953,-0.4111,-0.1285,0.0807,0.7614,1.2666,1.5022,1.7972,2.0549,2.2586,1.6648,1.2411,1.0242,0.9616,1.0271,1.2184,1.3004,1.482,1.7255,1.3978,1.2012,1.1165,1.136,1.203,1.3041,1.4289,1.3033,1.0276,1.0705,0.8827,0.5959,0.6595,0.6839,0.713,0.0,0.0,0.0,0.0,0.0,0.0,0.0,0.3125,0.2852,0.4346,0.4584,0.4506,0.4267,0.4745,0.5101,0.0,0.0,0.0,0.0,0.0,0.0,0.0,0.0,0.0,0.0,0.0,0.0,0.6482,0.7837,0.0,0.0,0.0,0.0,0.0,0.0,0.4034,0.2521,0.1826,0.0,0.0,0.0,0.0,0.0,0.0,0.0,0.0,0.0,0.0,0.0,0.0,0.0,-0.5225,-0.5432,-0.6134,-0.6956,-0.7379,-0.7598,-0.7708,-0.7692,-0.6491,-0.5306,-0.5523,-0.4134,-0.2888,-0.3454,-0.2866,-0.2713,-0.4567,-0.4808,-0.5094,-0.6454,-0.6437,-0.6135,-0.5879,-0.5454,-0.4525,-0.281,-0.3844,-0.4678,-0.4515,-0.6347,-0.796,-0.8773,-0.4813,-0.0601,0.3202,1.4578,2.1056,2.0411,2.1363,2.2118,2.2607,1.7159,1.2447,0.8735,0.933,1.0576,1.2467,1.3352,1.6131,2.0333,1.5423,1.2516,1.1353,1.284,1.3083,1.2503,1.4277,1.4017,1.2346,1.0056,0.7896,0.6144,0.6534,0.7777,0.9486,0.0,0.0,0.0,0.0,0.0,0.0,0.3353,0.3117,0.3121,0.4136,0.4141,0.4146,0.4379,0.457,0.4682,0.4679,0.0,0.0,0.0,0.0,0.0,0.0,0.0,0.0,0.0,0.0,0.8559,0.7409,0.8249,0.0,0.0,0.0,0.0,0.0,0.0,0.4893,0.4359,0.3542,0.0,0.0,0.0,0.0,0.0,0.0,0.0,0.0,0.0,0.0,-0.2938,-0.3655,0.0,0.0,-0.5257,-0.5662,0.0,0.0,-0.5936,-0.5926,-0.6169,-0.4927,-0.3551,-0.3749,-0.2851,-0.1845,-0.1898,-0.2111,-0.2598,-0.3714,-0.4323,-0.4922,-0.5699,-0.6161,-0.6266,-0.5706,-0.5345,-0.4871,-0.4087,-0.3633,-0.4182,-0.6297,-0.487,-0.4578,-0.6766,-0.2168,0.274,0.7118,1.4183,1.9139,2.1159,2.4007,2.5844,2.6438,2.1824,1.6895,1.1724,1.179,1.2003,1.2343,1.4524,1.7403,2.0748,1.6712,1.4441,1.3557,1.2334,1.202,1.2419,1.2604,1.2142,1.1232,0.9388,0.8417,0.8171,0.9346,1.0392,1.1648,0.0,0.0,0.0,0.0,0.0,0.2825,0.3095,0.3226,0.342,0.381,0.3757,0.3784,0.4078,0.4151,0.4202,0.4216,0.4442,0.0,0.0,0.0,0.0,0.0,0.0,0.0,0.0,0.0,0.8077,0.7734,0.8259,0.7786,0.0,0.0,0.7075,0.6455,0.0,0.0,0.0,0.0,0.0,0.0,0.0,0.0,0.0,0.0,0.0,0.0,0.0,0.0,0.0,0.0,0.0,0.0,0.0,0.0,0.0,0.0,-0.4908,-0.4776,-0.5196,-0.3973,-0.2468,-0.2249,-0.163,-0.0962,-0.0645,-0.1341,-0.2192,-0.2937,-0.3842,-0.462,-0.5214,-0.5948,-0.6296,-0.5637,-0.5492,-0.5174,-0.4383,-0.345,-0.3676,-0.6052,-0.3653,-0.2791,-0.5252,0.0133,0.5783,1.0686,1.4878,1.874,2.2199,2.5814,2.8004,2.8504,2.4585,1.9949,1.4651,1.4534,1.4201,1.3593,1.6764,1.9508,2.1743,1.7858,1.5678,1.4654,1.1421,1.0384,1.0966,1.0981,1.0821,1.0448,0.936,0.9631,1.0744,1.1764,1.3223,1.4998,0.0,0.0,0.0,0.0,0.0,0.0,0.2976,0.3289,0.3447,0.3318,0.3479,0.3555,0.3414,0.3583,0.3742,0.3802,0.4229,0.0,0.0,0.0,0.0,0.0,0.0,0.0,0.0,0.0,0.7148,0.6617,0.7289,0.7265,0.6582,0.654,0.6336,0.5991,0.0,0.0,0.0,0.0,0.0,0.0,0.0,0.0,0.0,0.0,0.0,0.0,0.0,0.0,0.0,0.0,0.0,0.0,0.0,0.0,0.0,0.0,-0.513,-0.494,-0.5548,-0.4308,-0.2651,-0.1467,-0.0708,-0.0198,-0.0137,-0.046,-0.1171,-0.2374,-0.3305,-0.4215,-0.511,-0.5798,-0.6093,-0.5766,-0.5847,-0.5154,-0.2667,-0.3069,-0.3276,-0.2445,-0.3025,-0.3968,-0.5184,0.1276,0.7847,1.3335,1.8546,2.2358,2.456,2.6595,2.7612,2.7412,2.3825,2.0147,1.6531,1.706,1.7127,1.6796,2.0288,2.2702,2.3986,1.8917,1.5642,1.3827,1.0417,0.8366,0.7613,0.9762,1.0774,1.0947,1.0197,1.1424,1.3614,1.3154,1.6036,1.9876,0.0,0.0,0.0,0.0,0.0,0.0,0.0,0.3023,0.3173,0.3225,0.3332,0.3432,0.3525,0.3547,0.3798,0.436,0.4255,0.0,0.0,0.0,0.0,0.0,0.0,0.0,0.0,0.0,0.6557,0.6393,0.6564,0.6606,0.6519,0.6278,0.6165,0.6189,0.5641,0.53,0.0,0.0,0.0,0.0,0.0,0.0,0.0,0.0,0.0,0.0,0.0,0.0,0.0,0.0,0.0,0.0,0.0,0.0,0.0,0.0,0.0,-0.4343,-0.4686,-0.3601,-0.2227,-0.1799,-0.1315,-0.0759,0.0045,-0.0775,-0.1706,-0.1815,-0.3089,-0.4267,-0.4612,-0.5445,-0.5766,-0.4904,-0.4836,-0.4308,-0.265,-0.0279,0.0843,-0.0451,-0.0723,-0.0726,-0.0418,0.2845,0.7396,1.3322,1.6782,2.0426,2.4539,2.5293,2.6196,2.7504,2.633,2.4174,2.1084,2.0904,2.0326,1.9331,2.0527,2.1349,2.1662,1.707,1.4243,1.2764,0.8466,0.7505,0.8994,0.9916,1.1457,1.3186,1.3429,1.4782,1.6678,1.7749,1.9807,2.182,0.0,0.0,0.0,0.0,0.0,0.0,0.0,0.3117,0.31,0.3186,0.328,0.3391,0.3547,0.36,0.3867,0.4495,0.43,0.0,0.0,0.0,0.0,0.0,0.0,0.0,0.0,0.5536,0.5888,0.6159,0.6195,0.6242,0.6359,0.6207,0.6129,0.6063,0.5726,0.5444,0.0,0.0,0.0,0.0,0.0,0.0,0.3317,0.0,0.0,0.0,0.0,0.0,0.0,0.0,0.0,0.0,0.0,0.0,0.0,0.0,-0.3669,-0.373,0.0,-0.3163,-0.1929,-0.1443,-0.1035,-0.0505,0.051,-0.0364,-0.1327,-0.1114,-0.247,-0.3779,-0.3868,-0.4843,-0.535,-0.4382,-0.4347,-0.3767,-0.1652,0.1275,0.306,0.2739,0.1974,0.1584,0.1907,0.345,0.6786,1.2505,1.603,2.0007,2.4717,2.4957,2.5648,2.7113,2.6863,2.5888,2.4118,2.4088,2.3455,2.2256,2.2391,2.2005,2.0948,1.6378,1.4025,1.3232,0.8593,0.7752,0.0,1.0184,1.1933,1.4419,1.4838,1.6624,1.9166,2.037,2.1889,2.3081,0.0,0.0,0.0,0.0,0.0,0.0,0.0,0.3496,0.3264,0.3264,0.3411,0.3537,0.3598,0.3781,0.4029,0.437,0.0,0.0,0.0,0.0,0.0,0.0,0.0,0.0,0.0,0.4971,0.5214,0.5837,0.604,0.6106,0.605,0.6242,0.6106,0.5686,0.5681,0.5511,0.0,0.0,0.0,0.0,0.0,0.0,0.0,0.0,0.0,0.0,0.0,0.0,0.0,0.0,0.0,0.0,0.0,0.0,0.0,0.0,0.0,0.0,0.0,-0.2981,-0.1775,-0.0663,-0.0172,0.029,0.1072,0.0528,0.0,-0.0168,-0.1552,-0.2747,-0.2874,-0.4057,-0.4774,-0.4132,-0.4299,-0.3293,0.0184,0.2235,0.4244,0.6544,0.4705,0.2873,0.1815,0.3155,0.6108,1.0943,1.6196,2.092,2.4937,2.5377,2.5857,2.646,2.5954,2.562,2.5648,2.6421,2.6191,2.5022,2.5136,2.3865,2.1253,1.6449,1.4495,1.463,1.006,0.8839,1.0095,1.076,1.2568,1.4897,1.5008,1.7461,2.0915,2.1332,2.2556,2.3719,0.0,0.0,0.0,0.0,0.0,0.0,0.0,0.0,0.0,0.0,0.4317,0.463,0.4642,0.4688,0.4894,0.0,0.0,0.0,0.0,0.0,0.0,0.0,0.0,0.0,0.0,0.5049,0.5166,0.5214,0.5415,0.5528,0.5566,0.5611,0.563,0.5622,0.5511,0.5205,0.0,0.0,0.0,0.0,0.0,0.0,0.0,0.0,0.0,0.0,0.1701,0.1262,0.0,0.0,0.0,0.0,0.0,0.0,0.0,0.0,-0.28,-0.3008,-0.3517,0.0,-0.2183,-0.1292,-0.0681,-0.008,0.0,0.0,0.0,0.0,0.0,0.0,0.0,-0.3093,-0.3811,-0.3341,-0.3293,-0.1941,0.1864,0.7945,1.0676,0.714,0.5261,0.2797,-0.0921,0.1819,0.5406,0.9131,1.6534,2.1898,2.4318,2.4875,2.5782,2.7143,2.6504,2.6059,2.5925,2.5965,2.5458,2.4315,2.3492,2.1276,1.781,1.4242,1.2317,1.1639,0.9075,1.0037,1.3506,1.4324,1.5782,1.7633,1.8969,1.9924,2.0668,2.2005,2.2953,2.3337,0.0,0.0,0.0,0.0,0.0,0.0,0.0,0.0,0.0,0.0,0.0,0.0,0.0,0.0,0.0,0.0,0.0,0.0,0.0,0.0,0.0,0.0,0.0,0.0,0.4843,0.5039,0.5185,0.5224,0.5396,0.5472,0.5434,0.5472,0.5453,0.5406,0.5088,0.4704,0.4293,0.0,0.0,0.0,0.3011,0.0,0.0,0.0,0.0,0.0,0.2044,0.1566,0.0,0.0299,-0.0327,-0.0836,0.0,0.0,0.0,0.0,-0.2073,-0.206,-0.2464,-0.2393,-0.2192,-0.2317,-0.1134,0.0354,0.1294,0.0,0.0,0.0,0.0,0.0,0.0,-0.1504,-0.2081,-0.2497,-0.1484,0.0596,0.4226,0.9345,1.1825,0.9453,0.6513,0.3848,0.1837,0.4386,0.7054,0.9254,1.7546,2.2916,2.3822,2.4825,2.5901,2.7077,2.6587,2.64,2.663,2.6513,2.5836,2.4623,2.4149,2.1513,1.7075,1.4166,1.2225,1.0951,0.9637,1.1012,1.4266,1.4862,1.6622,1.8856,1.8681,1.9493,2.0795,2.1343,2.2097,2.2793,0.0,0.0,0.0,0.0,0.0,0.0,0.0,0.0,0.0,0.0,0.0,0.0,0.0,0.0,0.0,0.0,0.0,0.0,0.0,0.0,0.0,0.0,0.0,0.4912,0.4912,0.503,0.5214,0.5435,0.5547,0.5547,0.5473,0.5482,0.5349,0.5108,0.4604,0.4244,0.4005,0.3716,0.3384,0.3073,0.2932,0.0,0.0,0.0,0.0,0.0,0.0,0.0,0.0,0.0629,0.0084,-0.0371,-0.0812,0.0,0.0,0.0,0.0,0.0,-0.1128,-0.1301,-0.1705,-0.2728,-0.1073,0.1068,0.22,0.0,0.0,0.0,0.0,0.0,0.0,0.0044,-0.0577,-0.1649,0.06,0.3633,0.6907,0.9605,1.1609,1.2647,0.8374,0.5573,0.6177,0.744,0.8555,0.9358,1.7813,2.2924,2.297,2.4724,2.6145,2.7051,2.6654,2.6692,2.7247,2.6855,2.6015,2.4844,2.4367,2.1513,1.648,1.3709,1.1615,1.0157,0.9746,1.1256,1.4016,1.4257,1.6444,1.9338,1.7095,1.789,2.0261,2.0044,2.0601,2.1721,0.0,0.0,0.0,0.0,0.0,0.0,0.0,0.0,0.0,0.0,0.0,0.0,0.0,0.0,0.0,0.0,0.0,0.0,0.0,0.0,0.0,0.0,0.5029,0.4961,0.4912,0.503,0.5127,0.5166,0.5117,0.5175,0.533,0.5059,0.4882,0.4755,0.4398,0.4215,0.4137,0.3711,0.3468,0.343,0.3628,0.0,0.0,0.0,0.0,0.0,0.0,0.0,0.0,0.0619,0.012,-0.0296,-0.0712,0.0,0.0,0.0,0.0,0.0,-0.0125,0.0084,0.0126,-0.0217,0.0468,0.1295,0.165,0.0,0.0,0.0,0.0,0.0,0.0,0.0178,-0.0982,-0.071,0.2299,0.5897,0.9585,1.3777,1.6293,1.5864,1.1334,0.7675,0.6203,0.5529,0.5336,0.574,1.3943,1.9385,2.057,2.3651,2.6312,2.8346,2.7482,2.6842,2.656,2.4561,2.3343,2.2804,1.9038,1.5184,1.124,0.789,0.5748,0.477,0.5388,0.9381,1.5372,1.5276,1.7161,2.0029,1.8635,1.7456,1.675,1.8709,1.91,1.9115,0.0,0.0,0.0,0.0,0.0,0.0,0.0,0.0,0.0,0.0,0.0,0.0,0.0,0.0,0.0,0.0,0.0,0.0,0.0,0.0,0.0,0.5137,0.4911,0.4783,0.4794,0.4735,0.4774,0.4893,0.4882,0.497,0.5137,0.4863,0.4684,0.4524,0.4163,0.3928,0.3783,0.3276,0.3109,0.3159,0.0,0.0,0.0,0.0,0.0,0.0,0.0,0.0,0.0,0.0,0.0282,-0.0133,-0.0345,0.0,0.0,0.0,0.0,0.0,0.0621,0.1006,0.1608,0.2628,0.2535,0.2555,0.3967,0.4491,0.0,0.0,0.0,0.0,0.0,0.1934,0.1884,0.3613,0.5392,0.775,1.1161,1.341,1.5595,1.7943,1.4307,1.1312,1.0562,1.005,0.908,0.7295,1.3405,1.7835,1.9296,2.2018,2.4718,2.7219,2.6823,2.6278,2.5701,2.2472,2.0687,2.0283,1.5327,1.0969,0.7241,0.3904,0.1383,-0.0232,0.259,0.6717,1.1583,1.3397,1.6079,1.8895,1.7255,1.5815,1.4872,1.6606,1.7536,1.8357,0.0,0.0,0.0,0.0,0.0,0.0,0.0,0.0,0.0,0.0,0.0,0.0,0.0,0.0,0.0,0.0,0.0,0.0,0.0,0.0,0.5088,0.5049,0.4783,0.4624,0.4646,0.4483,0.4483,0.4706,0.4744,0.4812,0.4931,0.4854,0.4662,0.437,0.4062,0.3815,0.3634,0.3062,0.2927,0.3041,0.0,0.0,0.0,0.0,0.0,0.0,0.0,0.0,0.0,0.0,0.0,0.0,0.0,0.0,0.0,0.0283,0.0934,0.154,0.1267,0.1719,0.2658,0.447,0.0,0.3437,0.6008,0.5956,0.534,0.0,0.0,0.0,0.0,0.3735,0.4518,0.6825,0.7992,0.9722,1.3032,1.3868,1.5711,1.9939,1.7428,1.5086,1.4417,1.3877,1.2121,0.8599,1.2624,1.6056,1.797,2.0586,2.3321,2.618,2.6199,2.5797,2.5047,2.1376,1.9262,1.8629,1.2257,0.7761,0.4963,0.123,-0.1307,-0.2532,0.1481,0.5376,0.9062,1.1984,1.5098,1.7811,1.5692,1.419,1.3286,1.3712,1.5061,1.6904,0.0,0.0,0.0,0.0,0.0,0.0,0.0,0.0,0.0,0.0,0.0,0.0,0.0,0.0,0.0,0.0,0.0,0.0,0.0,0.0,0.5049,0.4932,0.4773,0.4633,0.4507,0.4374,0.4435,0.4706,0.4644,0.4644,0.4715,0.5028,0.4851,0.4301,0.4283,0.4231,0.4121,0.3498,0.3363,0.352,0.3389,0.0,0.0,0.0,0.0,0.0,0.0,0.0,0.0,0.0,0.0,0.0,0.0,0.0,0.0504,0.0778,0.12,0.1607,0.1732,0.2342,0.3193,0.4196,0.3436,0.3188,0.5969,0.6136,0.0,0.6407,0.0,0.0,0.0,0.4625,0.4811,0.6155,0.8862,1.2129,1.6123,1.8385,2.0409,2.2424,2.0877,1.8292,1.4811,1.2675,1.009,0.6668,0.9511,1.2833,1.6102,1.9793,2.335,2.6657,2.6507,2.5886,2.482,2.2185,2.0254,1.8954,0.9531,0.5248,0.5461,0.0041,-0.1488,0.0264,0.2833,0.6958,1.198,1.3032,1.5292,1.7856,1.5405,1.3281,1.1356,0.9638,1.0737,1.3084,0.0,0.0,0.0,0.0,0.0,0.0,0.0,0.0,0.0,0.0,0.0,0.0,0.0,0.0,0.0,0.0,0.0,0.0,0.0,0.0,0.5117,0.503,0.4812,0.4662,0.4564,0.4342,0.4321,0.4524,0.4644,0.4724,0.4695,0.4967,0.4826,0.4365,0.4405,0.415,0.3687,0.3375,0.3232,0.3203,0.3039,0.2923,0.0,0.0,0.0,0.0,0.0,0.0,0.0,0.0,0.0773,0.0875,0.0841,0.1008,0.1208,0.141,0.1915,0.2343,0.2078,0.323,0.4561,0.4604,0.4217,0.0,0.0,0.7166,0.7071,0.6684,0.7429,0.0,0.5618,0.6724,0.801,0.8298,1.1786,1.5452,1.8153,1.9804,2.1407,2.3317,2.1983,1.9913,1.7431,1.6289,1.4451,1.1398,1.2691,1.4994,1.8157,1.9785,2.2165,2.557,2.5823,2.5378,2.4264,2.1991,1.9356,1.6285,0.9138,0.4039,0.0846,-0.105,-0.125,0.01,0.3953,0.7813,1.1489,1.2787,1.478,1.6617,1.2338,0.9976,0.8824,0.7488,0.8394,1.0444,0.0,0.0,0.0,0.0,0.0,0.0,0.0,0.0,0.0,0.0,0.0,0.0,0.0,0.0,0.0,0.0,0.0,0.0,0.531,0.5175,0.5078,0.502,0.4852,0.4722,0.4633,0.4472,0.4431,0.4504,0.4764,0.4863,0.4764,0.5053,0.4947,0.4494,0.4509,0.4244,0.3757,0.3314,0.3119,0.3075,0.2852,0.2668,0.0,0.0,0.0,0.0,0.0,0.0,0.0,0.0,0.1141,0.1279,0.1277,0.1431,0.1611,0.1711,0.231,0.2847,0.254,0.3738,0.5032,0.4918,0.0,0.0,0.7571,0.8139,0.8234,0.8193,0.8889,0.8949,0.7069,0.8638,1.0395,1.0899,1.4457,1.7816,1.9733,2.0936,2.2137,2.3456,2.2878,2.1424,1.9019,1.8785,1.7492,1.4338,1.4578,1.6244,1.9456,1.958,2.125,2.4877,2.4913,2.446,2.3696,2.2362,1.9292,1.4535,1.08,0.5922,0.0205,0.0209,0.0934,0.2476,0.7094,1.0215,1.2162,1.3878,1.5136,1.5465,1.0476,0.8144,0.7415,0.5878,0.6117,0.7464,0.0,0.0,0.0,0.0,0.0,0.0,0.0,0.0,0.0,0.0,0.0,0.0,0.0,0.0,0.0,0.0,0.0,0.0,0.4912,0.4912,0.4873,0.4812,0.4863,0.4843,0.4711,0.4753,0.4764,0.4706,0.4971,0.503,0.4911,0.5377,0.5274,0.4696,0.4632,0.461,0.4518,0.3474,0.3133,0.3273,0.3005,0.243,0.1743,0.0,0.0,0.0,0.0,0.0,0.0,0.0,0.1646,0.1608,0.1673,0.1651,0.1619,0.1611,0.2275,0.304,0.3149,0.3663,0.4312,0.5091,0.0,0.0,0.883,0.8961,0.9158,1.137,1.1012,1.018,0.9719,1.0117,1.1277,1.3622,1.6411,1.8924,2.075,2.213,2.2958,2.2952,2.3841,2.2979,1.9188,1.9294,1.807,1.425,1.4099,1.5713,1.9227,1.9101,2.0794,2.486,2.3821,2.3225,2.3196,2.3467,2.0487,1.4314,1.4596,1.1323,0.4995,0.4261,0.5404,0.8165,1.259,1.4511,1.47,1.675,1.6555,1.4566,1.0425,0.8383,0.7445,0.4655,0.3695,0.3912,0.0,0.0,0.0,0.0,0.0,0.0,0.0,0.0,0.0,0.0,0.0,0.0,0.0,0.0,0.0,0.0,0.0,0.0,0.4961,0.4932,0.4893,0.4873,0.5023,0.5008,0.4782,0.4793,0.4832,0.4902,0.4902,0.497,0.5115,0.5306,0.5325,0.5201,0.516,0.4871,0.4352,0.386,0.3356,0.2932,0.2712,0.2468,0.2239,0.0,0.0,0.0,0.0,0.0,0.0,0.0,0.0,0.0,0.2018,0.2123,0.2136,0.227,0.2673,0.3027,0.2887,0.4596,0.0,0.5202,0.0,0.0,0.0,0.9996,0.0,0.0,1.1843,1.0948,1.0438,1.1459,1.2681,1.3638,1.5703,1.773,1.9303,1.9864,2.0331,2.0906,2.1385,2.155,2.1162,2.1348,2.0996,1.9755,1.9312,1.9686,2.1014,2.1216,2.2053,2.3747,2.4149,2.3737,2.2496,2.3047,2.0767,1.5786,1.5942,1.2456,0.585,0.6155,0.7833,1.0646,1.3144,1.5446,1.7464,1.7509,1.5722,1.2693,0.9984,0.764,0.5755,0.5769,0.494,0.4102,0.0,0.0,0.0,0.0,0.0,0.0,0.0,0.0,0.0,0.0,0.0,0.0,0.0,0.0,0.0,0.0,0.0,0.0,0.0,0.4764,0.4715,0.4774,0.484,0.4906,0.4987,0.5205,0.5353,0.5439,0.5009,0.496,0.5283,0.5266,0.5269,0.5326,0.5227,0.4905,0.4393,0.3894,0.3357,0.2803,0.2573,0.2343,0.216,0.0,0.0,0.0,0.0,0.0,0.0,0.0,0.0,0.0,0.3159,0.3134,0.3169,0.3275,0.3324,0.349,0.4341,0.5723,0.0,0.697,0.8562,1.0249,1.0862,0.0,0.0,1.309,1.2976,1.2551,1.1847,1.2947,1.4113,1.4668,1.5927,1.737,1.8957,1.9042,1.9241,2.0049,2.0302,2.0727,2.1474,2.158,2.1553,2.1513,2.1118,2.1094,2.1609,2.1545,2.1953,2.292,2.3091,2.2625,2.1515,2.165,2.0237,1.7288,1.6436,1.3823,0.9839,1.066,1.1869,1.3398,1.5274,1.7162,1.8877,1.8043,1.5842,1.2773,1.0366,0.8314,0.6604,0.5963,0.5448,0.5274,0.0,0.0,0.0,0.0,0.0,0.0,0.0,0.0,0.0,0.0,0.0,0.0,0.0,0.0,0.0,0.0,0.0,0.0,0.0,0.0,0.4451,0.4584,0.4526,0.4747,0.5281,0.5808,0.6074,0.6058,0.5278,0.5085,0.5439,0.531,0.5243,0.5269,0.5036,0.4812,0.4579,0.37,0.317,0.2867,0.2507,0.2104,0.1778,0.2239,0.0,0.0,0.0,0.0,0.0,0.0,0.0,0.0,0.4823,0.4484,0.4437,0.4444,0.4106,0.419,0.6542,0.6816,0.7039,0.962,1.0547,1.1186,1.2436,1.3566,1.4174,1.3481,1.4134,1.4535,1.3591,1.4259,1.5328,1.6243,1.6725,1.7559,1.9164,1.9029,1.905,1.9875,2.005,2.0209,2.0563,2.0498,2.0483,2.0572,2.0414,2.0589,2.1212,2.0595,2.0879,2.2301,2.123,2.0613,2.0504,1.985,1.9269,1.8713,1.6467,1.5487,1.5692,1.601,1.5975,1.578,1.7983,1.9009,1.9085,1.8315,1.6453,1.3812,1.114,0.9666,0.8707,0.5631,0.5562,0.6913,0.0,0.0,0.0,0.0,0.0,0.0,0.0,0.0,0.0,0.0,0.0,0.0,0.0,0.0,0.0,0.0,0.0,0.0,0.0,0.0,0.4379,0.4515,0.4953,0.5187,0.5222,0.5688,0.59,0.5776,0.5584,0.56,0.5786,0.5549,0.5586,0.58,0.5401,0.5117,0.4865,0.3981,0.3293,0.2709,0.2314,0.2027,0.188,0.1935,0.2354,0.0,0.0,0.0,0.0,0.0,0.0,0.0,0.5779,0.5285,0.47,0.4969,0.4702,0.4505,0.5353,0.6799,0.0,0.9542,1.1391,1.2922,1.2729,1.3574,1.4089,1.2941,1.3478,1.4168,1.4106,1.4636,1.538,1.6383,1.6676,1.7019,1.7765,1.73,1.7236,1.8198,1.8341,1.8724,1.9734,1.9939,2.0137,2.0341,2.0007,1.9855,2.0067,1.9824,2.0333,2.1801,2.0843,2.0657,2.1417,2.0244,1.945,1.8984,1.8056,1.7988,1.8535,1.4087,1.2692,1.3928,1.6534,1.7795,1.7972,1.7932,1.5424,1.1547,1.0563,0.8683,0.6507,0.6634,0.6632,0.6689,0.0,0.0,0.0,0.0,0.0,0.0,0.0,0.0,0.0,0.0,0.0,0.0,0.0,0.0,0.0,0.0,0.0,0.0,0.0,0.0,0.4228,0.426,0.4872,0.5145,0.5009,0.5567,0.5872,0.5952,0.5952,0.5987,0.6073,0.5821,0.5763,0.5857,0.5561,0.5112,0.452,0.3914,0.3233,0.258,0.2317,0.2284,0.2373,0.2187,0.2967,0.4173,0.4558,0.0,0.0,0.0,0.0,0.0,0.0,0.0,0.635,0.6061,0.5544,0.5355,0.663,0.7706,0.0,1.0835,0.0,1.3414,1.3016,1.3305,1.3507,1.2812,1.3607,1.4342,1.4221,1.491,1.5698,1.6335,1.6486,1.6735,1.737,1.6587,1.6391,1.7582,1.7428,1.7649,1.877,1.8922,1.9096,1.9496,1.9347,1.9202,1.9171,1.9111,1.9503,2.0432,1.9753,1.976,2.0544,1.9714,1.9132,1.8713,1.8518,1.8194,1.7766,1.5773,1.5337,1.6159,1.7087,1.7508,1.7529,1.7573,1.4831,1.0577,1.0419,0.8697,0.6226,0.5954,0.6391,0.7057,0.0,0.0,0.0,0.0,0.0,0.0,0.0,0.0,0.0,0.0,0.0,0.0,0.0,0.0,0.0,0.0,0.0,0.0,0.0,0.0,0.0,0.4009,0.4623,0.4876,0.4653,0.543,0.5891,0.6014,0.6169,0.6248,0.627,0.6044,0.5896,0.5801,0.5625,0.5049,0.4205,0.3827,0.3232,0.2543,0.2441,0.2549,0.2766,0.2569,0.3563,0.5087,0.5089,0.6028,0.7407,0.8236,0.0,0.0,0.0,0.0,0.8179,0.7437,0.6809,0.6755,0.8527,0.8989,0.9656,1.2212,1.3143,0.0,1.3174,1.3047,1.3,1.3104,1.3899,1.4459,1.4199,1.5061,1.5964,1.634,1.6419,1.6725,1.7439,1.6514,1.6203,1.7446,1.6958,1.6918,1.7879,1.7937,1.8059,1.8494,1.8658,1.8636,1.8391,1.8329,1.8488,1.8923,1.846,1.8572,1.9357,1.9026,1.8745,1.8508,1.8442,1.7548,1.5943,1.8003,1.8779,1.8455,1.7747,1.7344,1.72,1.7021,1.4299,1.0185,1.0232,0.8915,0.6797,0.5093,0.5896,0.7635,0.0,0.0,0.0,0.0,0.0,0.0,0.0,0.0,0.0,0.0,0.0,0.0,0.0,0.0,0.0,0.0,0.0,0.0,0.4532,0.0,0.0,0.4009,0.4534,0.4605,0.4119,0.5274,0.5671,0.5247,0.601,0.6277,0.0,0.6151,0.6181,0.6204,0.5533,0.5049,0.4666,0.4117,0.3475,0.2849,0.2812,0.2633,0.2379,0.2457,0.3225,0.4385,0.5207,0.62,0.7316,0.8494,0.8827,0.0,0.0,0.0,0.8472,0.8795,0.8936,0.898,0.8943,0.0,1.1694,0.0,1.2959,1.3508,1.2974,1.3097,1.3459,1.3927,1.3806,1.3718,1.4187,1.497,1.5809,1.6612,1.6977,1.7314,1.7706,1.6941,1.6664,1.7422,1.6816,1.6656,1.7429,1.7685,1.7822,1.7827,1.8266,1.8231,1.7517,1.7248,1.7483,1.8291,1.7475,1.7868,1.9631,1.9034,1.891,1.9229,1.8501,1.7338,1.5854,1.6913,1.6622,1.5354,1.6136,1.6304,1.6014,1.5983,1.3515,0.9751,0.9469,0.8532,0.7206,0.5955,0.6651,0.8088,0.0,0.0,0.0,0.0,0.0,0.0,0.0,0.0,0.0,0.0,0.0,0.0,0.0,0.0,0.0,0.5577,0.5477,0.5222,0.4751,0.4626,0.4516,0.435,0.457,0.4578,0.435,0.4925,0.5266,0.5323,0.5737,0.0,0.0,0.6109,0.5991,0.5834,0.5694,0.5227,0.4486,0.4192,0.3697,0.312,0.2947,0.3643,0.4517,0.2956,0.3739,0.5625,0.5198,0.5632,0.6612,0.8207,0.8621,0.8694,0.9661,0.0,0.0,0.0,0.9525,0.9411,0.8388,0.9642,1.1193,0.0,1.1613,1.2271,1.3085,1.3535,1.3901,1.4292,1.4424,1.4603,1.5062,1.5591,1.6053,1.6467,1.7113,1.7469,1.7156,1.6778,1.6737,1.7365,1.6837,1.6658,1.7285,1.7408,1.7595,1.7915,1.8005,1.7778,1.7161,1.7021,1.7026,1.7195,1.7457,1.8211,1.9522,1.959,1.9479,1.9107,1.782,1.6636,1.5657,1.5928,1.5807,1.5431,1.6287,1.6355,1.5732,1.5026,1.266,0.9329,0.8565,0.7566,0.6602,0.6333,0.7175,0.8495,0.0,0.0,0.0,0.0,0.0,0.0,0.0,0.0,0.0,0.0,0.0,0.0,0.0,0.0,0.0,0.0,0.5717,0.5479,0.4933,0.49,0.4788,0.4606,0.4553,0.456,0.456,0.4642,0.487,0.529,0.0,0.0,0.5972,0.5839,0.5678,0.0,0.5754,0.5385,0.4557,0.4413,0.3973,0.348,0.3705,0.4837,0.6184,0.4477,0.5448,0.751,0.6115,0.6182,0.7131,0.8375,0.8664,0.8716,0.9828,1.0283,0.0,0.0,0.0,1.0126,0.0,0.0,1.0789,1.0284,1.0731,1.1604,1.2615,1.3557,1.4328,1.4658,1.5059,1.5462,1.5778,1.5987,1.6146,1.6071,1.6706,1.7011,1.6392,1.6254,1.643,1.7002,1.6683,1.6653,1.7261,1.7288,1.7462,1.7984,1.7902,1.7509,1.6853,1.7064,1.7027,1.6637,1.7801,1.8882,1.982,2.0305,1.9828,1.8405,1.722,1.6059,1.5015,1.5207,1.5353,1.5419,1.6232,1.6027,1.5118,1.3903,1.1861,0.9315,0.8227,0.7599,0.7359,0.7424,0.8315,0.9503,0.0,0.0,0.0,0.0,0.0,0.0,0.0,0.0,0.0,0.0,0.0,0.0,0.6701,0.696,0.6948,0.6484,0.6338,0.5865,0.4974,0.484,0.4729,0.4606,0.4481,0.0,0.4402,0.4547,0.4657,0.4736,0.0,0.0,0.5081,0.5202,0.5274,0.5311,0.5446,0.5448,0.5317,0.4873,0.4373,0.403,0.5658,0.6073,0.591,0.763,0.8944,0.9784,0.8754,0.9112,0.9995,0.9645,0.9372,0.927,1.004,1.0467,1.0753,0.0,0.0,0.0,0.0,1.1859,0.0,0.9875,1.1122,1.2435,1.1065,1.2737,1.471,1.5255,1.5492,1.5656,1.5853,1.5823,1.5654,1.5395,1.5505,1.5564,1.5491,1.5455,1.5626,1.6098,1.6216,1.653,1.7325,1.7384,1.7502,1.7783,1.7984,1.7563,1.6402,1.7237,1.7597,1.7261,1.8421,1.9666,2.1002,2.0982,1.9661,1.7098,1.7083,1.5886,1.3747,1.4982,1.4949,1.3956,1.4983,1.4687,1.3453,1.2503,1.1271,0.9972,0.8951,0.9566,1.089,0.9965,1.0539,1.1559,0.0,0.0,0.0,0.0,0.0,0.0,0.0,0.0,0.0,0.0,0.0,0.0,0.0,0.7181,0.7011,0.6556,0.618,0.5791,0.5304,0.5216,0.5128,0.4986,0.4808,0.4718,0.4718,0.4606,0.4655,0.0,0.0,0.5028,0.5135,0.526,0.5297,0.5248,0.536,0.5436,0.5353,0.4939,0.4536,0.4174,0.429,0.5713,0.7616,0.5905,0.7809,1.1193,0.9695,0.8975,0.9064,1.1,1.0393,0.9041,1.0427,1.0992,1.1042,1.0967,1.1799,1.2202,0.0,0.0,0.0,0.9716,0.9868,1.0481,1.0738,1.1959,1.3025,1.2849,1.4169,1.5211,1.4881,1.5295,1.5522,1.4936,1.5318,1.5532,1.5071,1.5384,1.5902,1.6587,1.6657,1.6932,1.7647,1.7602,1.7595,1.78,1.7715,1.7456,1.7027,1.7397,1.7712,1.7945,1.9332,2.0532,2.1532,2.0632,1.9126,1.7059,1.5801,1.5058,1.4687,1.4846,1.4584,1.4018,1.4446,1.4272,1.3569,1.2561,1.1242,0.9833,0.9512,0.9453,0.9743,1.0697,1.1546,1.2143,0.0,0.0,0.0,0.0,0.0,0.0,0.0,0.0,0.0,0.0,0.0,0.0,0.0,0.0,0.6978,0.6499,0.6129,0.5814,0.5477,0.5421,0.5327,0.5169,0.5011,0.4922,0.4884,0.4628,0.461,0.0,0.0,0.0,0.0,0.53,0.548,0.5554,0.557,0.5491,0.5375,0.56,0.5455,0.5119,0.5025,0.6577,0.8677,0.6493,0.8092,1.1443,1.0997,1.0334,1.0123,1.2881,1.1857,0.9715,1.1446,1.1832,1.1525,1.1076,1.1865,0.0,0.9746,0.0,0.0,0.9346,0.9538,0.9953,0.9442,1.0755,1.1965,1.1681,1.3006,1.4233,1.4272,1.4784,1.5014,1.44,1.4762,1.4951,1.4473,1.4869,1.5538,1.6425,1.6343,1.6638,1.7723,1.7429,1.7282,1.7591,1.7562,1.758,1.765,1.8072,1.8727,1.9686,2.0753,2.1446,2.1616,2.0479,1.8794,1.6674,1.5433,1.4767,1.4596,1.4481,1.4215,1.3794,1.4075,1.3805,1.3102,1.2329,1.1497,1.0731,1.0717,1.0743,1.1039,1.2251,1.2844,1.3074,0.0,0.0,0.0,0.0,0.0,0.0,0.0,0.0,0.0,0.8358,0.0,0.0,0.0,0.0,0.0,0.6476,0.6292,0.6013,0.546,0.5404,0.5302,0.5099,0.5017,0.4953,0.489,0.4581,0.451,0.4702,0.0,0.0,0.0,0.0,0.575,0.6182,0.6034,0.5725,0.5424,0.6816,0.7131,0.6849,0.8165,0.8759,0.8968,0.9807,1.0308,1.0831,1.2865,1.3392,1.3471,1.5322,1.3686,1.1214,1.2956,1.2915,1.206,1.1528,0.0,0.0,0.0,0.0,0.0,0.8866,1.026,1.1184,0.7214,0.9157,1.1777,1.1858,1.2148,1.2741,1.407,1.4234,1.4088,1.3756,1.3761,1.3746,1.362,1.3853,1.4432,1.5477,1.5228,1.5695,1.754,1.687,1.6578,1.7157,1.7489,1.7834,1.8196,1.9294,2.07,2.2455,2.2688,2.2315,2.1315,2.0623,1.8775,1.5862,1.6071,1.5161,1.3304,1.3982,1.3888,1.3256,1.3721,1.315,1.1968,1.1733,1.2117,1.2804,1.259,1.3607,1.5084,1.4736,1.4494,1.4443,0.0,0.0,0.0,0.0,0.0,0.0,0.9124,0.8921,0.8755,0.0,0.0,0.0,0.795,0.7652,0.7384,0.722,0.703,0.6613,0.5872,0.5665,0.5366,0.496,0.4896,0.4774,0.4614,0.4414,0.4464,0.4702,0.4565,0.4758,0.5236,0.5701,0.587,0.0,0.7129,0.7129,0.6213,0.6907,0.7238,0.741,0.7923,0.9346,1.1118,1.0607,1.2973,1.6489,1.5672,1.4343,1.3361,1.5972,1.3003,0.8643,1.0867,1.1673,1.1591,1.0671,1.0997,0.0,1.0255,0.0,0.0,0.0,0.0,0.0,0.9292,1.0085,1.0654,0.9437,1.1581,1.3323,1.2159,1.3058,1.3983,1.393,1.3894,1.3862,1.3833,1.4261,1.4923,1.5844,1.6273,1.6939,1.8093,1.745,1.6962,1.6988,1.5565,1.5773,1.8205,1.9602,2.1048,2.2588,2.2281,2.1896,2.1524,2.0616,1.9001,1.6715,1.5801,1.518,1.4846,1.4204,1.3946,1.3982,1.3674,1.3532,1.3453,1.2948,1.2789,1.3057,1.4718,1.478,1.4139,1.6009,1.4949,1.2702,0.0,0.0,0.0,0.0,0.0,0.9366,0.9135,0.9102,0.9029,0.0,0.0,0.0,0.8309,0.8006,0.7757,0.7629,0.7432,0.7016,0.644,0.6061,0.5678,0.53,0.5048,0.4887,0.4804,0.4533,0.4628,0.5048,0.4739,0.4903,0.5481,0.5877,0.6181,0.0,0.0,0.0,0.8177,0.8777,0.864,0.8165,0.9259,1.048,1.1622,1.1388,1.3431,1.6404,1.6596,1.564,1.4676,1.7568,1.4832,1.0303,1.0758,1.104,1.1172,1.1125,1.1265,0.0,0.0,0.0,0.0,1.1034,0.0,0.0,0.8541,0.8748,0.8779,0.7186,0.8769,1.0295,0.9844,1.0696,1.1771,1.2655,1.2994,1.3307,1.3838,1.4452,1.5069,1.5696,1.6164,1.6797,1.7688,1.7093,1.6586,1.6404,1.4746,1.4488,1.6131,1.7393,1.848,1.9462,1.9737,1.9987,2.0236,1.9968,1.9123,1.7616,1.6667,1.5738,1.4824,1.4169,1.379,1.369,1.3558,1.38,1.4378,1.4528,1.4609,1.4874,1.6555,1.6546,1.5751,1.752,1.5947,1.3173,0.0,0.0,0.9523,0.9523,0.9545,0.9473,0.9228,0.9401,0.9456,0.0,0.9127,0.9048,0.8607,0.8317,0.8087,0.7934,0.7654,0.7383,0.7097,0.6597,0.6179,0.591,0.5471,0.5241,0.5264,0.491,0.5,0.5516,0.5081,0.5137,0.5688,0.5997,0.6684,0.7701,0.0,0.0,0.0,1.1578,1.0776,0.9094,1.1536,1.2189,1.1828,1.2829,1.3404,1.4044,1.6735,1.7092,1.6589,1.8851,1.7451,1.4302,1.1911,1.0916,1.083,1.1927,1.1743,0.0,0.0,0.0,0.0,1.105,1.1124,0.0,0.6812,0.691,0.7332,0.5907,0.5887,0.6586,0.8116,0.8632,0.9442,1.1315,1.2116,1.2839,1.376,1.456,1.5124,1.5305,1.5543,1.6049,1.6935,1.6395,1.5943,1.5773,1.4807,1.3832,1.2984,1.412,1.5032,1.5538,1.6775,1.786,1.8687,1.9427,1.9328,1.8367,1.8045,1.6504,1.3952,1.3806,1.3371,1.2742,1.3337,1.4005,1.4755,1.6021,1.6812,1.7308,1.8067,1.8415,1.8563,1.893,1.6991,1.4583,0.0,0.0,0.9658,0.9658,0.9848,0.9937,0.9776,0.992,1.0048,0.9939,0.9489,0.9114,0.8913,0.8654,0.8552,0.8666,0.8406,0.8008,0.7525,0.7137,0.6795,0.6471,0.6156,0.5863,0.5615,0.5583,0.5558,0.5518,0.5809,0.6026,0.6196,0.6894,0.7525,0.0,0.0,0.0,0.0,1.3119,1.222,1.0189,1.3272,1.5185,1.6261,1.7152,1.8393,1.9657,1.9309,1.8323,1.6968,1.5255,1.5622,1.6203,1.2697,1.129,1.0696,0.9635,0.9243,0.937,1.035,1.0332,1.0214,1.0925,1.0631,0.0,0.9956,1.0543,1.0705,0.9131,1.0435,1.1679,1.1021,1.2216,1.3683,1.4709,1.5001,1.4779,1.3948,1.5098,1.5908,1.5586,1.6453,1.7256,1.7583,1.7113,1.6629,1.6196,1.5379,1.3801,1.1324,1.4245,1.6866,1.8792,1.9039,1.9769,2.1111,2.1599,2.0601,1.8176,1.7985,1.6601,1.4163,1.2871,1.2279,1.2294,1.3139,1.3894,1.4558,1.6127,1.706,1.7626,1.8722,1.8593,1.7881,1.8665,1.6531,1.3384,0.0,0.967,0.977,1.0012,1.0056,1.0085,1.0221,1.0503,1.0608,1.0347,0.9935,0.962,0.9525,0.9294,0.9181,0.9306,0.9016,0.873,0.8428,0.7975,0.7639,0.7422,0.6995,0.676,0.6789,0.6573,0.6573,0.6848,0.6895,0.6895,0.6928,0.76,0.7737,0.0,0.0,0.0,0.0,1.366,1.4015,1.3141,1.386,1.4251,1.4679,1.6493,1.8251,1.9708,1.9827,1.933,1.807,1.4653,1.4296,1.5107,1.3927,1.2637,1.1545,1.1575,1.1356,1.0924,1.0207,1.0084,1.0393,1.1119,1.0881,0.0,0.0,1.0809,1.0568,0.9442,0.9961,1.0657,1.0693,1.1242,1.229,1.4123,1.3648,1.3498,1.4775,1.5674,1.6036,1.5665,1.6595,1.733,1.7396,1.7276,1.6717,1.5549,1.378,1.1533,0.8749,1.0307,1.1507,1.2051,1.5229,1.7382,1.839,2.0328,2.0481,1.8831,1.8143,1.6711,1.4689,1.4053,1.3327,1.2678,1.4215,1.5069,1.5453,1.6982,1.7996,1.8717,1.9342,1.9102,1.8393,1.8638,1.6772,1.4281,0.9649,0.0,1.0005,1.0363,1.0374,1.0436,1.077,1.1114,1.1168,1.0612,1.029,1.0084,1.0094,0.9857,0.9694,0.9724,0.939,0.9182,0.9254,0.8721,0.8348,0.821,0.7911,0.7788,0.7928,0.7671,0.7795,0.8383,0.8107,0.7937,0.7876,0.839,0.8314,0.7776,0.0,0.0,0.0,1.3697,1.4745,1.4947,1.3249,1.2633,1.3014,1.5495,1.7146,1.8321,1.9606,1.9921,1.9231,1.5578,1.4048,1.3778,1.4238,1.3388,1.2335,1.306,1.3206,1.2637,1.0484,1.0082,1.0428,1.1087,1.1074,1.0807,0.0,0.0,0.0,0.9441,0.9104,0.9312,1.0591,1.0466,1.0923,1.3269,1.2621,1.2857,1.5833,1.6386,1.6363,1.601,1.6273,1.6678,1.7183,1.7372,1.6623,1.4594,1.2162,0.946,0.6464,0.6722,0.6361,0.5112,1.0927,1.4386,1.5025,1.8185,1.9412,1.8639,1.8232,1.7009,1.5108,1.5343,1.4689,1.3518,1.5164,1.5984,1.6178,1.736,1.8343,1.9136,1.9541,1.9347,1.8767,1.8516,1.7035,1.535,1.0084,1.0295,1.0563,1.0581,1.1081,1.1536,1.1562,1.1722,1.1648,1.118,1.0477,1.0136,1.0479,1.0031,0.9735,0.9866,0.9148,0.8913,0.9424,0.8846,0.8421,0.8281,0.8916,0.8856,0.8006,0.8737,0.9113,0.9004,0.9437,0.9479,0.9208,0.9653,1.0388,1.118,0.9945,1.1596,1.527,1.3522,1.2377,1.165,1.074,1.3129,1.7405,1.8614,1.8895,1.8703,1.9278,1.9736,1.9719,1.748,1.6131,1.4868,1.1717,1.1565,1.1952,0.9007,0.9682,1.1096,0.9804,0.9292,0.9299,1.0147,1.0232,1.0148,1.0273,0.0,1.1774,1.1579,0.0,1.3257,1.4313,0.0,0.0,1.5916,1.6731,1.7188,1.685,1.7418,1.772,1.7324,1.5495,1.5254,1.7821,1.7822,1.6625,1.4096,1.282,1.0236,0.5857,0.8192,0.9085,0.7888,1.1618,1.4138,1.5179,1.7227,1.7223,1.5285,1.793,1.7754,1.5074,1.4896,1.4719,1.4612,1.4494,1.4762,1.535,1.5697,1.6261,1.7117,1.8719,1.8713,1.778,1.7789,1.659,1.4764,1.0644,1.0903,0.0,1.1529,1.1632,1.183,1.2277,1.226,1.2102,1.1799,1.1253,1.1053,1.152,1.1377,1.118,1.1067,1.087,1.0804,1.1001,1.0811,1.0928,1.1367,1.1147,1.0902,1.0744,1.0501,1.0459,1.0625,1.0808,1.0681,1.0334,1.1206,1.1308,1.0725,1.0358,1.0951,1.2223,1.2224,1.2386,1.2619,1.2056,1.3426,1.5521,1.3665,1.4749,1.7255,1.6785,1.8055,1.9598,1.7548,1.5982,1.4597,1.3041,1.2195,1.1357,0.9244,0.9594,1.0118,0.7679,0.8925,1.0646,0.9566,1.0946,1.2326,1.1292,1.1502,1.1938,1.1993,0.0,0.0,0.0,0.0,0.0,0.0,1.6714,1.6747,1.8039,1.5902,1.516,1.7666,1.7158,1.6745,1.701,1.636,1.5125,1.3188,1.2282,1.0128,0.6289,0.627,0.6354,0.6262,0.7986,1.0694,1.4478,1.5318,1.6185,1.7034,1.7958,1.7691,1.6375,1.6203,1.571,1.4968,1.5003,1.5018,1.5018,1.5148,1.5762,1.6689,1.6895,1.6652,1.6214,1.6703,1.5755,1.4149,1.1452,0.0,0.0,1.2212,1.2122,1.2217,1.2777,1.2685,1.2508,1.2461,1.2136,1.2125,1.2648,1.2795,1.268,1.2163,1.2192,1.2141,1.2028,1.2098,1.2449,1.3174,1.2918,1.2787,1.2854,1.2185,1.2022,1.2294,1.2113,1.1883,0.0,0.0,0.0,0.0,1.1362,1.1066,1.0674,1.1299,1.1673,1.1806,1.1555,1.1447,1.1244,0.9514,1.1998,1.6175,1.4352,1.6352,1.9477,1.6858,1.5527,1.4932,1.4648,1.4023,1.3094,1.1502,1.1935,1.1958,0.7818,0.9459,1.1606,0.86,1.0643,1.2956,1.1411,1.1407,1.1854,1.2361,1.2641,0.0,0.0,0.0,1.6229,1.7382,0.0,1.6727,1.8675,1.5949,1.4888,1.7998,1.8449,1.8039,1.68,1.6084,1.4973,1.3156,1.2113,0.995,0.6269,0.5015,0.4182,0.3693,0.4726,0.7256,1.1354,1.2651,1.4572,1.7113,1.7735,1.7812,1.7417,1.7202,1.6661,1.5864,1.545,1.531,1.5362,1.5111,1.5309,1.5733,1.5482,1.4751,1.4048,1.5496,1.4894,1.3353,1.2618,1.2437,0.0,1.2184,1.2528,1.2826,1.306,1.2953,1.2941,1.306,1.3,1.3177,1.3691,1.4092,1.3887,1.2786,1.2263,1.196,1.1826,1.1824,1.1905,1.2128,1.3593,1.4041,1.3191,1.3606,1.3831,1.3835,1.3358,1.3091,0.0,0.0,0.0,0.0,1.2997,1.2701,1.3346,1.1311,0.9165,0.71,0.7047,0.6095,0.5139,0.9031,1.3099,1.6228,1.2681,1.5154,1.9471,1.5444,1.5272,1.6523,1.5499,1.6916,1.8404,1.557,1.6969,1.8054,1.1902,1.1189,1.1187,0.6958,0.8234,1.0391,0.9803,1.0638,1.1872,1.3093,1.2804,1.2923,1.4921,1.5684,1.6162,0.0,1.7986,0.0,0.0,1.9078,1.9354,1.8577,1.8373,1.8192,1.7894,1.8286,1.7392,1.4544,1.2858,0.9946,0.5289,0.5802,0.4554,0.0946,0.3423,0.4816,0.4807,0.9061,1.1829,1.3116,1.7001,1.8445,1.7665,1.7146,1.7238,1.7675,1.5417,1.5241,1.6477,1.5419,1.437,1.3543,1.502,1.3607,1.1122,1.4197,1.4104,1.2322,0.0,0.0,0.0,1.3098,1.306,1.3276,1.3922,1.3758,1.3749,1.4298,1.385,1.3847,1.4658,1.4661,1.4416,1.3915,1.3744,1.3726,1.3905,1.4408,1.4947,1.5452,1.619,1.6032,1.4931,1.4997,1.4695,1.398,1.4392,1.4377,0.0,0.0,0.0,0.0,1.3752,1.2462,1.1724,1.0421,0.8814,0.7193,0.7431,0.7328,0.6998,0.6591,0.8351,1.0876,0.9394,1.2765,1.7835,1.7245,1.7339,1.7748,1.7928,1.6934,1.5464,1.4414,1.5155,1.578,1.3164,1.4854,1.5862,0.9622,1.1568,1.3665,0.8523,0.9509,1.1505,1.1546,1.2811,1.4313,1.5653,1.6512,0.0,0.0,0.0,1.9149,0.0,1.922,1.9017,1.8208,1.6855,1.6184,1.672,1.5093,1.331,1.1611,1.0612,0.8813,0.5943,0.5014,0.4693,0.4927,0.3267,0.4941,1.0344,1.0681,1.3015,1.7282,1.8194,1.8467,1.8121,1.7109,1.6639,1.657,1.5336,1.429,1.3387,1.203,1.1615,1.1656,0.9891,0.9546,1.0477,1.3806,1.352,1.1549,1.4078,1.4227,1.4118,1.4091,1.3981,1.4211,1.5056,1.4884,1.4823,1.5255,1.5129,1.5082,1.529,1.5536,1.5435,1.4778,1.507,1.5347,1.5572,1.6046,1.6697,1.7503,1.7801,1.7495,1.6552,1.6459,1.6013,1.5175,1.5634,1.5668,0.0,0.0,0.0,0.0,0.0,1.3411,1.1008,1.0546,0.877,0.6275,0.6698,0.7022,0.7031,0.5281,0.6667,0.9247,0.686,0.9958,1.5298,1.611,1.7062,1.8163,1.9782,1.8643,1.671,1.6835,1.6971,1.6824,1.5703,1.7479,1.8224,1.2264,1.4193,1.6001,1.0221,1.0721,1.2468,1.2686,1.3385,1.4648,1.7058,1.75,1.7795,0.0,0.0,1.8727,0.0,1.8843,1.8469,1.7983,1.6722,1.5758,1.5356,1.4205,1.2502,1.014,1.0061,0.9416,0.7774,0.6671,0.6358,0.6936,0.4631,0.5877,1.1109,1.0882,1.3202,1.8074,1.8064,1.7946,1.7646,1.6498,1.6008,1.6003,1.4958,1.366,1.2117,1.0005,0.8779,0.8108,0.6573,0.6397,0.7515,1.1535,1.2007,1.0813,1.4297,1.4669,1.4888,1.5223,1.5278,1.5531,1.6319,1.6222,1.6033,1.591,1.6613,1.6727,1.5649,1.6654,1.6847,1.5402,1.6078,1.6598,1.666,1.6718,1.7175,1.8196,1.8495,1.841,1.7974,1.8033,1.782,1.7311,1.7147,1.6977,0.0,0.0,0.0,0.0,1.7816,1.5432,1.1322,1.1593,0.8858,0.4366,0.4815,0.5108,0.5273,0.5224,0.7931,1.1041,0.5249,0.7026,1.2103,1.2248,1.4522,1.7828,2.0791,2.1699,2.1771,2.2389,2.2099,2.1243,1.9433,1.9082,1.8375,1.4774,1.5893,1.7158,1.4419,1.4077,1.4779,1.6372,1.465,1.4307,1.9025,1.8578,1.793,0.0,0.0,0.0,1.8373,1.8242,1.8041,1.7992,1.7929,1.6826,1.4173,1.5536,1.4802,1.0511,1.1251,1.1478,1.0532,1.0556,0.9487,0.7087,0.7525,0.7701,0.7485,0.9834,1.2566,1.5588,1.6745,1.6997,1.635,1.5429,1.5422,1.6059,1.439,1.339,1.2654,0.9375,0.5956,0.2995,0.5059,0.4366,0.2825,0.7725,0.973,1.0169,1.5125,1.6275,1.7243,1.7695,1.7098,1.6616,1.6875,1.6909,1.6665,1.6139,1.6303,1.63,1.5911,1.6025,1.6211,1.6434,1.6604,1.6883,1.7406,1.8115,1.8523,1.8555,1.9854,2.0085,1.8979,1.9783,1.9414,1.7814,1.9143,1.8972,1.7379,0.0,0.0,0.0,0.0,1.5257,1.1172,1.1646,0.9075,0.4677,0.4745,0.6082,0.7785,0.5813,0.66,0.8422,0.5436,0.7006,1.0527,1.0694,1.3741,1.7683,1.9023,2.0113,2.1029,2.1716,2.1913,2.1789,2.1256,2.1756,2.1424,1.7335,1.8353,1.9237,1.4927,1.5833,1.7698,1.8012,1.8005,1.8345,1.9731,1.9224,1.8594,1.864,1.8366,1.8439,1.9246,1.9229,1.88,1.794,1.7569,1.7244,1.693,1.4104,1.2826,1.41,1.1921,1.0769,1.1399,1.281,1.2884,1.1345,1.1669,1.2235,1.2964,1.3904,1.5115,1.6615,1.7174,1.7031,1.6225,1.5489,1.5255,1.5413,1.4839,1.3492,1.1483,0.8235,0.3528,-0.1379,0.1386,0.3738,0.5808,0.7702,0.9088,1.0197,1.6386,1.7178,1.8084,1.9104,1.8642,1.8197,1.8425,1.844,1.8279,1.7816,1.7611,1.737,1.7001,1.6812,1.6935,1.7531,1.8025,1.8702,1.9451,1.9632,1.9749,1.9916,2.0381,2.0246,1.937,1.9223,1.9029,1.8734,1.8509,1.826,1.7987,0.0,0.0,0.0,0.0,1.5467,1.2174,1.0717,0.8799,0.6611,0.5368,0.5804,0.0,0.5421,0.5415,0.6128,0.502,0.5834,0.7643,0.8801,1.1253,1.4234,1.6579,1.7918,1.9063,2.1226,2.1736,2.1797,2.2873,2.3374,2.3126,2.1108,2.1807,2.2027,1.8428,1.8699,1.9716,1.9697,1.9426,1.9686,2.1365,2.0223,1.8753,1.784,1.8181,1.8658,1.8864,1.9028,1.8781,1.7898,1.7324,1.7251,1.7922,1.4686,1.3211,1.4836,1.3457,1.3075,1.4304,1.5387,1.5365,1.3985,1.447,1.4745,1.4684,1.5302,1.5945,1.6659,1.6813,1.6488,1.5707,1.5297,1.5152,1.5193,1.4315,1.2929,1.0932,0.6893,0.2772,-0.0862,0.0402,0.3199,0.6607,0.7238,0.857,1.0283,1.7813,1.788,1.8397,1.9847,1.9985,2.0011,2.0378,2.0308,2.004,1.9607,1.9409,1.9095,1.8399,1.8244,1.8311,1.8629,1.9721,2.075,2.1564,2.0824,2.0614,2.1157,2.0321,1.9684,1.9353,1.7679,1.7786,1.9705,1.7029,1.674,0.0,0.0,0.0,0.0,0.0,0.0,1.3211,0.9538,0.8228,0.8421,0.6059,0.503,0.4883,0.4677,0.4489,0.4329,0.4409,0.4388,0.4649,0.6748,0.814,0.9716,1.3924,1.5622,1.682,2.0672,2.1365,2.1343,2.3566,2.3812,2.3636,2.4486,2.4898,2.4664,2.3043,2.1952,2.1321,2.1443,2.0124,1.9901,2.2987,2.1278,1.8921,1.7453,1.8175,1.8763,1.8211,1.8313,1.8227,1.7695,1.6986,0.0,1.7753,1.6008,1.4727,1.4513,1.5288,1.6299,1.7531,1.7702,1.7101,1.5712,1.6297,1.6003,1.4725,1.5499,1.6,1.6202,1.6295,1.5881,1.5089,1.5045,1.5107,1.5183,1.3566,1.2296,1.1024,0.6288,0.365,0.2465,0.1304,0.3239,0.6701,0.702,0.8628,1.0859,1.9132,1.9707,2.034,2.0683,2.1123,2.1511,2.1826,2.1228,2.0002,1.7951,1.9058,1.9789,1.9104,1.8869,1.9139,2.0042,1.9934,2.0056,2.0519,2.0657,2.0373,1.9647,1.9885,1.9718,1.8995,1.7668,1.7863,1.9697,1.8523,1.8532,0.0,0.0,0.0,0.0,0.0,0.0,1.1453,0.9632,0.7589,0.5547,0.5224,0.503,0.4883,0.4677,0.4309,0.3971,0.4409,0.4514,0.4529,0.4963,0.6553,0.8871,1.1874,1.422,1.645,1.9412,2.0196,2.021,2.0707,2.1665,2.2602,2.2931,2.4036,2.4965,2.4735,2.4023,2.338,2.3405,2.2639,2.2,2.2196,2.1566,2.0501,1.904,1.9322,1.9623,1.9414,1.831,1.7329,1.6797,1.6083,1.5967,1.6835,1.5396,1.5146,1.6913,1.6111,1.6018,1.7064,1.806,1.8288,1.763,1.7433,1.7161,1.6866,1.729,1.7084,1.628,1.7113,1.6628,1.5015,1.5059,1.5101,1.5082,1.4164,1.3229,1.2134,0.9416,0.7236,0.5436,0.3492,0.534,0.907,0.8986,1.0943,1.3593,2.0475,2.0023,1.9853,2.082,2.0962,2.1122,2.1688,2.1553,2.1038,2.0058,2.0147,2.0346,2.0384,1.9801,1.9559,1.9914,2.0077,2.0092,1.9892,1.982,1.9535,1.9021,1.8936,1.8727,1.8349,1.6499,1.6818,1.9392,1.7294,1.7374,1.9458,1.8232,1.7903,1.8222,0.0,1.4846,1.4147,0.9803,0.8234,0.844,0.5581,0.4418,0.4398,0.4045,0.3744,0.3528,0.3772,0.3868,0.3909,0.4155,0.5097,0.6779,1.0192,1.2186,1.4128,1.8589,1.9653,1.9654,2.0954,2.1912,2.2671,2.3151,2.4216,2.5156,2.5192,2.4873,2.446,2.4041,2.3599,2.2964,2.1977,2.1487,2.1058,2.0432,1.9898,1.9651,1.9977,1.9243,1.7776,1.5291,1.5711,1.5783,1.4777,1.5057,1.5656,1.6537,1.6217,1.6048,1.6205,1.7392,1.8039,1.7952,1.813,1.7991,1.7501,1.8222,1.8024,1.6917,1.7035,1.6596,1.5715,1.5266,1.5088,1.512,1.4291,1.3445,1.2439,0.985,0.7946,0.6595,0.591,0.7171,0.942,0.9637,1.1482,1.3924,2.1463,2.0418,1.9708,2.0825,2.065,2.0633,2.1416,2.1616,2.1807,2.2132,2.1305,2.0872,2.1416,2.0515,1.9742,1.9561,1.9802,1.9748,1.9192,1.879,1.85,1.8327,1.7812,1.745,1.7257,1.4668,1.4842,1.7966,1.5229,1.5392,1.8241,1.7317,1.6953,1.7043,1.5457,1.5387,1.6094,1.0627,0.9502,1.0999,0.6416,0.4373,0.404,0.3668,0.3429,0.3336,0.3336,0.3323,0.3353,0.3792,0.4178,0.5178,0.9183,1.0738,1.2219,1.7801,1.9045,1.9029,2.0973,2.1886,2.2456,2.3236,2.4239,2.5063,2.5206,2.5077,2.4728,2.4066,2.3835,2.3409,2.2318,2.2182,2.2188,2.1939,2.1141,2.0589,2.0623,2.0142,1.8555,1.5175,1.5926,1.5995,1.414,1.5415,1.61,1.5454,1.6182,1.6415,1.5892,1.6811,1.745,1.7675,1.8243,1.832,1.7847,1.8746,1.875,1.7831,1.728,1.6899,1.6672,1.5951,1.5663,1.5729,1.4849,1.3768,1.244,0.9907,0.8363,0.7662,0.8295,0.9105,0.9996,1.0539,1.2073,1.4042,2.164,2.2043,2.2107,2.0942,2.104,2.1432,2.1883,2.1593,2.128,2.1086,2.1356,2.154,2.1422,2.0337,1.9717,1.9923,1.8732,1.7988,1.8046,1.7883,1.7482,1.6756,1.6717,1.6318,1.5468,1.2183,1.1735,1.4293,1.3314,1.3775,1.561,1.7084,1.6744,1.4987,1.7176,1.6246,1.3051,1.2931,1.1153,0.8332,0.7433,0.5982,0.4342,0.4252,0.4014,0.3738,0.3738,0.3563,0.3338,0.364,0.4311,0.5678,0.9417,1.1153,1.2609,1.6718,1.7772,1.7715,1.8125,1.9365,2.0753,2.1678,2.3016,2.434,2.5185,2.4668,2.396,2.3769,2.3676,2.3577,2.3461,2.4877,2.5512,2.3763,2.4386,2.4289,2.1966,2.0223,1.9035,1.8641,1.7153,1.6588,1.7605,1.7234,1.6334,1.4888,1.6464,1.7354,1.7052,1.7146,1.7236,1.7265,1.7329,1.7765,1.859,1.9001,1.9121,1.8943,1.8939,1.8488,1.7674,1.7644,1.7637,1.7594,1.6723,1.4865,1.2342,1.1219,1.0412,0.9944,1.0437,1.1439,1.2656,1.2962,1.4128,1.5567,2.1223,2.1164,2.0976,2.0595,2.0851,2.1283,2.1808,2.1483,2.1216,2.1304,2.1223,2.099,2.0547,1.9746,1.8876,1.7987,1.731,1.6706,1.6198,1.6143,1.5981,1.5617,1.6208,1.6126,1.5223,1.4221,1.369,1.3686,1.4884,1.5545,1.5722,1.7625,1.7374,1.5377,1.5198,1.5112,1.486,1.0826,0.9591,1.005,0.6657,0.4914,0.4317,0.4171,0.3978,0.3807,0.3931,0.382,0.3647,0.3965,0.4251,0.5123,0.8697,1.0225,1.1495,1.5594,1.6397,1.6208,1.7451,1.8696,1.9859,2.0716,2.2562,2.4239,2.4457,2.4649,2.4754,2.4574,2.4834,2.512,2.5156,2.5318,2.5556,2.5817,2.5332,2.4444,2.3061,2.2281,2.0767,1.7761,1.809,1.8114,1.6989,1.744,1.7706,1.7535,1.7272,1.6718,1.581,1.6746,1.7605,1.8193,1.8292,1.8771,1.9643,1.9355,1.9414,1.9807,1.8828,1.8457,1.8613,1.8072,1.7839,1.7781,1.6965,1.5589,1.3882,1.2899,1.2133,1.1619,1.2094,1.24,1.2614,1.2963,1.346,1.3907,2.1068,2.0764,2.0316,2.0005,2.0192,2.0418,2.0562,2.0312,2.0187,2.0425,2.0115,1.9834,1.969,1.9076,1.809,1.6635,1.6175,1.5699,1.5033,1.5015,1.5008,1.4966,1.5689,1.5796,1.5165,1.5081,1.4442,1.3251,1.5486,1.6116,1.5301,1.7369,1.7234,1.5198,1.4016,1.4518,1.5914,1.0755,0.9736,1.1199,0.7263,0.5193,0.444,0.4293,0.4142,0.4019,0.4163,0.4089,0.4037,0.4799,0.489,0.5182,0.8003,0.9586,1.1081,1.4619,1.5435,1.5536,1.6946,1.822,1.9295,1.9893,2.1818,2.3553,2.3621,2.437,2.5072,2.5084,2.5462,2.5844,2.6038,2.5573,2.5522,2.6669,2.5926,2.4839,2.3846,2.3681,2.2255,1.8463,1.9216,1.9416,1.779,1.8175,1.8919,1.9797,1.8496,1.714,1.5988,1.7534,1.8566,1.8776,1.934,1.9688,1.9734,1.9335,1.9277,1.9552,1.8366,1.8138,1.8741,1.8338,1.8015,1.7761,1.7481,1.6604,1.5325,1.4555,1.3737,1.3003,1.3294,1.3115,1.2712,1.2899,1.2907,1.2788,2.1407,2.1501,2.1011,1.9224,1.9039,1.8815,1.7896,1.7746,1.7745,1.7745,1.7734,1.8092,1.9018,1.8395,1.7527,1.659,1.5539,1.4933,1.5007,1.4885,1.4832,1.4896,1.5039,1.5085,1.4999,1.3396,1.2506,1.2407,1.4039,1.4376,1.3583,1.592,1.5832,1.376,1.4677,1.5023,1.4888,1.4409,1.2856,1.068,1.0133,0.7875,0.4793,0.4793,0.4664,0.4486,0.4486,0.4354,0.4468,0.6256,0.6512,0.6293,0.7533,0.9593,1.1953,1.3776,1.5104,1.6017,1.6176,1.7573,1.9034,1.9179,2.0471,2.197,2.2817,2.3632,2.4378,2.4982,2.5041,2.5182,2.5708,2.6003,2.61,2.5864,2.6519,2.6356,2.428,2.3769,2.3216,2.2171,2.0657,2.0156,2.1327,2.0017,1.9614,2.0889,2.0169,1.9342,1.8582,2.0072,2.0198,1.8562,2.0108,2.0145,1.8432,1.8803,1.8603,1.7835,1.7812,1.7777,1.7752,1.8595,1.8517,1.7752,1.8736,1.8072,1.6258,1.6054,1.5209,1.407,1.3951,1.3757,1.3542,1.3218,1.3085,1.3069,2.0655,2.0169,1.9619,1.9118,1.8533,1.804,1.7746,1.7705,1.7672,1.763,1.768,1.76,1.7287,1.703,1.6516,1.5613,1.5117,1.4803,1.4728,1.4699,1.4629,1.4561,1.5399,1.5555,1.4954,1.496,1.4244,1.2801,1.5152,1.6438,1.6705,1.6775,1.6082,1.4774,1.4241,1.4373,1.4849,1.2972,1.2243,1.2185,1.0321,0.9073,0.8253,0.8169,0.8084,0.7977,0.803,0.7912,0.7863,0.862,0.8818,0.8851,0.9416,1.0677,1.2328,1.4337,1.5715,1.6534,1.6157,1.754,1.8956,1.8435,2.0057,2.1827,2.1995,2.3095,2.4307,2.5128,2.5638,2.6015,2.6166,2.6536,2.6789,2.6699,2.673,2.6274,2.4933,2.4926,2.4671,2.3652,2.3429,2.3275,2.3016,2.2583,2.1828,2.0677,2.0211,1.9761,1.9315,2.0029,2.013,1.9412,2.0123,2.023,1.9639,1.8612,1.8251,1.8538,1.7305,1.69,1.7224,1.7463,1.7387,1.711,1.7515,1.7329,1.6685,1.6383,1.5869,1.5225,1.471,1.3927,1.3027,1.2773,1.2211,1.1612,2.0075,1.9627,1.9057,1.8484,1.7941,1.7378,1.6747,1.6885,1.6946,1.664,1.6858,1.6762,1.5971,1.5866,1.5682,1.515,1.4847,1.4614,1.4407,1.4066,1.3775,1.3617,1.4449,1.4669,1.4111,1.4925,1.4733,1.3455,1.5489,1.6688,1.7104,1.6446,1.5627,1.4666,1.3828,1.3833,1.4368,1.2801,1.2302,1.2439,1.0909,1.0074,0.9736,0.9689,0.9652,0.9648,0.968,0.9657,0.9696,1.0364,1.0328,1.0175,1.1221,1.2194,1.3209,1.4654,1.5918,1.6879,1.6895,1.8165,1.9296,1.8573,2.0108,2.1954,2.2522,2.3186,2.4011,2.5214,2.5785,2.604,2.5963,2.5926,2.5994,2.6186,2.5828,2.5374,2.5005,2.5246,2.5077,2.4036,2.4237,2.414,2.329,2.2922,2.2207,2.0917,2.0412,2.0051,1.9791,2.0057,2.0037,1.97,2.026,2.0227,1.9537,1.8499,1.8081,1.8204,1.673,1.5993,1.595,1.6196,1.6132,1.5837,1.6373,1.6732,1.6876,1.613,1.5969,1.6059,1.4649,1.3724,1.3056,1.2454,1.179,1.112,1.9703,1.9647,1.9134,1.7554,1.7344,1.6867,1.5291,1.5639,1.5853,1.5132,1.5611,1.5752,1.5136,1.4993,1.4979,1.5061,1.4738,1.4401,1.4143,1.3181,1.2542,1.2415,1.2639,1.278,1.2788,1.3588,1.406,1.4172,1.5175,1.5522,1.5306,1.5253,1.4674,1.3713,1.3509,1.3477,1.3572,1.3641,1.2961,1.1851,1.1913,1.1073,0.9766,0.9889,0.9938,0.9952,1.0013,1.0094,1.038,1.1643,1.1247,1.0647,1.2896,1.3922,1.4373,1.4843,1.5922,1.7157,1.8068,1.9131,1.986,1.9258,2.0463,2.2264,2.4003,2.3778,2.3648,2.5255,2.5542,2.5437,2.5247,2.4535,2.4171,2.4739,2.4189,2.3929,2.4629,2.4943,2.4721,2.364,2.3488,2.3178,2.2474,2.1618,2.1157,2.1326,2.0676,2.0207,2.0002,2.0041,1.989,1.9499,2.0389,2.0106,1.8479,1.8521,1.8078,1.7118,1.6174,1.5176,1.4206,1.4861,1.476,1.411,1.5211,1.6087,1.6659,1.5411,1.5633,1.6532,1.407,1.333,1.357,1.2307,1.1662,1.1491,1.9426,1.8615,1.7903,1.814,1.7659,1.7112,1.6718,1.6809,1.6832,1.6615,1.6142,1.5808,1.5706,1.5059,1.4639,1.4709,1.467,1.4566,1.4337,1.3295,1.2939,1.3496,1.2906,1.2564,1.256,1.2825,1.3235,1.3818,1.5415,1.589,1.5293,1.5386,1.487,1.3848,1.3698,1.3526,1.3379,1.3428,1.3412,1.3304,1.3436,1.301,1.2395,1.3082,1.2938,1.2459,1.3111,1.33,1.3231,1.3555,1.3257,1.2969,1.4181,1.44,1.4437,1.5506,1.711,1.8377,1.7553,1.8251,1.9009,1.8314,1.998,2.2245,2.3945,2.4171,2.4286,2.5254,2.5479,2.5476,2.5379,2.4575,2.4169,2.4973,2.4265,2.3918,2.4741,2.5052,2.5065,2.4745,2.4245,2.3563,2.2649,2.235,2.1502,1.9809,1.9976,1.9814,1.9068,1.8853,1.8988,1.9481,1.9679,1.9572,1.9095,1.904,1.8452,1.7313,1.6429,1.5258,1.3907,1.3972,1.3416,1.249,1.3207,1.3889,1.4493,1.4772,1.5505,1.625,1.458,1.4033,1.3982,1.2423,1.1642,1.1246,1.9114,1.8617,1.8103,1.8209,1.7862,1.7331,1.6583,1.7121,1.7176,1.5975,1.6485,1.6479,1.5293,1.5154,1.4951,1.4451,1.4437,1.4391,1.4172,1.3108,1.2459,1.2395,1.1876,1.1414,1.1056,1.176,1.2489,1.3227,1.4471,1.4869,1.4478,1.4674,1.4474,1.3938,1.3743,1.3337,1.2806,1.2806,1.268,1.2517,1.3082,1.3156,1.3034,1.4023,1.4137,1.3808,1.4286,1.4368,1.4282,1.4495,1.3996,1.3515,1.4742,1.4805,1.4701,1.6068,1.7258,1.7983,1.7326,1.8046,1.9123,1.9706,2.0706,2.2103,2.4291,2.4516,2.4476,2.5243,2.5427,2.5337,2.4938,2.4376,2.4023,2.4091,2.3636,2.3564,2.4368,2.4617,2.4668,2.4617,2.4252,2.3463,2.2087,2.1847,2.1066,1.9378,1.9482,1.9421,1.891,1.8663,1.8592,1.8757,1.9002,1.9154,1.9209,1.9804,1.9723,1.894,1.8159,1.6889,1.5243,1.4735,1.3739,1.237,1.2638,1.3178,1.3876,1.4639,1.5613,1.6545,1.5184,1.4689,1.4508,1.2755,1.1765,1.1305,1.8786,1.8927,1.8685,1.812,1.806,1.7654,1.6297,1.7329,1.7508,1.5353,1.6801,1.7172,1.4897,1.5202,1.5215,1.4396,1.4298,1.4181,1.3953,1.2895,1.1891,1.11,1.0814,1.0319,0.9609,1.0855,1.1793,1.2308,1.3076,1.3442,1.3457,1.3739,1.3894,1.3912,1.3698,1.3149,1.2366,1.2201,1.175,1.1215,1.2147,1.2491,1.2582,1.3938,1.4355,1.4223,1.4435,1.449,1.4501,1.487,1.4212,1.3528,1.5,1.5204,1.5129,1.6526,1.7008,1.7111,1.7185,1.7975,1.9277,2.1426,2.1646,2.2048,2.4747,2.4851,2.4583,2.5254,2.5393,2.5193,2.4516,2.4224,2.3864,2.3166,2.3079,2.3301,2.397,2.4086,2.4105,2.4125,2.375,2.2915,2.1457,2.0866,2.0234,1.939,1.917,1.902,1.889,1.8785,1.8411,1.7708,1.8342,1.8914,1.9308,2.0384,2.0921,2.0899,2.0285,1.8951,1.702,1.6161,1.4765,1.3004,1.2844,1.3192,1.3941,1.4639,1.5726,1.6773,1.5469,1.5055,1.4939,1.29,1.1822,1.1368,1.861,1.8288,1.7913,1.8484,1.8574,1.8555,1.8408,1.8756,1.8922,1.8643,1.7548,1.6649,1.6276,1.4887,1.4219,1.4812,1.4719,1.4469,1.4086,1.312,1.2742,1.3194,1.2074,1.1263,1.0911,1.1039,1.0933,1.0587,1.2371,1.3244,1.3261,1.3572,1.3684,1.3576,1.3588,1.3423,1.3092,1.2516,1.2239,1.2197,1.253,1.2231,1.1849,1.4286,1.4389,1.3385,1.4627,1.5103,1.5114,1.497,1.4958,1.5114,1.5641,1.5725,1.581,1.6778,1.7281,1.7405,1.6918,1.6997,1.7753,1.9903,2.1201,2.2533,2.4667,2.5183,2.5235,2.5297,2.5418,2.5437,2.5243,2.46,2.4138,2.4212,2.4053,2.4002,2.4296,2.4205,2.4268,2.4713,2.2904,2.1665,2.1775,2.047,1.9452,1.9082,1.8981,1.8623,1.7938,1.8251,1.7931,1.674,1.7732,1.8934,2.0279,1.9934,2.0306,2.1381,2.0985,1.9572,1.7245,1.6759,1.5446,1.3564,1.3173,1.3173,1.3476,1.4244,1.5133,1.5859,1.4332,1.4283,1.4689,1.1964,1.1158,1.132,1.8446,1.8357,1.8178,1.8439,1.851,1.8407,1.8038,1.8431,1.8342,1.7136,1.7489,1.7313,1.5882,1.538,1.5092,1.4961,1.471,1.447,1.4277,1.3848,1.3493,1.3177,1.1948,1.1035,1.0512,1.0655,1.0756,1.0796,1.23,1.2945,1.284,1.3394,1.3861,1.4244,1.3903,1.3632,1.3342,1.2226,1.1367,1.0752,1.1121,1.1414,1.1889,1.388,1.4681,1.4831,1.5659,1.5872,1.577,1.5726,1.56,1.5583,1.632,1.6392,1.6365,1.7308,1.738,1.7194,1.7316,1.6835,1.6967,1.9723,2.0709,2.1512,2.3553,2.4091,2.4224,2.4455,2.4571,2.4639,2.4636,2.4159,2.3543,2.2834,2.2929,2.3101,2.3146,2.3507,2.3878,2.4174,2.2709,2.1604,2.1432,2.0129,1.923,1.9069,1.8431,1.7897,1.7489,1.7163,1.6931,1.6782,1.7959,1.911,2.0233,2.0749,2.144,2.2317,2.2218,2.129,1.9631,1.8348,1.6784,1.4975,1.3677,1.3211,1.3415,1.4235,1.4883,1.5358,1.4856,1.4576,1.4194,1.1896,1.0827,1.0384,1.7949,1.8108,1.8141,1.8235,1.8287,1.8113,1.7524,1.7966,1.7675,1.5747,1.7205,1.7666,1.5678,1.5852,1.5941,1.5521,1.5037,1.4827,1.5044,1.4919,1.4274,1.3037,1.1854,1.0881,1.0165,1.0527,1.0963,1.1452,1.2312,1.2687,1.2581,1.3176,1.3867,1.4584,1.4066,1.3739,1.3515,1.2176,1.0886,0.9796,1.0228,1.1061,1.2216,1.383,1.5208,1.6343,1.6741,1.6758,1.6588,1.6589,1.6245,1.597,1.6886,1.673,1.6433,1.7636,1.7729,1.7502,1.7831,1.7249,1.7165,1.9738,2.011,2.0315,2.2192,2.2783,2.3065,2.3499,2.3888,2.4154,2.4219,2.3986,2.3303,2.1855,2.215,2.2465,2.2245,2.2831,2.3318,2.3367,2.2417,2.1522,2.0914,2.001,1.9423,1.9289,1.8394,1.7783,1.7623,1.6978,1.6855,1.7398,1.8274,1.9101,1.9823,2.1042,2.1952,2.2561,2.2852,2.2481,2.1537,1.9667,1.7869,1.6169,1.4106,1.3238,1.3308,1.3872,1.4212,1.4432,1.4579,1.3978,1.2838,1.1251,0.9905,0.8718,1.6826,1.6832,1.6963,1.7952,1.8078,1.8035,1.8118,1.8177,1.8001,1.7382,1.6941,1.6717,1.6835,1.57,1.5539,1.7067,1.6327,1.6127,1.6937,1.6238,1.52,1.3876,1.2541,1.1534,1.0922,1.1256,1.1601,1.1949,1.2153,1.2439,1.2776,1.2961,1.3278,1.3686,1.3634,1.3706,1.38,1.2885,1.1981,1.1175,1.1462,1.1921,1.2702,1.492,1.6104,1.6674,1.7443,1.7736,1.7699,1.7285,1.6981,1.6867,1.7268,1.6429,1.5649,1.7383,1.8569,1.9114,1.823,1.837,1.8874,1.9303,1.937,1.9682,2.0866,2.1831,2.255,2.2909,2.396,2.4853,2.4917,2.4747,2.4217,2.3065,2.3259,2.3348,2.267,2.2608,2.2685,2.2757,2.1607,2.0704,2.0471,2.0315,2.012,1.986,1.9631,1.9215,1.8547,1.8847,1.8944,1.867,1.841,1.8598,1.9334,1.959,2.0214,2.1257,2.1937,2.1943,2.1276,1.9817,1.8179,1.6368,1.4409,1.3291,1.2836,1.2641,1.2502,1.2377,1.1965,1.1132,1.0059,0.8896,0.7579,0.6172,1.6289,1.6428,1.6624,1.7405,1.7625,1.771,1.776,1.7738,1.7534,1.7013,1.708,1.7287,1.7521,1.6881,1.6762,1.7636,1.6914,1.6358,1.6216,1.5631,1.4739,1.3524,1.2134,1.1486,1.167,1.1521,1.1653,1.2071,1.21,1.2251,1.2522,1.3477,1.4057,1.4296,1.498,1.5086,1.4709,1.3646,1.2628,1.1679,1.1777,1.2317,1.327,1.5176,1.6588,1.7685,1.8356,1.8592,1.8498,1.7986,1.785,1.7707,1.6664,1.6652,1.7219,1.8266,1.9365,1.9927,1.8559,1.8392,1.8949,2.0226,1.9671,1.9132,2.0464,2.1004,2.1378,2.1916,2.2974,2.402,2.4847,2.4182,2.3327,2.2794,2.2638,2.2382,2.1772,2.2312,2.2567,2.1957,2.1164,2.0493,2.012,1.9615,1.9291,1.929,1.8529,1.822,1.8524,1.8931,1.8894,1.8271,1.8409,1.8487,1.8409,1.8553,1.9001,1.9739,1.9989,1.9999,1.9766,1.8187,1.6713,1.5318,1.3277,1.2134,1.1718,1.1383,1.1387,1.1612,1.1297,1.043,0.9125,0.7561,0.5774,0.3866,1.5662,1.5886,1.62,1.7011,1.7327,1.7545,1.7826,1.7812,1.7538,1.6898,1.7474,1.7864,1.7786,1.7649,1.7669,1.8029,1.7289,1.6495,1.5806,1.5141,1.4201,1.2943,1.2152,1.1912,1.2228,1.1952,1.2121,1.277,1.2462,1.2455,1.2753,1.3587,1.4124,1.44,1.5464,1.5693,1.5231,1.4377,1.3338,1.2256,1.2001,1.2326,1.3145,1.4891,1.6469,1.7848,1.8761,1.9059,1.8945,1.8585,1.8306,1.7894,1.6519,1.6676,1.7546,1.8485,1.928,1.9722,1.91,1.8757,1.8846,1.9946,1.9253,1.8532,1.9454,1.9866,2.0286,2.095,2.2172,2.3414,2.4486,2.3814,2.3011,2.272,2.2352,2.1883,2.1349,2.1833,2.1823,2.0662,2.0091,1.9579,1.9009,1.8688,1.8685,1.9059,1.8262,1.7983,1.8534,1.865,1.8452,1.7882,1.8032,1.7874,1.7377,1.7651,1.7957,1.8302,1.8206,1.8257,1.8316,1.6713,1.5439,1.4369,1.2509,1.1372,1.081,1.0592,1.0622,1.0797,1.0623,0.9468,0.7757,0.637,0.3978,0.101,1.4888,1.5099,1.5571,1.68,1.7214,1.7681,1.8476,1.861,1.8286,1.7419,1.8063,1.8322,1.7597,1.77,1.7956,1.8345,1.7546,1.674,1.6141,1.5114,1.3826,1.2291,1.2845,1.2976,1.2512,1.2623,1.3178,1.4195,1.3267,1.3099,1.3679,1.3167,1.3173,1.3639,1.4658,1.5178,1.5278,1.5017,1.4208,1.3025,1.2242,1.1958,1.2199,1.4078,1.5603,1.6906,1.8515,1.9063,1.9,1.8992,1.8243,1.7257,1.6986,1.6396,1.6096,1.7715,1.8106,1.8323,1.9862,1.9648,1.883,1.8109,1.7856,1.7776,1.7642,1.8426,1.9388,2.0054,2.1731,2.3271,2.3886,2.3888,2.3656,2.3182,2.2788,2.2309,2.1773,2.1178,2.0262,1.8783,1.8303,1.7791,1.6971,1.7609,1.8467,1.9382,1.9279,1.9044,1.8703,1.8106,1.7797,1.7786,1.72,1.6668,1.6191,1.6774,1.7041,1.6965,1.6843,1.6925,1.7116,1.5703,1.462,1.3688,1.2445,1.1251,1.0221,1.0414,1.0213,0.9799,0.9584,0.7884,0.5567,0.5191,0.2035,-0.2407,1.4588,1.4917,1.5384,1.6443,1.6869,1.732,1.813,1.8271,1.8306,1.8211,1.8183,1.8206,1.8271,1.795,1.7793,1.7975,1.7343,1.6607,1.5885,1.573,1.5273,1.4276,1.3241,1.2955,1.3473,1.2168,1.2085,1.3297,1.2726,1.2726,1.331,1.4222,1.4294,1.3735,1.5316,1.5563,1.4825,1.5227,1.4609,1.3414,1.3744,1.3308,1.2627,1.4056,1.5282,1.6384,1.7305,1.814,1.8816,1.9063,1.8571,1.7744,1.7103,1.5796,1.4944,1.702,1.7809,1.7985,1.7879,1.8481,1.9179,1.9388,1.8366,1.7417,1.7849,1.8009,1.8405,1.9596,2.0976,2.2433,2.3873,2.4002,2.3767,2.3432,2.3247,2.282,2.1967,2.1479,2.0576,1.8809,1.7864,1.7029,1.6349,1.6228,1.6371,1.6795,1.7223,1.7235,1.6756,1.7228,1.7152,1.6349,1.6145,1.5659,1.4804,1.5301,1.5397,1.5093,1.4393,1.3959,1.3796,1.3301,1.2603,1.1804,1.1246,1.0681,1.0231,1.0516,1.0763,1.0875,0.9826,0.8106,0.5939,0.3711,0.0054,-0.4081,1.4471,1.4739,1.5113,1.609,1.6586,1.7161,1.8035,1.8231,1.8399,1.8786,1.8712,1.8622,1.8588,1.8328,1.7955,1.7534,1.6811,1.6172,1.5607,1.5853,1.5771,1.5234,1.3993,1.3403,1.3572,1.2706,1.252,1.3055,1.2796,1.2926,1.3352,1.4098,1.4272,1.4007,1.5471,1.5888,1.5536,1.5833,1.5399,1.4497,1.4631,1.3858,1.2724,1.4015,1.4933,1.5624,1.6559,1.7645,1.87,1.8978,1.8419,1.749,1.6908,1.5518,1.4498,1.6399,1.7017,1.7071,1.702,1.7721,1.8593,1.9013,1.8189,1.7378,1.7732,1.7791,1.7973,1.8798,2.0209,2.1729,2.3016,2.3603,2.386,2.3714,2.357,2.3159,2.2272,2.1545,2.0415,1.8435,1.7303,1.6327,1.538,1.5131,1.5202,1.5518,1.588,1.5876,1.5449,1.6047,1.6009,1.5096,1.5186,1.4863,1.4158,1.4469,1.4341,1.382,1.2793,1.2071,1.1593,1.1223,1.0824,1.0389,1.0021,1.0078,1.0453,1.0919,1.1278,1.1432,1.0723,0.8531,0.5561,0.3253,-0.1114,-0.6077,1.4553,1.4586,1.4771,1.5757,1.6316,1.7032,1.8143,1.8361,1.8601,1.9179,1.9395,1.9263,1.8575,1.8559,1.8154,1.7042,1.6123,1.5575,1.5402,1.5607,1.5636,1.546,1.5026,1.4281,1.3246,1.3762,1.3828,1.3363,1.3313,1.3425,1.3707,1.3342,1.3597,1.4387,1.5286,1.6112,1.6795,1.6612,1.6311,1.5895,1.5157,1.3949,1.2732,1.3992,1.4546,1.4869,1.617,1.7424,1.8521,1.8717,1.7916,1.6797,1.6586,1.5582,1.4708,1.5945,1.6056,1.5984,1.6954,1.7299,1.7387,1.7525,1.754,1.7506,1.7329,1.749,1.7687,1.7689,1.9295,2.092,2.1628,2.2861,2.3801,2.3937,2.3795,2.3397,2.2651,2.1506,2.0004,1.8006,1.6817,1.5646,1.4332,1.4283,1.4469,1.4942,1.4892,1.4739,1.4485,1.465,1.448,1.3967,1.4241,1.4239,1.3959,1.3982,1.3676,1.3012,1.1991,1.1147,1.0421,0.9744,0.9459,0.9513,0.9063,0.9542,1.0744,1.1527,1.176,1.1681,1.1967,0.9149,0.4824,0.3633,-0.1472,-0.7974,1.4721,1.4468,1.4613,1.5775,1.5831,1.6301,1.8094,1.8383,1.8718,1.9567,1.9139,1.8674,1.8511,1.7738,1.7046,1.6556,1.6094,1.5682,1.533,1.5667,1.5868,1.589,1.5952,1.5391,1.4078,1.3321,1.3236,1.3844,1.3374,1.3348,1.38,1.4375,1.4665,1.471,1.5403,1.5892,1.6209,1.6644,1.6375,1.5711,1.5866,1.5182,1.4054,1.4163,1.4719,1.5511,1.5938,1.6759,1.7693,1.7837,1.7545,1.7053,1.6761,1.6255,1.5889,1.6338,1.6375,1.6375,1.6549,1.6877,1.715,1.7072,1.7121,1.7036,1.6453,1.5665,1.5451,1.6687,1.7313,1.8418,2.1005,2.203,2.2776,2.3638,2.3939,2.3762,2.2912,2.1827,2.0528,1.9084,1.7191,1.5547,1.4458,1.3432,1.2719,1.2362,1.2645,1.2781,1.2589,1.3161,1.333,1.2955,1.3347,1.3338,1.2854,1.2489,1.2366,1.2483,1.2418,1.1858,1.0775,1.0535,1.0221,0.9935,0.9545,0.9836,1.0704,1.1706,1.2415,1.2903,1.2633,1.0067,0.6172,0.3842,-0.1235,-0.764,1.4501,1.4334,1.4555,1.5768,1.5994,1.6454,1.7782,1.7773,1.7935,1.8824,1.8524,1.8253,1.8359,1.7818,1.7155,1.6445,1.6218,1.6023,1.5845,1.6025,1.6148,1.6194,1.5872,1.5604,1.546,1.4146,1.3468,1.3484,1.3254,1.3434,1.4042,1.4508,1.5047,1.5607,1.5863,1.6248,1.6706,1.7143,1.706,1.6626,1.6997,1.6435,1.5334,1.5167,1.5368,1.5767,1.5845,1.6539,1.7404,1.7482,1.7356,1.7164,1.7316,1.7194,1.7135,1.7743,1.7599,1.7369,1.7888,1.7783,1.7546,1.7543,1.7302,1.6837,1.6021,1.5049,1.4369,1.4679,1.5172,1.6224,1.8374,2.0,2.139,2.2614,2.315,2.3285,2.283,2.1673,2.0431,1.9277,1.7523,1.5694,1.3903,1.2478,1.1502,1.1211,1.1382,1.1601,1.1807,1.2373,1.2628,1.2491,1.2646,1.28,1.2986,1.2358,1.219,1.2435,1.2035,1.1337,1.0426,0.999,0.9835,0.9808,0.9173,0.9612,1.0885,1.2058,1.2754,1.3118,1.3361,1.0714,0.6536,0.4675,-0.073,-0.7833,1.4237,1.4214,1.4541,1.5729,1.6322,1.6847,1.7478,1.728,1.7316,1.8003,1.7947,1.7983,1.8243,1.8075,1.755,1.6521,1.6388,1.6427,1.6522,1.6452,1.6408,1.6427,1.5555,1.5487,1.6323,1.5133,1.4164,1.3503,1.3501,1.3877,1.4588,1.4624,1.5325,1.6562,1.6464,1.6824,1.7472,1.7708,1.7805,1.7827,1.8225,1.7687,1.6646,1.672,1.6558,1.6354,1.6392,1.6881,1.7497,1.724,1.7035,1.6987,1.7459,1.7627,1.7837,1.8706,1.8515,1.8198,1.9038,1.8703,1.808,1.7934,1.7474,1.6701,1.5504,1.453,1.3581,1.2519,1.2926,1.3863,1.5171,1.7274,1.9327,2.0776,2.1606,2.2027,2.191,2.0904,1.9836,1.8914,1.7437,1.5568,1.3148,1.1679,1.0828,1.068,1.0725,1.1003,1.1487,1.2037,1.2362,1.244,1.2262,1.2575,1.34,1.2726,1.2491,1.2681,1.1933,1.1,0.9998,0.9447,0.9366,0.9591,0.8876,0.9456,1.1005,1.2254,1.2839,1.2968,1.363,1.1001,0.6625,0.4469,-0.1169,-0.8252,1.4254,1.4093,1.4471,1.5901,1.6315,1.6775,1.7791,1.8097,1.8241,1.84,1.8011,1.7954,1.8568,1.7848,1.7113,1.6623,1.6649,1.6803,1.6984,1.6682,1.6484,1.6502,1.6079,1.5533,1.4815,1.4822,1.5182,1.5937,1.5145,1.5108,1.5764,1.5884,1.6263,1.684,1.695,1.7231,1.7664,1.7816,1.798,1.8229,1.9167,1.8956,1.8093,1.8659,1.8714,1.8471,1.842,1.8269,1.7883,1.6561,1.6128,1.6082,1.5704,1.6111,1.6708,1.6712,1.7173,1.7574,1.7149,1.7757,1.8177,1.6739,1.6727,1.6431,1.4014,1.2829,1.202,1.1274,1.0582,1.0782,1.304,1.4227,1.5515,1.7505,1.9055,1.9747,1.9056,1.896,1.8687,1.8046,1.6089,1.4228,1.2812,1.1787,1.0931,1.014,1.0479,1.0864,1.1154,1.1962,1.2441,1.2583,1.2605,1.2781,1.3059,1.2788,1.2788,1.3133,1.3894,1.2933,1.051,1.0775,1.0499,0.9884,1.0031,1.0238,1.0558,1.1861,1.2589,1.2875,1.2387,1.0464,0.711,0.0044,-0.4856,-0.8438,1.4235,1.4273,1.4673,1.5872,1.6533,1.7157,1.7955,1.8193,1.8303,1.8277,1.7845,1.7636,1.7897,1.7592,1.7316,1.7155,1.7187,1.7452,1.8019,1.7182,1.683,1.7224,1.5875,1.5005,1.4732,1.4147,1.4453,1.5733,1.5144,1.5184,1.579,1.6177,1.6725,1.7347,1.7245,1.7377,1.7766,1.8521,1.8665,1.8545,2.0116,2.0152,1.9319,1.9952,2.0043,1.9751,1.9103,1.8236,1.7321,1.6856,1.6281,1.5886,1.6498,1.692,1.7384,1.8466,1.8961,1.9304,1.9899,1.9766,1.9215,1.8234,1.7463,1.6253,1.3611,1.1372,0.9756,0.9233,0.8306,0.8138,0.9797,1.0986,1.2298,1.4117,1.5535,1.653,1.6832,1.6824,1.6708,1.6524,1.5431,1.4215,1.2898,1.2297,1.1416,0.9865,1.0438,1.0804,1.0592,1.1292,1.171,1.178,1.2093,1.2552,1.3173,1.3191,1.3622,1.4358,1.4317,1.3363,1.1685,1.2278,1.2021,1.1198,1.1238,1.1207,1.1142,1.2348,1.2607,1.2202,1.1883,0.9667,0.6092,0.1013,-0.29,-0.6122]}]]